[[{"header":{"parameterUnit":"m.s-1","parameterCategory":2,"la1":30.5641,"la2":29.4642,"lo1":-89.4342,"lo2":-87.9343,"dy":0.0333,"dx":0.0333,"nx":46,"ny":34,"refTime":"2024-04-01T00:00:00:Z","depth":"0","parameterNumber":2,"parameterNumberName":"U-component_of_CURRENTS"},"data":[0,0,0,0,0,0,0,0,0,0,0,0,0,0,0,0,0,0,0,0,0,0,0,0,0,0,0,0,0,0,0,0,0,0,0,0,0,0,0,0,0,0.0003,0.0308,0.022,-0.0099,0,0,0,0,0,0,0,0,0,0,0,0,0,0,0,0,0,0,0,0,0,0,0,0,0,0,0,0,0,0,0,0,0,0,0,0,0,0,0,0,0,0,-0.014,-0.0368,-0.0459,-0.033,0,0,0,0,0,0,0,0,0,0,0,0,0,0,0,0,0,0,0,0,0,0,0,0,0,0,0,0,0,0,0,0,0,0,0,0,0,0,0,0,0,0,0.0058,-0.0415,-0.0851,-0.045,0,0,0,0,0,0,0,0,0,0,0,0,0,0,0,0,0,0,0,0,0,0,0,0,0,0,0,0,0,0,0,0,0,0,0,0,0,0,0,0,0,0,-0.0099,0.0066,-0.0563,-0.0547,0,0,0,0,0,0,0,0,0,0,0,0,0,0,0,0,0,0,0,0,0,0,0,0,0,0,0,0,0,0,0,0,0,0,0,0,0,0,0,0,0,0.0085,0.0283,0.0415,-0.0008,-0.0302,0,0,0,0,0,0,0,0,0,0,0,0,0,0,0,0,0,0,0,0,0,0,0,0,0,0,0,0,0,0,0,0,0,0,0,0,0,0,0,0,0,-0.0047,-0.022,-0.0354,-0.0547,-0.0629,0,0,0,0,0,0,0,0,0,0,0,0,-0.0113,-0.019,-0.0121,-0.0096,-0.0126,-0.0244,-0.0442,-0.0527,-0.0505,0,0,0,0,0,0,0,0,0,0,0,0,-0.0566,-0.1093,-0.1057,0,0,0,0,0,-0.053,-0.1445,-0.1546,-0.1277,-0.1159,0,0,0,0,0,0,0,0,0,0.0058,0.0453,0.0706,0.0549,0.0434,0.0409,0.0453,0.0503,0.0508,0.0423,0.0118,-0.0431,-0.0813,-0.0871,-0.075,-0.0634,-0.0879,-0.1129,0,0,0,0,-0.0173,-0.0181,0.0428,0.0615,0.036,0,0,0,0,0,-0.061,-0.1936,-0.2307,-0.1791,-0.1423,0,0,0,0,-0.0393,-0.0525,-0.0091,0.0165,0.0376,0.0527,0.0514,0.0396,0.0316,0.0376,0.0437,0.0483,0.0678,0.0882,0.0824,0.045,0.0272,0.0472,0.0742,0.0945,0.0321,-0.0692,-0.0071,0.0824,0.0461,0.0181,0.0467,0.0577,0.0137,-0.0093,-0.0338,-0.0494,-0.0917,-0.2068,-0.3156,-0.367,-0.3387,-0.1541,-0.0959,-0.2582,-0.2708,-0.1851,0,0,0,-0.0118,-0.0033,0.0335,0.0547,0.053,0.0478,0.0552,0.0148,-0.0247,0.0102,0.0338,0.0258,0.0308,0.0698,0.1439,0.1461,0.0275,-0.0791,-0.0711,-0.0179,0.0069,0.022,0.0308,0.0772,0.1582,0.0816,-0.0132,0.0222,0.0277,-0.0126,-0.0788,-0.1708,-0.1272,0.053,0.1165,0.0972,0,0,0,-0.1857,-0.4439,-0.4194,-0.2598,0,0,-0.0244,-0.0393,-0.0132,0.0102,0.0192,0.0181,0.022,0.0291,0,0,0,0.0005,-0.0148,-0.0357,-0.0401,0,0.0203,-0.0286,-0.0981,0,0,0,0,0,0,0,-0.1332,-0.2098,-0.1008,0.0214,0.0113,-0.058,-0.0475,0,0,-0.0417,-0.0824,-0.1752,-0.3675,-0.4551,-0.1703,0.1038,0,0,0,-0.0409,-0.0464,-0.0283,-0.0374,-0.0146,0.0154,0.0198,-0.0096,-0.0261,0.0016,0.0288,0.0404,0.0382,0.025,0,0,0.0319,0.0948,0.0868,0.1033,0.1343,0.0876,0.025,-0.0527,-0.0777,-0.0461,-0.0379,-0.0486,0,0,0,-0.1071,-0.161,-0.0692,-0.086,-0.2189,-0.225,-0.0843,-0.008,0.0129,0.0264,0,0.0407,-0.0137,-0.1206,-0.1225,-0.0843,-0.0049,-0.0157,-0.0201,0.0294,0.1115,0.1274,0.1159,0.0989,0.0673,0.0678,0.0585,0.0577,0.1,0.1272,0.1176,0.1165,0.1351,0.1695,0.1884,0.1697,0.1307,0.1126,0.0967,0.0533,-0.0665,-0.1686,-0.1211,-0.1214,-0.2137,-0.2524,-0.2607,-0.2074,-0.0838,-0.0211,-0.0728,-0.0912,-0.0678,-0.0519,-0.0137,-0.0407,-0.1522,-0.1121,0.0049,-0.014,-0.0689,0,-0.042,-0.0448,0.008,0.0426,0.0643,0,0,-0.0052,0.0058,0.0297,0.0426,0.0582,0.0868,0.1211,0.1384,0.1437,0.1607,0.1818,0.1832,0.175,0.1643,0.1393,0.0989,0.0613,0.0371,0.0121,0.0244,0.0439,0.0099,0.0055,-0.0906,-0.2252,-0.1697,-0.0887,-0.0365,0.0349,0.0566,0.0074,-0.0527,-0.0766,-0.1167,-0.084,-0.0063,-0.0255,-0.0747,-0.1343,-0.0695,-0.0162,0.0209,0.0211,0,0,0,0.006,0.0335,0.0538,0.061,0.0786,0.0992,0.1192,0.1426,0.192,0.2304,0.225,0.1849,0.1483,0.1428,0.1398,0.1176,0.0808,0.0703,0.0799,0.0816,0.0794,0.067,0.0898,0.0569,-0.134,-0.2002,-0.1118,-0.0453,-0.0354,-0.0665,-0.0901,-0.1209,-0.1222,-0.128,-0.111,-0.0725,-0.0802,-0.0986,-0.0692,0.0038,0.1461,0,0,0,0,0,0.0014,0.0442,0.0777,0.0698,0.0753,0.092,0.1184,0.1483,0.2247,0.3002,0.2766,0.203,0.1316,0.0964,0.1035,0.1082,0.0953,0.0821,0.0797,0.0846,0.089,0.0901,0.0854,0.0643,-0.0404,-0.1423,-0.0983,-0.0843,-0.1582,-0.1802,-0.1747,-0.1903,-0.2112,-0.2266,-0.209,-0.1656,-0.1384,-0.1241,0,0,-0.0239,-0.0357,-0.0132,-0.0027,0,0,0.0121,0.053,0.0788,0.067,0.0596,0.0678,0.0843,0.0956,0.097,0,0.0667,0.1538,0.1274,0.0711,0.064,0.0706,0.0761,0.0725,0.0632,0.0585,0.0602,0.0626,0.0632,0.0538,-0.0011,-0.092,-0.0904,-0.0797,-0.1725,-0.2195,-0.2024,-0.2016,-0.2178,-0.2348,-0.2406,-0.2228,-0.1923,-0.1703,0,0,0.0415,0.0871,0.103,0.1607,0.159,0.1351,0.1327,0.0893,0.0673,0.0566,0.0492,0.0516,0.0566,0.061,0.0124,-0.0401,0,0.0505,0.0876,0.0632,0.0434,0.0305,0.0297,0.0332,0.0316,0.0239,0.0162,0.0126,0.0055,-0.0206,-0.0582,-0.0942,-0.0945,-0.0588,-0.1,-0.1906,-0.2052,-0.1794,-0.1722,-0.1662,-0.1912,-0.2186,-0.2115,-0.2044,0,0,0,0.0085,0.0173,0,0,0,0.0176,0.0357,0.0398,0.0437,0.0434,0.0412,0.0387,0.0401,0.0297,0.0168,0,0.0341,0.0676,0.0533,0.0294,0.0005,-0.0203,-0.017,-0.0201,-0.0461,-0.0835,-0.1088,-0.1077,-0.086,-0.0571,-0.0368,-0.0291,-0.0151,-0.017,-0.084,-0.1588,-0.1588,-0.1316,-0.1555,-0.2239,-0.2456,-0.2302,-0.2282,0,0,0,0,0,0,0,-0.0217,0.0016,0.0547,0.0588,0.0492,0.0382,0.0288,0.0233,0.0187,-0.0038,-0.0225,0,0.0297,0.0593,0.0415,0.0214,-0.0058,-0.0511,-0.0777,-0.1025,-0.1338,-0.1354,-0.0964,-0.0516,-0.0231,-0.0008,0.0192,0.0352,0.0494,0.0585,0.0434,-0.0187,-0.0742,-0.0632,-0.0558,-0.1074,-0.1849,-0.2239,-0.2178,0,0,0,0,0,0,-0.0335,-0.0319,0.0124,0.0294,0.036,0.0321,0.0242,0.017,0.0121,-0.028,-0.0706,-0.0758,0,0.022,0.0522,0.0382,0.019,0.019,-0.0102,-0.05,-0.067,-0.0602,-0.0297,-0.0107,-0.0132,-0.0088,0.0047,0.0211,0.0357,0.0525,0.0777,0.1005,0.0909,0.0508,0.0242,0.0124,-0.0088,-0.0261,-0.0442,-0.0764,0,0,0,0,0,0,-0.0198,-0.0222,0.0071,0.0195,0.0151,0.0071,-0.0041,-0.0049,-0.0058,-0.014,0,0,0,0.017,0.0541,0.0481,0.0222,0.0349,0.0486,0.0415,0.0341,0.0343,0.0195,-0.0074,-0.0203,-0.0146,-0.0022,0.0121,0.0247,0.0324,0.0459,0.0808,0.1206,0.1291,0.1044,0.0659,0.025,0.0019,0.0011,0.0019,0,0,0,0,0,0,-0.0132,-0.0184,-0.0027,0.0049,0.0005,-0.0129,-0.0431,-0.0379,-0.0135,-0.0198,-0.0239,0,0,0.0179,0.0651,0.0689,0.0338,0.033,0.0511,0.0665,0.0722,0.0629,0.0376,0.0102,-0.0077,-0.0151,-0.011,0.0044,0.0261,0.0426,0.0417,0.0431,0.0802,0.1351,0.1593,0.1371,0.0816,0.0261,-0.0047,-0.0096,0,0,0,0,0,0.0033,-0.0096,-0.0173,-0.003,0.0027,-0.0005,-0.0069,-0.0096,0,-0.0124,-0.0217,-0.0187,0,0,0.0222,0.0753,0.0893,0.0549,0.0365,0.0404,0.0505,0.0563,0.0486,0.0302,0.0126,0.0052,0.0091,0.0198,0.0319,0.0472,0.0722,0.092,0.078,0.0571,0.0868,0.1469,0.1769,0.1533,0.0953,0.0374,0.0005,0,-0.0475,-0.0813,-0.0786,0,0.0157,0.0055,-0.0113,0.003,0.008,0.0049,0.0011,-0.0085,-0.0437,-0.0536,-0.0376,-0.0387,0,-0.0352,-0.0214,0.0667,0.1066,0.0887,0.0626,0.0525,0.0494,0.0489,0.0516,0.058,0.0706,0.0887,0.1074,0.1225,0.1318,0.1338,0.1269,0.1274,0.134,0.1088,0.0758,0.1003,0.1552,0.178,0.1552,0.1068,0.0585,0,0.0288,0,-0.0214,-0.0431,0,-0.0091,-0.0058,0.0126,0.0162,0.0107,0.0027,-0.0121,-0.0426,-0.0714,-0.0876,-0.0953,0,-0.0096,0.0063,0.0742,0.1316,0.1313,0.1068,0.0961,0.0956,0.1035,0.122,0.1467,0.17,0.1879,0.1989,0.2041,0.209,0.2162,0.2162,0.1986,0.1763,0.1574,0.114,0.0813,0.1074,0.1489,0.1612,0.1412,0.1046,0,0.0288,0.022,-0.0135,-0.0209,-0.0297,-0.0096,0.0198,0.0294,0.0277,0.0198,0.0063,-0.0173,-0.0703,-0.1239,-0.1384,0,-0.0179,-0.0022,0.0577,0.1255,0.1805,0.1703,0.1357,0.1252,0.1288,0.1368,0.1502,0.1651,0.1774,0.1862,0.1901,0.1909,0.1964,0.2142,0.2423,0.2585,0.2425,0.2063,0.1555,0.0912,0.0687,0.0986,0.1255,0.1244,0.103,-0.039,-0.0066,0.0266,0.0159,0.0151,0.006,0.0124,0.0363,0.0439,0.0415,0.0379,0.0222,-0.0228,-0.1368,-0.2184,0,0.0011,0.0201,0.0645,0.1203,0.1835,0.2118,0.175,0.1318,0.1132,0.1027,0.0959,0.0945,0.0992,0.109,0.1195,0.1261,0.1274,0.1338,0.156,0.1986,0.2494,0.2788,0.2648,0.2137,0.1302,0.0582,0.0461,0.0623,0.07,0.0591,0.0247,0.0126,0.0176,0.0242,0.025,0.0299,0.047,0.0599,0.0618,0.0634,0.0714,0.078,0.0629,0.0467,0,0.0233,0.0549,0.0895,0.1456,0.1964,0.22,0.1953,0.1437,0.1049,0.0794,0.0599,0.0483,0.0459,0.0516,0.0637,0.0786,0.0893,0.0904,0.0884,0.1019,0.1376,0.1961,0.2601,0.2925,0.2744,0.198,0.0879,0.0233,-0.0047,-0.0297,-0.033,0.0233,0.0258,0.0255,0.0247,0.0286,0.0431,0.0648,0.0802,0.0854,0.0898,0.106,0.1469,0.1785,0.2519,0.2832,0.198,0.1596,0.1917,0.2244,0.2214,0.1964,0.1604,0.1167,0.0846,0.0654,0.0525,0.0478,0.0519,0.0621,0.0758,0.092,0.106,0.1093,0.0992,0.0942,0.111,0.1494,0.2126,0.2796,0.3063,0.27,0.1557,0.0374,-0.0154,-0.0582,-0.0959,0.0214,0.022,0.025,0.0275,0.0321,0.0461,0.072,0.1016,0.1258,0.1252,0.1121,0.1991,0.2692,0.262,0.2579,0.2406,0.2568,0.2675,0.248,0.2195,0.1865,0.153,0.1283,0.1132,0.1055,0.1068,0.1195,0.1376,0.156,0.1708,0.1816,0.1879,0.184,0.1643,0.1431,0.1398,0.1533,0.1846,0.2439,0.3032,0.3178,0.2532,0.1052,-0.0236,-0.0747,-0.0901,0.0288,0.0299,0.0324,0.0349,0.0376,0.042,0.0516,0.1025,0.2079,0.2044,0.1393,0,0.0654,0.1717,0.2395,0.2887,0.3093,0.2994,0.2714,0.2335,0.2038,0.1892,0.1901,0.2065,0.2343,0.2694,0.309,0.3455,0.3713,0.3796,0.3702,0.3502,0.323,0.2818,0.2335,0.2027,0.1969,0.2057,0.2326,0.2832,0.3323,0.3414,0.2727,0.1324,0.0129,-0.0173,0.0401,0.0417,0.0459,0.0508,0.0533,0.0439,-0.0192,-0.0728,0,0.0508,0.1555,0.1722,0.153,0.2118,0.2829,0.3244,0.3321,0.3117,0.2782,0.2552,0.2532,0.2755,0.3216,0.3845,0.4546,0.5221,0.5809,0.626,0.6504,0.6471,0.6161,0.5658,0.5112,0.4521,0.3768,0.2994,0.2546,0.248,0.2596,0.2821,0.3192,0.3562,0.3653,0.3194,0.2381,0.1766,0.0525,0.0544,0.0585,0.0662,0.0739,0.0662,0.0555,0,0.0162,0.0747,0.1574,0.2,0.2247,0.2807,0.3315,0.3461,0.3238,0.2906,0.2793,0.3008,0.3529,0.4304,0.5224,0.615,0.6946,0.7553,0.7976,0.8237,0.8336,0.8215,0.7809,0.7163,0.6471,0.5864,0.5164,0.4213,0.3356,0.2969,0.2969,0.3043,0.3142,0.3362,0.3579,0.3524,0.3126,0.262]},{"header":{"parameterUnit":"m.s-1","parameterCategory":2,"la1":30.5641,"la2":29.4642,"lo1":-89.4342,"lo2":-87.9343,"dy":0.0333,"dx":0.0333,"nx":46,"ny":34,"refTime":"2024-04-01T00:00:00:Z","depth":"0","parameterNumber":3,"parameterNumberName":"V-component_of_CURRENTS"},"data":[0,0,0,0,0,0,0,0,0,0,0,0,0,0,0,0,0,0,0,0,0,0,0,0,0,0,0,0,0,0,0,0,0,0,0,0,0,0,0,0,0,0.0876,0.0797,0.12,-0.0437,0,0,0,0,0,0,0,0,0,0,0,0,0,0,0,0,0,0,0,0,0,0,0,0,0,0,0,0,0,0,0,0,0,0,0,0,0,0,0,0,0,0,0.0618,0.1176,0.0945,-0.0577,0,0,0,0,0,0,0,0,0,0,0,0,0,0,0,0,0,0,0,0,0,0,0,0,0,0,0,0,0,0,0,0,0,0,0,0,0,0,0,0,0,0,0.0261,0.1011,0.0906,-0.0558,0,0,0,0,0,0,0,0,0,0,0,0,0,0,0,0,0,0,0,0,0,0,0,0,0,0,0,0,0,0,0,0,0,0,0,0,0,0,0,0,0,0,0.0654,0.0593,0.0692,-0.0472,0,0,0,0,0,0,0,0,0,0,0,0,0,0,0,0,0,0,0,0,0,0,0,0,0,0,0,0,0,0,0,0,0,0,0,0,0,0,0,0,0,0.0409,0.1445,0.0456,0.0269,-0.0511,0,0,0,0,0,0,0,0,0,0,0,0,0,0,0,0,0,0,0,0,0,0,0,0,0,0,0,0,0,0,0,0,0,0,0,0,0,0,0,0,0,0.0453,0.1681,0.033,-0.0096,-0.0662,0,0,0,0,0,0,0,0,0,0,0,0,0.0992,0.097,0.0808,0.0821,0.0714,0.0555,0.0816,0.1508,0.086,0,0,0,0,0,0,0,0,0,0,0,0,-0.0022,0.1684,0.1291,0,0,0,0,0,0.0003,0.1272,0.0242,-0.0343,-0.07,0,0,0,0,0,0,0,0,0,0.1244,0.1522,0.1546,0.0868,0.0596,0.0494,0.05,0.042,0.0211,0.028,0.0868,0.0308,-0.0179,0.0107,0.0428,0.125,0.1711,-0.0698,0,0,0,0,0.0986,0.1145,0.0211,0.1574,0.0923,0,0,0,0,0,-0.0975,0.0728,0.0623,-0.0428,-0.0442,0,0,0,0,0.0437,0.095,0.1066,0.1445,0.167,0.1431,0.1538,0.1472,0.0802,0.0222,0.0074,0.0107,0.011,-0.0206,-0.0426,0.0544,-0.019,0.0096,0.0275,0.0591,0.1181,0.1176,-0.0862,-0.0396,0.0747,0.014,0.031,0.0739,0.0901,0.0464,0.1351,0.0209,-0.0217,0.0623,0.0673,0.0,0.0,-0.0753,-0.0179,0.0813,-0.0151,0.011,0,0,0,0.0868,0.078,0.1126,0.1266,0.1483,0.1524,0.1708,0.0775,0.0698,0.0428,0.0209,-0.0025,0.0244,0.0602,-0.014,-0.0678,0.0585,-0.0857,0.0187,0.0222,0.0376,0.0555,0.0319,-0.0514,-0.0198,0.072,0.0354,0.0297,0.0082,0.0475,0.0058,0.0547,-0.0069,-0.0107,-0.0091,-0.0382,0,0,0,-0.2488,0.0022,0.008,0.0214,0,0,0.0931,0.1214,0.1266,0.1335,0.1428,0.128,0.1016,0.1085,0,0,0,0.0297,-0.0151,0.0225,0.0558,0,-0.0401,0.0129,-0.1761,0,0,0,0,0,0,0,-0.0222,0.0286,0.014,-0.0165,-0.0099,-0.0549,-0.0802,0,0,-0.1299,-0.1618,0.0052,0.0731,0.0645,-0.2046,-0.2082,0,0,0,0.0346,0.1755,0.1472,0.1371,0.1373,0.1563,0.1099,0.0813,0.0467,0.0709,0.0651,0.0563,0.0255,-0.0637,0,0,0.1044,0.0126,-0.0154,-0.1349,0.0401,0.0585,0.0599,0.0994,0.1126,0.1335,-0.0016,-0.1544,0,0,0,-0.0184,-0.0228,-0.131,0.0525,0.0269,-0.1398,-0.1354,-0.0165,0.0396,0.0088,0,-0.418,-0.0654,0.1003,0.0928,0.0173,0.2206,0.1236,0.1346,0.1747,0.2488,0.0582,0.0486,0.0168,0.0461,0.0596,0.0519,0.0211,-0.0478,0.0181,0.0393,0.0613,0.0211,-0.0093,-0.0308,0.0214,0.036,0.05,0.0799,0.086,0.0711,-0.0077,-0.1324,0.1052,0.0577,0.0137,0.1014,0.0994,-0.0714,0.0483,0.0033,0.0008,-0.0277,-0.0434,-0.0297,-0.0805,-0.0404,-0.4186,-0.0799,0.0711,0.0829,0,0.0912,0.1203,0.136,0.2247,0.1621,0,0,0.0143,0.0437,0.0582,0.0478,0.0398,0.0299,0.0456,0.0393,0.0184,0.006,0.0088,0.0272,0.0154,0.0074,0.0209,0.0368,0.0439,0.0011,-0.0168,-0.0467,0.0689,0.0439,-0.0008,0.1456,0.1964,0.0115,0.0387,0.0099,0.1261,0.0387,-0.0516,-0.0843,-0.1236,-0.0667,-0.2733,-0.0838,0.0181,0.0448,0.1799,-0.0582,0.1461,0.0681,0.1189,0,0,0,0.0651,0.0775,0.0728,0.0552,0.0536,0.0626,0.0761,0.0662,0.0772,0.0211,-0.0124,0.017,0.0357,0.0107,-0.0033,-0.0022,0.008,-0.0052,-0.0085,-0.0154,0.0255,0.0228,0.0074,0.0654,0.1829,0.075,0.0201,0.07,0.1398,0.0269,-0.0533,-0.1003,-0.1198,-0.0895,-0.1585,-0.0786,-0.0214,-0.0038,0.0901,-0.0577,0.0824,0,0,0,0,0,0.0846,0.0879,0.0805,0.0607,0.0582,0.0681,0.0829,0.1121,0.22,0.0211,-0.0698,-0.0442,0.0302,0.0201,-0.0082,-0.0187,-0.0192,-0.0096,0.0033,-0.0027,0.0126,0.0129,0.0217,0.0294,0.1134,0.0884,0.0027,0.0794,0.1101,0.0173,-0.047,-0.0884,-0.1099,-0.1014,-0.1046,-0.0733,-0.0475,-0.0483,0,0,0.0203,0.0637,0.1274,-0.1412,0,0,0.0942,0.0786,0.0632,0.0483,0.0516,0.0599,0.0772,0.1055,0.231,0,-0.0519,-0.0912,0.0066,0.0187,-0.0077,-0.0162,-0.0233,-0.0165,-0.0019,-0.0014,0.003,0.0085,0.0165,0.0286,0.0503,0.0533,-0.0063,0.019,0.0692,0.0313,-0.0439,-0.0876,-0.1143,-0.0876,-0.0313,-0.0527,-0.0629,-0.0769,0,0,0.0179,0.0357,0.1346,-0.0706,0.0,0.0,0.0354,0.0277,0.0332,0.0305,0.0376,0.0437,0.0571,0.0623,0.1338,0.1134,0,-0.07,-0.0008,0.0129,-0.011,-0.0121,-0.0176,-0.0187,-0.0107,-0.0052,-0.0014,0.0044,0.0137,0.0236,0.0052,-0.0005,-0.0346,-0.0426,0.0052,0.0184,-0.0313,-0.0934,-0.1203,-0.0475,0.0184,-0.0511,-0.0673,-0.0744,0,0,0,0.0038,0.0709,0,0,0,-0.0286,-0.0093,0.0173,0.0198,0.0233,0.0277,0.031,0.0387,0.0972,0.0873,0,-0.0266,-0.0003,0.0041,-0.0195,-0.0201,-0.0201,-0.0239,-0.0203,-0.0272,-0.0195,-0.003,0.0088,0.0113,-0.017,-0.0486,-0.0747,-0.081,-0.0654,-0.0407,-0.0291,-0.0755,-0.1263,-0.0626,-0.003,-0.0569,-0.0604,-0.0585,0,0,0,0,0,0,0,0.0096,-0.0277,-0.0132,0.003,0.0052,0.0082,0.0077,0.0052,0.0374,0.0805,0.0511,0,-0.0085,-0.0077,-0.0047,-0.0261,-0.0412,-0.0417,-0.0472,-0.0563,-0.058,-0.0288,0.0044,0.0198,0.0132,-0.0168,-0.0533,-0.0802,-0.0934,-0.0994,-0.0975,-0.0728,-0.0772,-0.1231,-0.1027,-0.0538,-0.0522,-0.0577,-0.0527,0,0,0,0,0,0,0.019,-0.0005,-0.0247,-0.0206,-0.0126,-0.0121,-0.0041,-0.0154,-0.0096,0.0137,0.0379,0.0203,0,-0.0027,-0.0121,-0.0129,-0.0275,-0.0571,-0.0676,-0.0769,-0.0895,-0.0475,0.006,0.0379,0.0379,0.0247,0.0044,-0.0192,-0.0467,-0.0783,-0.1068,-0.1233,-0.1217,-0.1176,-0.1318,-0.1269,-0.0983,-0.0739,-0.0714,-0.0599,0,0,0,0,0,0,0.0049,-0.0181,-0.0269,-0.0239,-0.0201,-0.0214,-0.0036,-0.0148,-0.0085,-0.0148,0,0,0,-0.011,-0.0115,-0.0192,-0.0275,-0.0563,-0.0753,-0.0846,-0.0829,-0.0225,0.0272,0.0467,0.0404,0.0324,0.0244,0.0113,-0.0135,-0.0486,-0.095,-0.1329,-0.1497,-0.1541,-0.1566,-0.1491,-0.125,-0.1052,-0.0884,-0.072,0,0,0,0,0,0,-0.008,-0.0313,-0.0385,-0.0371,-0.0357,-0.0374,-0.0211,-0.0019,-0.0159,-0.0074,0.0552,0,0,-0.0286,-0.0176,-0.0264,-0.031,-0.0522,-0.0706,-0.0799,-0.0698,-0.025,0.011,0.0264,0.0343,0.0448,0.0481,0.0349,0.0077,-0.025,-0.0667,-0.1228,-0.1656,-0.1799,-0.1805,-0.1728,-0.1502,-0.122,-0.095,-0.0755,0,0,0,0,0,0.0157,0.0014,-0.0387,-0.0525,-0.0552,-0.0555,-0.0591,-0.0481,0,-0.0409,-0.0014,0.0379,0,0,-0.0354,-0.0332,-0.0346,-0.0371,-0.0549,-0.0695,-0.0764,-0.0659,-0.0382,-0.0099,0.0162,0.0453,0.0725,0.0873,0.0802,0.0475,-0.003,-0.0475,-0.0939,-0.1568,-0.1997,-0.2068,-0.1978,-0.1763,-0.1434,-0.1046,-0.0739,0,0.0983,0.0,0.0797,0,0.008,-0.003,-0.0475,-0.0648,-0.0714,-0.0739,-0.0766,-0.0593,-0.0124,-0.0486,-0.003,0.0302,0,0.0168,-0.028,-0.0365,-0.0343,-0.039,-0.0527,-0.0643,-0.0645,-0.0503,-0.0266,0.003,0.0398,0.0775,0.1049,0.1176,0.1121,0.0876,0.0382,-0.0264,-0.0816,-0.1338,-0.1983,-0.2302,-0.2225,-0.1978,-0.1632,-0.1236,-0.0879,0,0.0439,0,0.0591,0.0725,0,-0.0195,-0.0541,-0.0753,-0.0851,-0.0909,-0.0967,-0.0876,-0.056,-0.0439,0.0005,0.0198,0,0.0005,-0.0104,-0.0055,-0.0179,-0.0352,-0.0404,-0.0417,-0.031,-0.0085,0.017,0.0472,0.0764,0.0992,0.1088,0.1079,0.097,0.0775,0.0494,-0.003,-0.0728,-0.1302,-0.187,-0.2414,-0.245,-0.2137,-0.1758,-0.1398,-0.109,0,-0.0162,0.0492,0.0368,0.0533,0.0673,-0.0107,-0.0602,-0.0873,-0.0978,-0.1093,-0.1236,-0.1371,-0.1203,-0.0549,0.0019,0,0.0764,0.0027,0.0162,0.0184,-0.019,-0.0341,-0.0203,-0.0085,0.0063,0.0283,0.0481,0.0684,0.0835,0.092,0.0901,0.0813,0.0673,0.0428,0.0151,-0.0168,-0.0654,-0.1332,-0.1879,-0.2461,-0.2719,-0.2357,-0.1862,-0.1516,-0.1236,0.0486,-0.0008,0.0363,0.0272,0.0277,0.0365,-0.0165,-0.0717,-0.0937,-0.1063,-0.1263,-0.1577,-0.2068,-0.209,-0.0324,0,0.1063,0.0621,0.042,0.0398,0.0019,-0.033,-0.0198,0.0,0.0071,0.017,0.0338,0.0505,0.0659,0.0772,0.0827,0.0772,0.0656,0.0497,0.025,-0.0135,-0.0511,-0.0871,-0.1368,-0.1939,-0.2483,-0.2944,-0.2672,-0.1928,-0.1511,-0.1244,0.0228,0.0168,0.0198,0.0159,0.0121,-0.0049,-0.0409,-0.0717,-0.0882,-0.109,-0.1351,-0.1799,-0.2576,-0.3469,0,0.1318,0.0876,0.0623,0.0566,0.0269,-0.0102,-0.0176,-0.0069,-0.0063,-0.0052,0.0071,0.028,0.047,0.0615,0.0731,0.0799,0.0739,0.0582,0.0404,0.0192,-0.0179,-0.0689,-0.1145,-0.1563,-0.2057,-0.2519,-0.3024,-0.298,-0.1997,-0.1409,-0.1261,-0.0008,0.0091,0.0121,0.0074,-0.0044,-0.0214,-0.0428,-0.0571,-0.0775,-0.1074,-0.1296,-0.1475,-0.2365,-0.3362,-0.0602,0.064,0.0533,0.0549,0.0428,0.0206,-0.0011,-0.011,-0.0195,-0.0253,-0.0159,0.003,0.0231,0.0382,0.0505,0.0615,0.0692,0.0656,0.0494,0.0288,0.0088,-0.0146,-0.0632,-0.1231,-0.1755,-0.2228,-0.2659,-0.3041,-0.3269,-0.2368,-0.1398,-0.1143,0.0014,0.0049,0.0027,-0.0058,-0.0184,-0.031,-0.0291,-0.0231,-0.047,-0.1074,-0.1296,-0.0558,-0.2486,-0.242,-0.0945,-0.0302,0.0107,0.0374,0.0428,0.0264,-0.0016,-0.0173,-0.0201,-0.0165,-0.0036,0.0124,0.0266,0.0374,0.0459,0.0503,0.0516,0.0472,0.0341,0.0107,-0.014,-0.0335,-0.0582,-0.1079,-0.1697,-0.2228,-0.2681,-0.2936,-0.3123,-0.273,-0.1722,-0.0953,0.0008,0.0003,-0.0074,-0.019,-0.0316,-0.0404,-0.0113,0.0508,-0.0113,-0.1928,-0.2423,0,-0.2041,-0.1849,-0.117,-0.0519,0.008,0.0453,0.0398,0.0137,-0.0014,-0.0033,0.0074,0.0269,0.0497,0.0698,0.0846,0.0893,0.0827,0.0654,0.0448,0.0275,0.0113,-0.0143,-0.047,-0.072,-0.0838,-0.0986,-0.1409,-0.1931,-0.2395,-0.2648,-0.2585,-0.2255,-0.1401,-0.0343,0.0049,-0.0019,-0.0118,-0.0242,-0.0407,-0.056,-0.0363,0.0503,0,-0.2087,-0.278,-0.0766,-0.1071,-0.1167,-0.0747,-0.0091,0.0407,0.0467,0.0341,0.0253,0.0308,0.0538,0.0909,0.1338,0.1689,0.1914,0.1947,0.1796,0.1434,0.0937,0.0407,0.0014,-0.0242,-0.0481,-0.0835,-0.117,-0.134,-0.1346,-0.1458,-0.1794,-0.2184,-0.2486,-0.2439,-0.1906,-0.0978,-0.0005,0.0275,0.0129,-0.0025,-0.0217,-0.0456,-0.0755,-0.1395,0,0.0115,-0.1085,-0.1703,-0.0931,-0.0808,-0.056,-0.0016,0.0461,0.061,0.0659,0.0753,0.0986,0.1442,0.2024,0.2565,0.2917,0.3046,0.2977,0.2722,0.2296,0.1736,0.1055,0.0316,-0.0305,-0.0714,-0.0967,-0.1247,-0.1604,-0.1892,-0.206,-0.212,-0.2082,-0.2074,-0.2186,-0.22,-0.1865,-0.1123,-0.0319]}],[{"header":{"parameterUnit":"m.s-1","parameterCategory":2,"la1":30.5641,"la2":29.4642,"lo1":-89.4342,"lo2":-87.9343,"dy":0.0333,"dx":0.0333,"nx":46,"ny":34,"refTime":"2024-04-01T00:00:00:Z","depth":"2","parameterNumber":2,"parameterNumberName":"U-component_of_CURRENTS"},"data":[0,0,0,0,0,0,0,0,0,0,0,0,0,0,0,0,0,0,0,0,0,0,0,0,0,0,0,0,0,0,0,0,0,0,0,0,0,0,0,0,0,0.0058,0.0393,0.0324,0.0027,0,0,0,0,0,0,0,0,0,0,0,0,0,0,0,0,0,0,0,0,0,0,0,0,0,0,0,0,0,0,0,0,0,0,0,0,0,0,0,0,0,0,-0.0088,-0.0244,-0.033,-0.0181,0,0,0,0,0,0,0,0,0,0,0,0,0,0,0,0,0,0,0,0,0,0,0,0,0,0,0,0,0,0,0,0,0,0,0,0,0,0,0,0,0,0,0.008,-0.0316,-0.0692,-0.031,0,0,0,0,0,0,0,0,0,0,0,0,0,0,0,0,0,0,0,0,0,0,0,0,0,0,0,0,0,0,0,0,0,0,0,0,0,0,0,0,0,0,-0.0033,0.0146,-0.0401,-0.0376,0,0,0,0,0,0,0,0,0,0,0,0,0,0,0,0,0,0,0,0,0,0,0,0,0,0,0,0,0,0,0,0,0,0,0,0,0,0,0,0,0,0.0137,0.0376,0.0492,0.0126,-0.0099,0,0,0,0,0,0,0,0,0,0,0,0,0,0,0,0,0,0,0,0,0,0,0,0,0,0,0,0,0,0,0,0,0,0,0,0,0,0,0,0,0,0.0016,-0.0093,-0.0244,-0.0417,-0.0423,0,0,0,0,0,0,0,0,0,0,0,0,0.0022,0.0099,0.0157,0.0159,0.0118,-0.0022,-0.0184,-0.0184,-0.0132,0,0,0,0,0,0,0,0,0,0,0,0,-0.0409,-0.0733,-0.0645,0,0,0,0,0,-0.0464,-0.1302,-0.1417,-0.1154,-0.0992,0,0,0,0,0,0,0,0,0,0.0118,0.0552,0.0802,0.0687,0.0599,0.0571,0.0596,0.0621,0.0621,0.056,0.0374,-0.0027,-0.0525,-0.0761,-0.0648,-0.0343,0.0214,0.0588,0,0,0,0,0.0025,0.0157,0.0629,0.081,0.0626,0,0,0,0,0,-0.0522,-0.1741,-0.2104,-0.1629,-0.128,0,0,0,0,-0.0261,-0.0341,0.0,0.0299,0.0544,0.0662,0.0662,0.0555,0.0453,0.0489,0.053,0.0571,0.0761,0.0953,0.0901,0.0607,0.0475,0.0632,0.0865,0.1068,0.0588,0.0033,0.0667,0.117,0.0909,0.0901,0.0937,0.0706,0.028,0.0063,-0.0063,-0.0184,-0.0662,-0.167,-0.2381,-0.2475,-0.2225,-0.0857,-0.0574,-0.214,-0.2321,-0.1582,0,0,0,-0.0016,0.0168,0.0486,0.0654,0.0637,0.0596,0.0794,0.0764,0.0505,0.053,0.0516,0.0431,0.0538,0.0945,0.1612,0.1568,0.0409,-0.0629,-0.0486,0.0129,0.0412,0.0505,0.0547,0.1,0.1747,0.103,0.0195,0.0492,0.0412,-0.0011,-0.064,-0.1321,-0.0519,0.1198,0.1456,0.1121,0,0,0,-0.1675,-0.3661,-0.3076,-0.1717,0,0,-0.0129,-0.0179,0.0033,0.0222,0.0302,0.0291,0.0346,0.0431,0,0,0,0.0071,0.0066,0.0074,0.0159,0,0.0272,-0.0146,-0.0832,0,0,0,0,0,0,0,-0.1154,-0.1741,-0.0678,0.0456,0.0324,-0.0374,-0.031,0,0,-0.0299,-0.0618,-0.1552,-0.3417,-0.4131,-0.1338,0.1222,0,0,0,-0.0341,-0.0302,-0.0102,-0.0217,-0.0003,0.0286,0.0324,0.0041,-0.0115,0.0173,0.0442,0.0541,0.0503,0.0374,0,0,0.0434,0.1115,0.0972,0.1154,0.1497,0.1014,0.0382,-0.0319,-0.0494,-0.017,-0.0093,-0.0239,0,0,0,-0.0904,-0.1313,-0.0464,-0.0634,-0.1917,-0.1961,-0.0602,0.0162,0.0335,0.042,0,0.0481,0.0121,-0.0873,-0.0915,-0.0299,0.0173,0.0044,0.0005,0.0497,0.1371,0.1686,0.1478,0.1104,0.0783,0.0786,0.0692,0.0687,0.1121,0.1453,0.1387,0.1316,0.1456,0.1791,0.2,0.1813,0.1412,0.1228,0.1071,0.0656,-0.0503,-0.1508,-0.1025,-0.0909,-0.1703,-0.2197,-0.2304,-0.1706,-0.0574,-0.0052,-0.0613,-0.0805,-0.0527,-0.0261,0.0299,0.0146,-0.1074,-0.0882,0.0157,-0.0044,-0.058,0,-0.0247,-0.0165,0.0343,0.1011,0.15,0,0,0.0022,0.019,0.0404,0.0527,0.0684,0.0975,0.1316,0.1475,0.1516,0.1678,0.1903,0.1939,0.1865,0.1752,0.1497,0.109,0.0709,0.0464,0.0228,0.036,0.0558,0.0198,0.0168,-0.07,-0.1925,-0.1384,-0.0667,-0.0214,0.0453,0.0684,0.0244,-0.0277,-0.0516,-0.0981,-0.0703,0.0052,-0.0157,-0.0654,-0.0912,-0.0428,0.0162,0.072,0.0744,0,0,0,0.0157,0.0489,0.0651,0.0714,0.0884,0.1088,0.128,0.1513,0.2008,0.239,0.2346,0.195,0.1588,0.153,0.15,0.1274,0.0906,0.0794,0.0895,0.0926,0.0904,0.0777,0.1,0.0703,-0.1118,-0.1708,-0.0882,-0.031,-0.0222,-0.0527,-0.0772,-0.1077,-0.1093,-0.1143,-0.0959,-0.0585,-0.0684,-0.0887,-0.0382,0.0401,0.1571,0,0,0,0,0,0.0107,0.0591,0.0882,0.0799,0.0851,0.1016,0.1277,0.1574,0.2357,0.3137,0.2898,0.2156,0.1428,0.1063,0.1132,0.1178,0.1052,0.092,0.0893,0.0939,0.0983,0.0992,0.0945,0.0733,-0.0266,-0.1165,-0.0753,-0.0725,-0.1461,-0.1675,-0.1629,-0.1796,-0.2011,-0.2148,-0.1942,-0.1508,-0.1258,-0.1145,0,0,-0.0088,-0.0027,0.0264,0.0409,0,0,0.0201,0.0665,0.089,0.0764,0.0689,0.0772,0.0937,0.1055,0.1077,0,0.0871,0.1807,0.1382,0.081,0.0733,0.0802,0.086,0.0824,0.0728,0.0678,0.0689,0.0711,0.0717,0.0626,0.0085,-0.0772,-0.0753,-0.0689,-0.1601,-0.2055,-0.1895,-0.1903,-0.2082,-0.2266,-0.231,-0.2123,-0.1827,-0.1623,0,0,0.0654,0.1321,0.1318,0.1752,0.1947,0.1807,0.1563,0.1011,0.0769,0.0654,0.058,0.0604,0.0651,0.0698,0.0346,-0.0047,0,0.058,0.0994,0.0722,0.0522,0.0396,0.0387,0.0423,0.0404,0.0327,0.025,0.0214,0.0151,-0.011,-0.0497,-0.0851,-0.0849,-0.0503,-0.0898,-0.1769,-0.1909,-0.167,-0.1626,-0.1579,-0.1816,-0.2085,-0.2027,-0.1967,0,0,0,0.019,0.0382,0,0,0,0.0225,0.0459,0.0489,0.0522,0.0519,0.0494,0.0467,0.0483,0.0415,0.0313,0,0.0409,0.0805,0.0623,0.0376,0.0091,-0.0115,-0.0082,-0.0115,-0.0379,-0.0755,-0.1005,-0.0992,-0.0777,-0.0494,-0.0294,-0.0214,-0.0071,-0.0088,-0.0744,-0.1467,-0.1461,-0.122,-0.1475,-0.2131,-0.2343,-0.2211,-0.2206,0,0,0,0,0,0,0,-0.0069,0.0211,0.0634,0.067,0.0571,0.0461,0.0371,0.0321,0.0319,0.0146,-0.0033,0,0.0354,0.0706,0.0505,0.0297,0.0025,-0.0426,-0.0695,-0.0948,-0.1269,-0.1285,-0.0893,-0.0442,-0.0151,0.0074,0.0272,0.0434,0.0577,0.0667,0.0514,-0.0099,-0.0637,-0.0538,-0.0483,-0.0994,-0.1761,-0.2153,-0.2101,0,0,0,0,0,0,-0.0181,-0.0082,0.0261,0.0387,0.0439,0.0401,0.0321,0.0247,0.0203,-0.008,-0.0338,-0.0332,0,0.0283,0.0643,0.0475,0.0275,0.0266,-0.0022,-0.042,-0.0599,-0.0536,-0.0225,-0.0027,-0.0049,-0.0005,0.0132,0.0297,0.0445,0.0613,0.0865,0.1088,0.0989,0.0591,0.0319,0.0198,-0.0014,-0.0184,-0.0365,-0.0687,0,0,0,0,0,0,-0.0085,-0.0063,0.0154,0.0266,0.0225,0.0151,0.0074,0.008,0.0077,0.0014,0,0,0,0.0233,0.0656,0.0571,0.031,0.0426,0.056,0.0489,0.0412,0.0415,0.0275,0.0011,-0.0115,-0.0058,0.0066,0.0209,0.0335,0.0415,0.0549,0.0895,0.1288,0.1371,0.1123,0.0739,0.033,0.0102,0.0096,0.0099,0,0,0,0,0,0,-0.0071,-0.0082,0.0049,0.0124,0.008,-0.0049,-0.0294,-0.0192,0.0025,0.0052,0.0124,0,0,0.0225,0.0742,0.0777,0.042,0.0407,0.0588,0.0739,0.0797,0.0706,0.0459,0.0187,0.0011,-0.0058,-0.0014,0.0143,0.036,0.0522,0.0514,0.0525,0.0893,0.1437,0.1675,0.1453,0.0898,0.0346,0.0044,-0.0005,0,0,0,0,0,0.014,0.0074,-0.0066,0.0049,0.0099,0.0069,0.0014,-0.0008,0,-0.0049,-0.0044,0.0014,0,0,0.0269,0.0835,0.097,0.0629,0.0445,0.0481,0.0582,0.0643,0.0569,0.0393,0.0225,0.0159,0.0206,0.031,0.0428,0.058,0.0827,0.1022,0.0879,0.067,0.0961,0.1557,0.1851,0.1615,0.1038,0.0461,0.0099,0,0.0052,-0.0225,-0.0376,0,0.0297,0.0261,-0.0005,0.0107,0.0154,0.0124,0.0091,0.0063,-0.0225,-0.0363,-0.0195,-0.0159,0,-0.0203,-0.0025,0.0744,0.114,0.097,0.0709,0.0607,0.058,0.0582,0.0615,0.0687,0.0819,0.1003,0.1189,0.1335,0.1423,0.1431,0.1365,0.1373,0.1442,0.1187,0.086,0.1099,0.1643,0.1865,0.1637,0.1156,0.0676,0,0.045,0,-0.0022,-0.0047,0,-0.003,0.0041,0.0201,0.0231,0.0179,0.0104,-0.0016,-0.0291,-0.053,-0.0544,-0.0516,0,-0.0022,0.0181,0.0821,0.1395,0.1404,0.1162,0.1055,0.1055,0.114,0.1324,0.1574,0.181,0.1994,0.2104,0.2151,0.2184,0.2241,0.2228,0.2055,0.1843,0.1662,0.1239,0.092,0.1173,0.1579,0.17,0.15,0.1137,0,0.0365,0.042,0.0118,0.0096,0.0008,0.0082,0.0286,0.0365,0.0346,0.0266,0.0132,-0.0093,-0.0536,-0.0871,-0.0895,0,-0.0033,0.0165,0.0656,0.1329,0.189,0.1802,0.1461,0.1365,0.1404,0.1491,0.1626,0.1783,0.1914,0.2008,0.2049,0.2052,0.2093,0.225,0.2494,0.2629,0.2464,0.2118,0.1632,0.1014,0.0797,0.109,0.1349,0.1335,0.1118,-0.0187,0.014,0.0417,0.0305,0.0302,0.0231,0.0258,0.0442,0.0511,0.0483,0.0445,0.0291,-0.0146,-0.1025,-0.1599,0,0.0146,0.0387,0.075,0.1299,0.1923,0.2219,0.1873,0.1445,0.1263,0.1167,0.1107,0.1093,0.1143,0.1252,0.1362,0.1431,0.1447,0.1502,0.1703,0.2101,0.256,0.2807,0.2653,0.2167,0.1371,0.0689,0.0574,0.0725,0.0791,0.0678,0.0382,0.0255,0.0264,0.033,0.0346,0.039,0.0547,0.0667,0.0689,0.0706,0.0783,0.0854,0.0753,0.0637,0,0.0341,0.0706,0.0992,0.1544,0.2046,0.2304,0.2085,0.1577,0.1187,0.0931,0.0739,0.0626,0.0604,0.0667,0.0799,0.0948,0.1057,0.1068,0.1046,0.1178,0.1522,0.2071,0.2659,0.2931,0.273,0.2,0.0953,0.0346,0.006,-0.0201,-0.0239,0.0299,0.0332,0.0343,0.0341,0.0379,0.0514,0.0725,0.0876,0.0928,0.0975,0.1154,0.1533,0.1829,0.2464,0.2681,0.1945,0.1662,0.1997,0.2343,0.2343,0.2101,0.1741,0.1299,0.0961,0.0764,0.0634,0.0591,0.0629,0.0731,0.0871,0.1038,0.1187,0.122,0.1115,0.1068,0.1241,0.1618,0.2222,0.2837,0.3049,0.2675,0.1579,0.0459,-0.0044,-0.0481,-0.0862,0.0297,0.0305,0.0341,0.0365,0.0409,0.0541,0.0799,0.1129,0.1401,0.1395,0.1296,0.203,0.2524,0.2439,0.2494,0.2428,0.2634,0.2782,0.2615,0.2324,0.1986,0.1637,0.1382,0.1225,0.1148,0.1162,0.1285,0.1467,0.1651,0.1802,0.1909,0.1975,0.1939,0.1747,0.1538,0.1508,0.1645,0.1956,0.2524,0.3065,0.3167,0.2521,0.1085,-0.0162,-0.0654,-0.0799,0.0368,0.0385,0.0412,0.0434,0.0456,0.0514,0.0678,0.1244,0.2137,0.2002,0.142,0,0.0711,0.178,0.2425,0.2953,0.3197,0.3115,0.2835,0.2445,0.2137,0.1991,0.2011,0.2175,0.2447,0.2788,0.3172,0.3532,0.3788,0.3873,0.3788,0.3598,0.3326,0.2917,0.2434,0.2126,0.2074,0.2164,0.2425,0.2914,0.3376,0.3436,0.2749,0.1384,0.0231,-0.0058,0.0489,0.0505,0.0541,0.0585,0.0607,0.0525,0.011,-0.0225,0,0.053,0.1574,0.178,0.1626,0.2178,0.29,0.334,0.3433,0.3227,0.2881,0.2648,0.264,0.2868,0.3307,0.3906,0.4576,0.523,0.5806,0.6257,0.6499,0.6477,0.6185,0.5713,0.5186,0.4612,0.3862,0.3087,0.264,0.2576,0.2689,0.2903,0.3247,0.3571,0.362,0.3164,0.239,0.1813,0.07,0.0676,0.0678,0.0742,0.081,0.0758,0.0681,0,0.0266,0.0909,0.167,0.2063,0.2299,0.2873,0.3409,0.3568,0.3345,0.3021,0.2928,0.3153,0.3661,0.4395,0.5263,0.6133,0.6889,0.746,0.7877,0.8133,0.8243,0.8171,0.7814,0.7202,0.6532,0.5941,0.5249,0.4301,0.3442,0.3052,0.3052,0.3126,0.3225,0.3436,0.3637,0.3568,0.3172,0.2692]},{"header":{"parameterUnit":"m.s-1","parameterCategory":2,"la1":30.5641,"la2":29.4642,"lo1":-89.4342,"lo2":-87.9343,"dy":0.0333,"dx":0.0333,"nx":46,"ny":34,"refTime":"2024-04-01T00:00:00:Z","depth":"2","parameterNumber":3,"parameterNumberName":"V-component_of_CURRENTS"},"data":[0,0,0,0,0,0,0,0,0,0,0,0,0,0,0,0,0,0,0,0,0,0,0,0,0,0,0,0,0,0,0,0,0,0,0,0,0,0,0,0,0,0.0368,0.0313,0.0887,-0.0884,0,0,0,0,0,0,0,0,0,0,0,0,0,0,0,0,0,0,0,0,0,0,0,0,0,0,0,0,0,0,0,0,0,0,0,0,0,0,0,0,0,0,0.0088,0.0753,0.0665,-0.1057,0,0,0,0,0,0,0,0,0,0,0,0,0,0,0,0,0,0,0,0,0,0,0,0,0,0,0,0,0,0,0,0,0,0,0,0,0,0,0,0,0,0,-0.0264,0.0656,0.0618,-0.106,0,0,0,0,0,0,0,0,0,0,0,0,0,0,0,0,0,0,0,0,0,0,0,0,0,0,0,0,0,0,0,0,0,0,0,0,0,0,0,0,0,0,0.019,0.0335,0.0396,-0.0972,0,0,0,0,0,0,0,0,0,0,0,0,0,0,0,0,0,0,0,0,0,0,0,0,0,0,0,0,0,0,0,0,0,0,0,0,0,0,0,0,0,-0.0135,0.1046,0.0239,-0.0047,-0.1077,0,0,0,0,0,0,0,0,0,0,0,0,0,0,0,0,0,0,0,0,0,0,0,0,0,0,0,0,0,0,0,0,0,0,0,0,0,0,0,0,0,0.0003,0.1354,0.0085,-0.0426,-0.1285,0,0,0,0,0,0,0,0,0,0,0,0,0.0621,0.0475,0.0365,0.0401,0.0324,0.0258,0.0448,0.0928,0.0338,0,0,0,0,0,0,0,0,0,0,0,0,-0.0552,0.117,0.081,0,0,0,0,0,-0.0324,0.1,-0.006,-0.0692,-0.1258,0,0,0,0,0,0,0,0,0,0.0868,0.1222,0.114,0.0527,0.0236,0.019,0.0209,0.0143,-0.0008,0.0033,0.0478,-0.0088,-0.0396,-0.0008,0.031,0.0975,0.0522,-0.2829,0,0,0,0,0.0544,0.0742,-0.0236,0.1074,0.0316,0,0,0,0,0,-0.1568,0.0349,0.0217,-0.086,-0.0961,0,0,0,0,-0.0016,0.061,0.092,0.1184,0.1283,0.1019,0.0939,0.0835,0.0396,0.0005,-0.0085,-0.0063,-0.0069,-0.0376,-0.0552,0.036,-0.0439,-0.0151,0.0066,0.036,0.0871,0.0393,-0.212,-0.1167,0.0522,-0.0522,-0.0176,0.0393,0.0596,0.0176,0.089,-0.0613,-0.0981,-0.0027,-0.0115,0.0,0.0,-0.1192,-0.0678,0.0148,-0.1008,-0.0634,0,0,0,0.0379,0.031,0.0797,0.1077,0.1203,0.1198,0.1176,0.0327,0.0266,0.0179,-0.0027,-0.0225,-0.0118,0.0198,-0.0239,-0.0835,0.042,-0.1074,0.0047,0.0069,0.0206,0.0382,0.0132,-0.0709,-0.0582,0.0442,-0.0236,-0.017,-0.0184,0.0269,-0.0165,0.0118,-0.0522,-0.0489,-0.0681,-0.0975,0,0,0,-0.3035,-0.0739,-0.053,-0.0258,0,0,0.0346,0.0733,0.0851,0.1022,0.1162,0.0986,0.078,0.0681,0,0,0,0.006,-0.0409,-0.0047,0.0247,0,-0.0637,-0.0025,-0.1953,0,0,0,0,0,0,0,-0.0541,0.0025,-0.008,-0.0305,-0.0327,-0.0838,-0.1184,0,0,-0.1791,-0.2035,-0.0514,0.0099,0.0005,-0.234,-0.2664,0,0,0,-0.05,0.1066,0.103,0.1014,0.0981,0.1079,0.0516,0.0445,0.0283,0.0478,0.0437,0.0349,0.0055,-0.0887,0,0,0.0637,-0.0137,-0.0305,-0.1524,0.0159,0.0346,0.0346,0.0651,0.072,0.0992,-0.0371,-0.1838,0,0,0,-0.0464,-0.0648,-0.1802,0.0022,-0.0214,-0.1733,-0.1643,-0.0662,-0.0396,-0.075,0,-0.4639,-0.1346,0.0437,0.0525,-0.025,0.1329,0.0731,0.0893,0.1019,0.1519,0.014,0.0222,-0.0022,0.0244,0.039,0.0316,0.0016,-0.0706,-0.0104,0.0082,0.0313,-0.0003,-0.0258,-0.0481,0.0014,0.0159,0.0283,0.0549,0.0615,0.045,-0.0338,-0.164,0.0492,-0.0055,-0.0352,0.0722,0.0618,-0.1173,0.0016,-0.0415,-0.0338,-0.0481,-0.0678,-0.0835,-0.1524,-0.0857,-0.4559,-0.1187,0.0327,0.0505,0,0.0074,0.0676,0.0654,0.1371,0.0986,0,0,-0.0168,0.0179,0.0374,0.0286,0.0206,0.0082,0.0203,0.0135,-0.0008,-0.0118,-0.0085,0.0102,-0.0008,-0.0093,0.0036,0.0192,0.0261,-0.017,-0.0385,-0.0731,0.0299,0.0052,-0.0417,0.1187,0.1615,-0.039,-0.0052,-0.0291,0.0986,0.0157,-0.0728,-0.1101,-0.1538,-0.0959,-0.3005,-0.1145,-0.0069,0.0201,0.1346,-0.1324,0.1033,0.0244,0.0802,0,0,0,0.0143,0.0417,0.0494,0.0371,0.0354,0.0428,0.0555,0.0453,0.0522,-0.0085,-0.0357,-0.0025,0.0206,-0.0038,-0.0179,-0.0173,-0.0082,-0.0228,-0.0275,-0.0354,0.006,-0.0019,-0.0168,0.0415,0.1522,0.0277,-0.0264,0.0338,0.1187,0.0044,-0.075,-0.1209,-0.1395,-0.1115,-0.181,-0.1044,-0.0423,-0.0247,0.0673,-0.0956,0.0409,0,0,0,0,0,0.0277,0.0508,0.0549,0.0434,0.0412,0.0505,0.0634,0.0906,0.1862,0.0005,-0.1181,-0.0775,0.014,0.0058,-0.0217,-0.0327,-0.0343,-0.0264,-0.0146,-0.0201,-0.0036,-0.0047,0.0038,0.0099,0.0912,0.0522,-0.0382,0.0514,0.0939,-0.0036,-0.0676,-0.1068,-0.1255,-0.1165,-0.1203,-0.0906,-0.0637,-0.0629,0,0,-0.0569,0.0025,0.0665,-0.1599,0,0,0.0489,0.0497,0.0401,0.0324,0.036,0.0434,0.0596,0.0862,0.1958,0,-0.0851,-0.1409,-0.0132,0.0033,-0.0209,-0.0294,-0.0374,-0.031,-0.0176,-0.0173,-0.0121,-0.0069,-0.0011,0.0115,0.0319,0.0321,-0.0291,0.0016,0.0555,0.0135,-0.0634,-0.1063,-0.1335,-0.1022,-0.0437,-0.0656,-0.0753,-0.0879,0,0,-0.0371,-0.0225,0.0758,-0.0799,0.0,0.0,-0.0014,0.006,0.0148,0.0157,0.0225,0.0286,0.0417,0.0472,0.1008,0.0505,0,-0.1231,-0.0308,-0.0038,-0.0244,-0.0247,-0.0308,-0.0321,-0.0247,-0.0198,-0.0154,-0.0099,-0.003,0.008,-0.0096,-0.0146,-0.0489,-0.0552,-0.0074,0.0041,-0.0467,-0.1143,-0.1439,-0.0665,0.0047,-0.0637,-0.0788,-0.0849,0,0,0,-0.0236,0.0426,0,0,0,-0.0684,-0.0305,0.0011,0.0055,0.0091,0.0137,0.017,0.0236,0.0626,0.0387,0,-0.075,-0.0346,-0.0124,-0.0338,-0.0332,-0.0327,-0.0365,-0.0327,-0.0396,-0.0313,-0.0154,-0.0047,-0.0027,-0.0294,-0.0615,-0.0876,-0.0934,-0.078,-0.0536,-0.0415,-0.0937,-0.1475,-0.0827,-0.0157,-0.0681,-0.0709,-0.0684,0,0,0,0,0,0,0,-0.0494,-0.0659,-0.0316,-0.0118,-0.0082,-0.0052,-0.0058,-0.008,0.0118,0.0255,0.0104,0,-0.0549,-0.0398,-0.0209,-0.0412,-0.0549,-0.0544,-0.0591,-0.0676,-0.0684,-0.0396,-0.0074,0.0069,-0.0011,-0.0308,-0.0687,-0.0953,-0.109,-0.114,-0.1118,-0.0857,-0.0923,-0.1384,-0.1195,-0.0665,-0.064,-0.0681,-0.0626,0,0,0,0,0,0,-0.0305,-0.0467,-0.0483,-0.0343,-0.0258,-0.025,-0.0179,-0.0291,-0.0231,-0.0214,0.0011,-0.003,0,-0.0541,-0.0456,-0.0294,-0.0428,-0.072,-0.081,-0.089,-0.1011,-0.0591,-0.0066,0.0239,0.0228,0.0082,-0.0121,-0.0363,-0.0637,-0.0956,-0.1239,-0.1404,-0.1371,-0.1321,-0.1456,-0.1412,-0.1118,-0.0873,-0.0832,-0.0714,0,0,0,0,0,0,-0.0343,-0.0437,-0.0396,-0.036,-0.0327,-0.0343,-0.0231,-0.0396,-0.0277,-0.0527,0,0,0,-0.0607,-0.0461,-0.0368,-0.0428,-0.0711,-0.0895,-0.0981,-0.0967,-0.0368,0.0121,0.0305,0.0239,0.0154,0.0066,-0.006,-0.0321,-0.0656,-0.1134,-0.1505,-0.1681,-0.1703,-0.1728,-0.1643,-0.1398,-0.1203,-0.1025,-0.0862,0,0,0,0,0,0,-0.0387,-0.0464,-0.0492,-0.0489,-0.0481,-0.0505,-0.0459,-0.0195,-0.0401,-0.0464,-0.0071,0,0,-0.0643,-0.0461,-0.0442,-0.0459,-0.0665,-0.0849,-0.0945,-0.0851,-0.0415,-0.0055,0.0088,0.0165,0.0264,0.0261,0.014,-0.0159,-0.0453,-0.0887,-0.1406,-0.1851,-0.1969,-0.1991,-0.1895,-0.1673,-0.139,-0.111,-0.0917,0,0,0,0,0,-0.0184,-0.0374,-0.0503,-0.0626,-0.0662,-0.067,-0.0714,-0.0725,0,-0.0656,-0.0393,-0.0165,0,0,-0.0667,-0.0533,-0.0516,-0.0519,-0.0689,-0.0838,-0.0912,-0.0824,-0.0566,-0.0291,-0.0058,0.0192,0.045,0.0544,0.0478,0.0137,-0.0341,-0.078,-0.1181,-0.1796,-0.2181,-0.2261,-0.2151,-0.195,-0.1615,-0.1222,-0.0915,0,0.0489,0.0,0.0396,0,-0.0091,-0.0431,-0.0585,-0.0747,-0.0813,-0.0843,-0.0873,-0.0829,-0.0453,-0.0733,-0.0415,-0.0264,0,-0.0376,-0.0623,-0.0536,-0.0514,-0.0555,-0.0692,-0.0816,-0.0827,-0.072,-0.0527,-0.0275,0.0058,0.036,0.0629,0.0717,0.0654,0.0415,-0.0074,-0.0687,-0.1184,-0.1651,-0.2222,-0.2519,-0.2406,-0.2162,-0.1805,-0.142,-0.1057,0,0.0049,0,0.017,0.022,0,-0.0497,-0.0648,-0.0846,-0.0945,-0.1005,-0.1066,-0.1049,-0.0813,-0.0744,-0.0555,-0.014,0,-0.0448,-0.0363,-0.0247,-0.0385,-0.0555,-0.0632,-0.0678,-0.0585,-0.0404,-0.0217,0.0003,0.0277,0.0464,0.0538,0.0536,0.0398,0.0217,-0.008,-0.0569,-0.1241,-0.1725,-0.2219,-0.2686,-0.2678,-0.2335,-0.1925,-0.1571,-0.1255,0,-0.0464,0.0066,0.0005,0.014,0.0264,-0.0368,-0.0709,-0.0964,-0.1068,-0.1184,-0.1329,-0.1478,-0.1437,-0.106,-0.0343,0,0.0113,-0.031,-0.003,-0.006,-0.0461,-0.0599,-0.0503,-0.0448,-0.0324,-0.0146,0.0008,0.0146,0.0269,0.0365,0.0327,0.0244,0.0082,-0.0181,-0.0478,-0.0797,-0.1283,-0.1876,-0.2368,-0.2813,-0.3021,-0.2598,-0.2055,-0.167,-0.1387,-0.0025,-0.0302,0.0088,0.0052,0.006,0.0088,-0.036,-0.0819,-0.1027,-0.1154,-0.1354,-0.167,-0.2173,-0.2387,-0.0654,0,0.042,0.0121,0.011,0.0143,-0.0277,-0.0667,-0.0508,-0.0341,-0.0341,-0.0275,-0.0126,0.0033,0.0179,0.0258,0.031,0.0286,0.0137,-0.0022,-0.0332,-0.0744,-0.1178,-0.1546,-0.2019,-0.2546,-0.2942,-0.3326,-0.2972,-0.2156,-0.1667,-0.1384,-0.0077,-0.003,0.0085,0.0027,-0.0016,-0.0181,-0.0525,-0.0819,-0.0981,-0.1184,-0.1461,-0.192,-0.27,-0.3518,0,0.0667,0.0385,0.0283,0.0242,-0.0077,-0.0437,-0.0547,-0.0407,-0.0387,-0.0434,-0.0341,-0.014,0.0063,0.0233,0.036,0.0387,0.0363,0.0179,0.0014,-0.0266,-0.0678,-0.1283,-0.1794,-0.2258,-0.2725,-0.309,-0.3472,-0.3356,-0.2258,-0.159,-0.1398,-0.0096,-0.0016,0.0016,-0.0036,-0.0154,-0.0319,-0.0538,-0.0711,-0.0906,-0.1192,-0.1475,-0.1761,-0.2568,-0.3263,-0.0978,0.0159,0.0222,0.025,0.0077,-0.0165,-0.0341,-0.0434,-0.0505,-0.0519,-0.0448,-0.0288,-0.0093,0.0074,0.0211,0.0352,0.0393,0.0371,0.0198,0.0,-0.0233,-0.0511,-0.1071,-0.1783,-0.239,-0.2903,-0.3293,-0.3554,-0.3694,-0.267,-0.1632,-0.1296,-0.0071,-0.0047,-0.0074,-0.0157,-0.028,-0.0404,-0.0423,-0.05,-0.0832,-0.1346,-0.1538,-0.0772,-0.2662,-0.245,-0.1214,-0.0566,-0.0146,0.0091,0.0118,-0.0055,-0.0302,-0.0423,-0.0475,-0.0417,-0.0297,-0.0146,-0.0014,0.0093,0.0159,0.0233,0.0253,0.0217,0.0093,-0.0148,-0.039,-0.0623,-0.0893,-0.153,-0.2206,-0.2865,-0.3299,-0.3507,-0.3584,-0.3095,-0.2027,-0.117,-0.0088,-0.0096,-0.0168,-0.0277,-0.0401,-0.0489,-0.036,-0.0038,-0.0396,-0.2258,-0.2513,0,-0.2225,-0.1967,-0.1349,-0.0728,-0.017,0.0179,0.0157,-0.0102,-0.0275,-0.0283,-0.0211,-0.0096,0.0049,0.0203,0.0327,0.0409,0.0363,0.0209,0.0082,-0.0047,-0.0157,-0.0401,-0.0709,-0.0981,-0.1096,-0.1343,-0.1805,-0.2477,-0.2961,-0.3266,-0.3115,-0.2733,-0.181,-0.072,-0.0082,-0.0135,-0.0214,-0.033,-0.0486,-0.064,-0.0717,0.014,0,-0.2453,-0.284,-0.109,-0.1313,-0.1332,-0.0953,-0.0302,0.0187,0.0239,0.0113,0.0019,-0.0005,0.0071,0.0297,0.0602,0.089,0.1063,0.1079,0.0931,0.0673,0.0228,-0.0137,-0.045,-0.0588,-0.0766,-0.1093,-0.1412,-0.1579,-0.1621,-0.1777,-0.2217,-0.2689,-0.3054,-0.3019,-0.2458,-0.1475,-0.0519,-0.0099,-0.0093,-0.0159,-0.0319,-0.0541,-0.0851,-0.1656,0,-0.0385,-0.1502,-0.1865,-0.1159,-0.1014,-0.0764,-0.0258,0.022,0.0393,0.042,0.0409,0.0472,0.0706,0.1082,0.1439,0.1645,0.1664,0.1607,0.1434,0.1055,0.0621,0.0121,-0.0398,-0.0884,-0.1126,-0.1288,-0.153,-0.1829,-0.2118,-0.2285,-0.2392,-0.2384,-0.2486,-0.2631,-0.27,-0.234,-0.1599,-0.0736]}],[{"header":{"parameterUnit":"m.s-1","parameterCategory":2,"la1":30.5641,"la2":29.4642,"lo1":-89.4342,"lo2":-87.9343,"dy":0.0333,"dx":0.0333,"nx":46,"ny":34,"refTime":"2024-04-01T00:00:00:Z","depth":"4","parameterNumber":2,"parameterNumberName":"U-component_of_CURRENTS"},"data":[0,0,0,0,0,0,0,0,0,0,0,0,0,0,0,0,0,0,0,0,0,0,0,0,0,0,0,0,0,0,0,0,0,0,0,0,0,0,0,0,0,-0.0121,-0.0074,0.0253,0.0107,0,0,0,0,0,0,0,0,0,0,0,0,0,0,0,0,0,0,0,0,0,0,0,0,0,0,0,0,0,0,0,0,0,0,0,0,0,0,0,0,0,0,-0.0341,-0.0374,-0.0244,-0.0481,0,0,0,0,0,0,0,0,0,0,0,0,0,0,0,0,0,0,0,0,0,0,0,0,0,0,0,0,0,0,0,0,0,0,0,0,0,0,0,0,0,0,-0.0346,-0.039,-0.0225,-0.0445,0,0,0,0,0,0,0,0,0,0,0,0,0,0,0,0,0,0,0,0,0,0,0,0,0,0,0,0,0,0,0,0,0,0,0,0,0,0,0,0,0,0,-0.064,-0.0206,0.0143,0.0184,0,0,0,0,0,0,0,0,0,0,0,0,0,0,0,0,0,0,0,0,0,0,0,0,0,0,0,0,0,0,0,0,0,0,0,0,0,0,0,0,0,-0.0236,-0.0041,0.0401,0.0464,0.0286,0,0,0,0,0,0,0,0,0,0,0,0,0,0,0,0,0,0,0,0,0,0,0,0,0,0,0,0,0,0,0,0,0,0,0,0,0,0,0,0,0,-0.0115,-0.0124,-0.0283,-0.0467,-0.0393,0,0,0,0,0,0,0,0,0,0,0,0,0.0151,0.0385,0.0489,0.0547,0.0503,0.0382,0.0283,0.0275,0.0313,0,0,0,0,0,0,0,0,0,0,0,0,-0.0382,-0.0371,0.0025,0,0,0,0,0,-0.0387,-0.0923,-0.1368,-0.1486,-0.1101,0,0,0,0,0,0,0,0,0,0.0071,0.0374,0.0706,0.0761,0.0687,0.0676,0.07,0.0725,0.0725,0.0692,0.0706,0.0645,0.0261,0.0063,0.0239,0.0808,0.1115,0.0917,0,0,0,0,-0.0082,-0.0022,0.0294,0.0577,0.0678,0,0,0,0,0,-0.0829,-0.1519,-0.1247,-0.1384,-0.1277,0,0,0,0,-0.0176,-0.0184,0.0129,0.0461,0.0604,0.0541,0.0478,0.0459,0.0478,0.0536,0.0585,0.0632,0.0808,0.0926,0.0884,0.0882,0.0879,0.0912,0.103,0.1167,0.1206,0.1209,0.1387,0.1255,0.1747,0.1788,0.058,0.0107,0.0198,0.0137,0.0341,0.0277,-0.0791,-0.1601,-0.1415,-0.0711,-0.0508,-0.019,-0.0288,-0.0483,-0.0363,-0.0585,0,0,0,-0.0231,-0.0203,0.0192,0.0401,0.0437,0.0407,0.0448,0.0607,0.0761,0.0731,0.058,0.0494,0.0591,0.0961,0.1464,0.1538,0.0835,-0.0135,-0.0143,0.0417,0.064,0.0687,0.1049,0.1928,0.2406,0.1799,0.1335,0.136,0.0808,0.0382,-0.0151,-0.0632,0.0055,0.131,0.1231,0.0527,0,0,0,-0.1184,-0.2068,-0.1415,-0.0744,0,0,-0.036,-0.0588,-0.0415,-0.0272,-0.0085,0.0047,0.0236,0.0368,0,0,0,0.0096,0.0126,0.0159,0.0261,0,0.0368,0.0335,-0.0063,0,0,0,0,0,0,0,-0.0678,-0.0634,0.0623,0.1101,0.1096,0.0775,0.0407,0,0,-0.0261,-0.084,-0.1939,-0.2738,-0.2659,-0.0978,0.0637,0,0,0,-0.0569,-0.0753,-0.0365,-0.0324,-0.0195,0.0,0.011,0.006,0.0126,0.0453,0.0593,0.0588,0.0541,0.042,0,0,0.0324,0.097,0.1101,0.1395,0.1458,0.106,0.0544,-0.0027,-0.0132,0.0266,0.0374,0.0239,0,0,0,-0.0258,-0.0135,0.042,0.0291,-0.0706,-0.0467,0.0343,0.0813,0.0478,0.0222,0,-0.0041,-0.0297,-0.0503,-0.039,0.0049,-0.0203,-0.0571,-0.0519,-0.0168,0.0547,0.1063,0.1291,0.1156,0.0832,0.0758,0.0733,0.0733,0.1145,0.1458,0.1453,0.1384,0.1447,0.1802,0.214,0.1887,0.1357,0.1099,0.0972,0.07,-0.0211,-0.1025,-0.0711,-0.0596,-0.1049,-0.1511,-0.1516,-0.0511,0.025,-0.0085,-0.0909,-0.0893,-0.0077,0.0928,0.1607,0.1156,-0.0198,-0.0607,-0.047,-0.0755,-0.0588,0,-0.0434,-0.0739,-0.0431,0.0091,0.042,0,0,0.0113,0.0321,0.0483,0.0593,0.0733,0.1011,0.1332,0.1467,0.1502,0.1643,0.1906,0.2049,0.203,0.1928,0.1632,0.1206,0.0775,0.0475,0.0066,-0.0184,-0.025,-0.0613,-0.0423,-0.0453,-0.0618,-0.011,0.0148,0.0211,0.0478,0.0725,0.0585,0.0472,0.0324,-0.0459,-0.0692,-0.0371,-0.0544,-0.0736,-0.0461,-0.0722,-0.031,0.0376,0.0431,0,0,0,0.0168,0.0514,0.0698,0.0786,0.095,0.1129,0.1291,0.1486,0.1884,0.2167,0.2261,0.2019,0.1686,0.1653,0.1629,0.1415,0.0989,0.0802,0.0923,0.0961,0.0634,0.0275,0.0577,0.0794,-0.0456,-0.0873,-0.0126,-0.0022,-0.0129,-0.0264,-0.056,-0.0786,-0.0786,-0.0681,-0.0379,-0.0165,-0.0349,-0.0665,0.008,0.0448,0.0747,0,0,0,0,0,0.0181,0.0596,0.0832,0.086,0.0928,0.1071,0.1274,0.1519,0.2173,0.2766,0.2521,0.2098,0.1511,0.1148,0.1209,0.1283,0.1173,0.0986,0.0923,0.0948,0.0884,0.078,0.0753,0.0684,-0.0074,-0.0549,-0.0577,-0.0865,-0.1184,-0.142,-0.1401,-0.1453,-0.1412,-0.1231,-0.0849,-0.0352,-0.0258,-0.0665,0,0,-0.0135,-0.0019,0.0849,0.1508,0,0,0.0239,0.0676,0.0873,0.081,0.0758,0.0832,0.0961,0.1014,0.0989,0,0.0832,0.1684,0.1461,0.0895,0.0799,0.0882,0.0967,0.0931,0.0838,0.0736,0.064,0.0569,0.0544,0.0453,0.0041,-0.0368,-0.0415,-0.0656,-0.1332,-0.1645,-0.1607,-0.1785,-0.1843,-0.1862,-0.1796,-0.1566,-0.139,-0.1393,0,0,0.0478,0.0758,0.0851,0.1582,0.2134,0.2244,0.1747,0.1082,0.0813,0.0698,0.0632,0.0659,0.0717,0.0725,0.0409,0.0124,0,0.0456,0.1003,0.0794,0.0577,0.0461,0.047,0.0519,0.0514,0.0409,0.031,0.0201,0.0088,-0.0143,-0.0494,-0.0742,-0.0651,-0.0357,-0.0725,-0.1362,-0.1365,-0.1376,-0.1571,-0.1505,-0.1684,-0.1939,-0.1909,-0.1849,0,0,0,0.0209,0.0415,0,0,0,0.0173,0.0431,0.0533,0.0566,0.056,0.0536,0.0505,0.0511,0.045,0.0365,0,0.0393,0.084,0.0703,0.0426,0.014,-0.0049,-0.0014,-0.0014,-0.0253,-0.0634,-0.0857,-0.0868,-0.0703,-0.0448,-0.0261,-0.0157,-0.0011,-0.0014,-0.0563,-0.1008,-0.1014,-0.1307,-0.1621,-0.1939,-0.2156,-0.2098,-0.2096,0,0,0,0,0,0,0,-0.0047,0.0113,0.0492,0.0662,0.0602,0.0503,0.0409,0.0352,0.0349,0.0214,0.0069,0,0.025,0.07,0.058,0.0349,0.0074,-0.0365,-0.0634,-0.0887,-0.12,-0.1244,-0.0816,-0.0349,-0.0069,0.0132,0.0313,0.0478,0.0623,0.0714,0.0569,0.0038,-0.0374,-0.0533,-0.0684,-0.0978,-0.1651,-0.2057,-0.203,0,0,0,0,0,0,-0.0088,-0.0027,0.0258,0.0437,0.0481,0.0434,0.0357,0.0283,0.0231,-0.0052,-0.0255,-0.0198,0,0.0154,0.0555,0.0552,0.033,0.0302,0.0025,-0.0368,-0.0563,-0.0503,-0.0187,0.0016,-0.0008,0.003,0.017,0.0335,0.0481,0.064,0.0882,0.1096,0.1008,0.0645,0.0368,0.0203,-0.0008,-0.0151,-0.0308,-0.0623,0,0,0,0,0,0,-0.0019,0.003,0.0187,0.028,0.0242,0.0176,0.0126,0.0132,0.0126,0.0085,0,0,0,0.0143,0.0547,0.0623,0.0374,0.0464,0.0585,0.0522,0.0437,0.0428,0.0302,0.0058,-0.0063,-0.0008,0.0115,0.0255,0.0379,0.0456,0.058,0.0906,0.1277,0.1362,0.1134,0.0758,0.036,0.0146,0.0143,0.0146,0,0,0,0,0,0,-0.0011,0.0008,0.0091,0.0143,0.0096,-0.0025,-0.0233,-0.0082,0.0126,0.0165,0.0275,0,0,0.0184,0.0648,0.0797,0.0483,0.0461,0.0626,0.0769,0.0808,0.0717,0.0492,0.0236,0.0069,-0.0003,0.0033,0.0173,0.0382,0.0541,0.0547,0.0566,0.092,0.1428,0.1645,0.1426,0.0893,0.0371,0.0099,0.0063,0,0,0,0,0,-0.0033,-0.0036,0.003,0.0096,0.0129,0.0096,0.0049,0.003,0,-0.0014,0.0036,0.0096,0,0,0.0173,0.0728,0.0972,0.0681,0.0497,0.0525,0.0621,0.0676,0.0602,0.0428,0.0269,0.0201,0.0222,0.0283,0.0349,0.0461,0.0684,0.0895,0.0827,0.0689,0.0994,0.1566,0.1829,0.1579,0.1019,0.0475,0.0143,0,-0.0027,0.0132,0.019,0,0.0209,0.0239,0.0085,0.0151,0.0181,0.0151,0.0118,0.0124,-0.0135,-0.0288,-0.0135,-0.0096,0,-0.0135,0.0016,0.0678,0.1134,0.1008,0.0755,0.0651,0.0621,0.0615,0.0632,0.0667,0.0755,0.0868,0.0967,0.1022,0.103,0.1,0.0939,0.0961,0.1066,0.0945,0.078,0.1104,0.1656,0.1868,0.1629,0.1148,0.0687,0,0.0286,0,0.0022,0.0047,0,0.0016,0.011,0.0228,0.025,0.022,0.0168,0.0069,-0.0198,-0.0401,-0.0401,-0.0407,0,-0.0011,0.0201,0.0788,0.136,0.1398,0.1162,0.1038,0.1014,0.1057,0.1173,0.1324,0.1437,0.1445,0.1354,0.1211,0.1104,0.1107,0.1176,0.1145,0.1049,0.0986,0.0758,0.067,0.1112,0.1607,0.1736,0.1527,0.1156,0,0.0102,0.019,0.0192,0.0217,0.0181,0.0214,0.0327,0.0349,0.0324,0.0277,0.0181,-0.0019,-0.0352,-0.0632,-0.0714,0,0.0005,0.0198,0.0607,0.114,0.1667,0.1686,0.142,0.1299,0.1261,0.1266,0.1241,0.122,0.1096,0.0884,0.064,0.0434,0.0341,0.0407,0.0698,0.1046,0.1132,0.0967,0.0689,0.0297,0.0415,0.1016,0.1395,0.1401,0.1181,-0.0052,0.0129,0.0354,0.0385,0.0409,0.0332,0.0319,0.042,0.0459,0.0461,0.0396,0.0261,-0.0044,-0.0722,-0.1181,0,0.0154,0.0371,0.0643,0.1057,0.1483,0.1923,0.184,0.1461,0.1189,0.0895,0.064,0.0272,0.0135,-0.0027,-0.0005,0.0154,0.019,0.0126,0.0069,0.0088,0.047,0.0926,0.103,0.0791,0.0222,-0.0082,0.0297,0.0747,0.0871,0.0755,0.0335,0.0313,0.0343,0.0409,0.0434,0.0461,0.0538,0.0604,0.0645,0.0654,0.0632,0.0626,0.0626,0.0623,0,0.0321,0.0665,0.0813,0.1134,0.145,0.1824,0.2005,0.1637,0.1132,0.056,0.003,-0.0222,-0.0393,-0.0368,-0.0192,0.008,0.0343,0.0365,0.0159,-0.0049,-0.0071,0.006,0.05,0.0931,0.0989,0.0483,-0.019,-0.0236,-0.0022,-0.0088,-0.0148,0.0335,0.0393,0.0426,0.0437,0.0472,0.0569,0.0692,0.0788,0.0846,0.0873,0.0928,0.1165,0.1522,0.22,0.2406,0.1766,0.1338,0.1406,0.17,0.1947,0.2024,0.1673,0.1088,0.047,0.006,-0.0176,-0.0294,-0.028,-0.019,-0.0071,0.0179,0.0332,0.0363,0.0195,-0.0069,-0.0192,-0.011,0.0195,0.0728,0.1085,0.092,0.0049,-0.0574,-0.0486,-0.053,-0.075,0.0371,0.0393,0.0431,0.0456,0.0489,0.0599,0.0775,0.0964,0.1123,0.1137,0.1074,0.1678,0.2142,0.2148,0.22,0.1953,0.1914,0.2156,0.2285,0.2175,0.178,0.1252,0.0783,0.0472,0.0305,0.0244,0.0341,0.0643,0.067,0.0717,0.0742,0.0753,0.0747,0.0659,0.045,0.0203,0.0107,0.0184,0.0621,0.1167,0.1371,0.092,-0.0264,-0.1063,-0.0986,-0.0791,0.0439,0.0461,0.0492,0.0505,0.0519,0.058,0.072,0.1101,0.1736,0.1612,0.1134,0,0.058,0.1511,0.1961,0.2236,0.2681,0.2878,0.2662,0.2153,0.164,0.1206,0.1046,0.1126,0.1431,0.1854,0.2337,0.267,0.2889,0.2964,0.2892,0.2681,0.2346,0.1925,0.1516,0.1181,0.0986,0.0928,0.1014,0.1354,0.1755,0.1881,0.1434,0.0489,-0.019,-0.0242,0.0552,0.0571,0.0604,0.0643,0.067,0.0621,0.0291,0.0016,0,0.0412,0.1316,0.1469,0.1329,0.1761,0.2236,0.2933,0.3271,0.3101,0.2609,0.2181,0.1887,0.2011,0.2381,0.2881,0.3392,0.3837,0.4153,0.4458,0.4537,0.451,0.4422,0.426,0.3991,0.3571,0.2931,0.2228,0.1728,0.153,0.1513,0.1571,0.1725,0.1936,0.2019,0.1766,0.1299,0.0939,0.0703,0.072,0.0753,0.0808,0.0838,0.0772,0.0709,0,0.0091,0.0544,0.1274,0.167,0.1868,0.2186,0.2903,0.3345,0.328,0.292,0.2645,0.2747,0.3109,0.3623,0.4139,0.4581,0.4897,0.5158,0.5386,0.5628,0.5834,0.5842,0.56,0.5092,0.4642,0.4337,0.3947,0.3269,0.2412,0.1843,0.1686,0.1744,0.1868,0.2052,0.2217,0.2195,0.1961,0.1637]},{"header":{"parameterUnit":"m.s-1","parameterCategory":2,"la1":30.5641,"la2":29.4642,"lo1":-89.4342,"lo2":-87.9343,"dy":0.0333,"dx":0.0333,"nx":46,"ny":34,"refTime":"2024-04-01T00:00:00:Z","depth":"4","parameterNumber":3,"parameterNumberName":"V-component_of_CURRENTS"},"data":[0,0,0,0,0,0,0,0,0,0,0,0,0,0,0,0,0,0,0,0,0,0,0,0,0,0,0,0,0,0,0,0,0,0,0,0,0,0,0,0,0,-0.0665,-0.0475,-0.0656,-0.2464,0,0,0,0,0,0,0,0,0,0,0,0,0,0,0,0,0,0,0,0,0,0,0,0,0,0,0,0,0,0,0,0,0,0,0,0,0,0,0,0,0,0,-0.0819,-0.014,-0.1209,-0.2651,0,0,0,0,0,0,0,0,0,0,0,0,0,0,0,0,0,0,0,0,0,0,0,0,0,0,0,0,0,0,0,0,0,0,0,0,0,0,0,0,0,0,-0.109,-0.0187,-0.1305,-0.2521,0,0,0,0,0,0,0,0,0,0,0,0,0,0,0,0,0,0,0,0,0,0,0,0,0,0,0,0,0,0,0,0,0,0,0,0,0,0,0,0,0,0,-0.0769,-0.0308,-0.122,-0.2554,0,0,0,0,0,0,0,0,0,0,0,0,0,0,0,0,0,0,0,0,0,0,0,0,0,0,0,0,0,0,0,0,0,0,0,0,0,0,0,0,0,-0.0983,0.0058,-0.0431,-0.1552,-0.2884,0,0,0,0,0,0,0,0,0,0,0,0,0,0,0,0,0,0,0,0,0,0,0,0,0,0,0,0,0,0,0,0,0,0,0,0,0,0,0,0,0,-0.0983,0.0239,-0.1077,-0.2115,-0.2917,0,0,0,0,0,0,0,0,0,0,0,0,0.0228,0.0038,-0.0085,-0.0137,-0.0201,-0.0247,-0.0217,0.0115,-0.0464,0,0,0,0,0,0,0,0,0,0,0,0,-0.111,0.039,0.0225,0,0,0,0,0,-0.1307,-0.0151,-0.1505,-0.2129,-0.237,0,0,0,0,0,0,0,0,0,0.0041,0.0242,0.0354,0.0157,-0.0033,-0.0099,-0.0132,-0.0203,-0.0343,-0.0313,-0.0025,-0.0626,-0.0585,-0.0492,-0.0162,0.0354,-0.0739,-0.2112,0,0,0,0,-0.0846,-0.0283,-0.0753,0.0209,-0.0591,0,0,0,0,0,-0.2222,-0.0629,-0.1159,-0.1912,-0.1645,0,0,0,0,-0.0923,0.0049,0.0231,0.047,0.0448,0.0115,-0.008,0.0085,0.0027,-0.0082,-0.0181,-0.017,-0.0195,-0.0497,-0.0511,0.0115,-0.0832,-0.0574,-0.0338,-0.0066,0.0266,-0.0711,-0.1794,-0.0511,-0.0093,-0.1203,-0.0758,-0.0788,-0.0393,-0.0305,-0.008,-0.1794,-0.1876,-0.0983,-0.1382,0.0,0.0,-0.1426,-0.1659,-0.131,-0.2074,-0.1151,0,0,0,-0.0681,-0.0623,0.0069,0.0316,0.0396,0.0327,0.0258,-0.0201,-0.0091,-0.0016,-0.0121,-0.0302,-0.019,0.0049,-0.0275,-0.0945,0.0088,-0.1621,-0.028,-0.0102,0.0027,0.0088,-0.0338,-0.0736,-0.0255,-0.0209,-0.1505,-0.1195,-0.0832,-0.0632,-0.0714,-0.0797,-0.1107,-0.0937,-0.1535,-0.1895,0,0,0,-0.3859,-0.2359,-0.1184,-0.0475,0,0,-0.0761,-0.0615,-0.0453,-0.0146,0.0049,0.0085,0.0121,0.0129,0,0,0,-0.0049,-0.0494,-0.0085,0.0137,0,-0.1019,-0.0442,-0.2708,0,0,0,0,0,0,0,-0.1099,-0.0898,-0.0819,-0.0453,-0.1025,-0.1519,-0.1881,0,0,-0.2593,-0.267,-0.2019,-0.1816,-0.0917,-0.2651,-0.3766,0,0,0,-0.1143,-0.0613,-0.0725,-0.0692,-0.0514,-0.0275,-0.058,-0.019,-0.0011,0.0005,0.0184,0.0121,-0.006,-0.097,0,0,0.019,-0.056,-0.0703,-0.2266,-0.0802,-0.0786,-0.07,-0.033,-0.0005,0.0434,-0.0805,-0.2483,0,0,0,-0.1022,-0.1648,-0.2315,-0.1519,-0.0937,-0.2247,-0.2173,-0.2057,-0.2016,-0.1376,0,-0.4334,-0.1305,-0.0706,-0.0472,-0.0571,-0.0621,-0.0802,-0.0687,-0.0288,0.0222,-0.0478,-0.0211,-0.0374,-0.0247,0.0058,0.008,-0.0137,-0.0824,-0.0261,-0.0126,0.0027,-0.0297,-0.0563,-0.0854,-0.0569,-0.0563,-0.0464,-0.0206,-0.0113,-0.0107,-0.0986,-0.2543,-0.0786,-0.0953,-0.0566,0.0113,-0.0277,-0.2293,-0.1395,-0.0871,-0.1184,-0.1159,-0.1486,-0.2296,-0.2178,-0.1862,-0.3977,-0.1533,-0.0552,-0.0428,0,-0.0813,-0.0286,-0.0352,0.0283,0.0341,0,0,-0.0813,-0.042,0.0003,0.0041,0.0011,-0.0115,-0.0003,-0.0071,-0.0137,-0.0272,-0.0321,-0.0162,-0.0225,-0.0387,-0.0423,-0.036,-0.0266,-0.0621,-0.1068,-0.184,-0.0623,-0.103,-0.1129,0.0299,0.0851,-0.1997,-0.164,-0.0431,-0.0448,-0.0558,-0.1206,-0.1931,-0.2637,-0.2178,-0.398,-0.1681,-0.0626,-0.0494,0.039,-0.0838,0.0198,-0.0058,0.0266,0,0,0,-0.084,-0.036,0.0126,0.0135,0.0146,0.0187,0.0269,0.0148,0.0203,-0.0343,-0.061,-0.0258,0.0085,-0.0173,-0.0376,-0.0426,-0.0431,-0.0681,-0.0882,-0.1316,-0.0849,-0.0986,-0.1041,-0.0338,0.081,-0.1206,-0.1445,-0.0077,0.0113,-0.0571,-0.1272,-0.1865,-0.2315,-0.2093,-0.2895,-0.1758,-0.0937,-0.0684,0.0195,-0.0404,-0.0321,0,0,0,0,0,-0.0695,-0.0379,0.0129,0.0195,0.0217,0.0258,0.0302,0.0456,0.1335,-0.019,-0.1316,-0.1066,-0.0014,-0.006,-0.0305,-0.0475,-0.0596,-0.0643,-0.0689,-0.0865,-0.0876,-0.0813,-0.0656,-0.0547,0.0266,-0.0483,-0.1052,-0.0368,0.0349,-0.0596,-0.1437,-0.1912,-0.1859,-0.1659,-0.1892,-0.1453,-0.1192,-0.1154,0,0,-0.0937,-0.019,-0.0354,-0.2074,0,0,-0.0305,-0.0299,0.0003,0.0113,0.019,0.0222,0.0288,0.0431,0.1491,0,-0.0884,-0.1854,-0.0489,-0.0148,-0.028,-0.0393,-0.0541,-0.0552,-0.0549,-0.0698,-0.0728,-0.0739,-0.0695,-0.0588,-0.028,-0.0368,-0.0915,-0.0678,0.0277,-0.0338,-0.1566,-0.1903,-0.1637,-0.1126,-0.0876,-0.0972,-0.1156,-0.1299,0,0,-0.0483,-0.0319,-0.0036,-0.1038,0.0,0.0,-0.0673,-0.0541,-0.0168,-0.0008,0.0085,0.0137,0.0201,0.0192,0.0634,0.0184,0,-0.1747,-0.084,-0.0308,-0.0335,-0.0324,-0.0417,-0.0472,-0.0508,-0.0643,-0.0684,-0.0695,-0.0552,-0.0475,-0.0596,-0.0547,-0.0805,-0.0799,-0.0242,-0.0247,-0.1159,-0.1906,-0.1513,-0.0948,-0.0437,-0.0775,-0.0956,-0.1033,0,0,0,-0.0222,0.0159,0,0,0,-0.1415,-0.0865,-0.0286,-0.0099,-0.0033,0.0025,0.0033,0.0093,0.0294,-0.0014,0,-0.1294,-0.0865,-0.042,-0.0464,-0.0412,-0.0415,-0.0467,-0.05,-0.0725,-0.0777,-0.0569,-0.0549,-0.0547,-0.0687,-0.0846,-0.1027,-0.1068,-0.0934,-0.0731,-0.0802,-0.1681,-0.1697,-0.1412,-0.0618,-0.0775,-0.0797,-0.078,0,0,0,0,0,0,0,-0.0851,-0.1398,-0.0865,-0.0409,-0.0236,-0.0159,-0.0154,-0.017,0.0033,0.0016,-0.0231,0,-0.1143,-0.0931,-0.0492,-0.0574,-0.0667,-0.0632,-0.0673,-0.0786,-0.0884,-0.0634,-0.0332,-0.0275,-0.0357,-0.0615,-0.0942,-0.12,-0.1329,-0.1379,-0.1338,-0.1126,-0.1447,-0.1953,-0.1763,-0.1008,-0.0783,-0.0766,-0.0698,0,0,0,0,0,0,-0.0472,-0.0786,-0.0953,-0.07,-0.0467,-0.0382,-0.0288,-0.0385,-0.0321,-0.0319,-0.008,-0.0124,0,-0.1154,-0.1022,-0.0593,-0.0629,-0.0882,-0.0939,-0.0989,-0.1115,-0.0744,-0.0253,0.003,-0.0025,-0.0192,-0.0426,-0.067,-0.097,-0.1283,-0.1571,-0.1711,-0.1656,-0.1634,-0.1832,-0.1761,-0.1406,-0.1088,-0.1,-0.0838,0,0,0,0,0,0,-0.0555,-0.0667,-0.0599,-0.0538,-0.0467,-0.0467,-0.0396,-0.0599,-0.0426,-0.0714,0,0,0,-0.1121,-0.1055,-0.0706,-0.0645,-0.0893,-0.1077,-0.1148,-0.1148,-0.0593,-0.0143,0.0033,-0.0052,-0.014,-0.0247,-0.0393,-0.0659,-0.1011,-0.1483,-0.187,-0.2016,-0.2035,-0.2016,-0.1934,-0.1689,-0.1464,-0.1277,-0.1074,0,0,0,0,0,0,-0.0698,-0.0629,-0.0588,-0.061,-0.0602,-0.0634,-0.0684,-0.0346,-0.0604,-0.0728,-0.0428,0,0,-0.1085,-0.1041,-0.0808,-0.0684,-0.0835,-0.1035,-0.1162,-0.1096,-0.07,-0.0363,-0.0209,-0.0143,-0.0082,-0.0115,-0.0294,-0.0588,-0.0909,-0.1288,-0.1802,-0.22,-0.2337,-0.2318,-0.2239,-0.2002,-0.1697,-0.1412,-0.1189,0,0,0,0,0,-0.0385,-0.0698,-0.0645,-0.0698,-0.0744,-0.0766,-0.0819,-0.0917,0,-0.0829,-0.0629,-0.0453,0,0,-0.1104,-0.1011,-0.0871,-0.0758,-0.086,-0.1022,-0.114,-0.1088,-0.0868,-0.0637,-0.0439,-0.0253,-0.0113,-0.0074,-0.022,-0.0566,-0.1038,-0.1404,-0.1752,-0.2244,-0.2593,-0.262,-0.2527,-0.2296,-0.1969,-0.1563,-0.1236,0,-0.0151,0.0,-0.0107,0,-0.0192,-0.0703,-0.0714,-0.081,-0.0884,-0.0909,-0.0939,-0.0956,-0.0626,-0.0862,-0.0621,-0.047,0,-0.0591,-0.0953,-0.0898,-0.0862,-0.0849,-0.0942,-0.1082,-0.1143,-0.1085,-0.0967,-0.0835,-0.0654,-0.047,-0.0352,-0.0324,-0.042,-0.0665,-0.1115,-0.1662,-0.2044,-0.2359,-0.2821,-0.3008,-0.284,-0.2505,-0.2164,-0.1761,-0.1417,0,-0.0426,0,-0.0201,-0.0148,0,-0.0764,-0.0772,-0.0939,-0.1033,-0.1079,-0.1123,-0.1132,-0.0926,-0.089,-0.0733,-0.0231,0,-0.067,-0.0643,-0.0626,-0.0832,-0.0992,-0.1038,-0.1123,-0.114,-0.1079,-0.1063,-0.1035,-0.0981,-0.0937,-0.0926,-0.0939,-0.1005,-0.1132,-0.1384,-0.1846,-0.2387,-0.2736,-0.3057,-0.3406,-0.3301,-0.2771,-0.228,-0.1873,-0.1604,0,-0.0648,-0.036,-0.0291,-0.0179,-0.014,-0.0654,-0.0868,-0.1068,-0.1162,-0.1252,-0.1371,-0.1461,-0.1461,-0.1184,-0.0415,0,-0.0255,-0.0585,-0.0434,-0.0588,-0.1038,-0.1209,-0.1115,-0.1156,-0.1269,-0.1318,-0.1453,-0.1491,-0.1491,-0.1423,-0.1338,-0.1324,-0.1387,-0.1522,-0.1736,-0.2123,-0.2598,-0.3093,-0.3378,-0.3705,-0.3672,-0.3271,-0.248,-0.195,-0.1656,-0.0335,-0.0439,-0.0228,-0.0228,-0.019,-0.0214,-0.0607,-0.0989,-0.1137,-0.1252,-0.1423,-0.1634,-0.1931,-0.2197,-0.0692,0,0.0118,-0.0206,-0.0368,-0.0472,-0.0978,-0.1415,-0.1321,-0.1247,-0.145,-0.1725,-0.1794,-0.1865,-0.1706,-0.148,-0.1329,-0.1263,-0.1338,-0.1505,-0.1719,-0.1936,-0.2318,-0.2791,-0.3282,-0.3661,-0.3928,-0.3887,-0.3667,-0.276,-0.1997,-0.159,-0.0283,-0.0203,-0.0088,-0.0159,-0.0211,-0.0357,-0.0703,-0.0989,-0.1148,-0.1313,-0.1524,-0.1813,-0.2293,-0.3021,0,0.0494,0.0115,-0.0168,-0.0426,-0.0898,-0.1401,-0.1574,-0.1513,-0.1686,-0.1928,-0.2013,-0.187,-0.1629,-0.1313,-0.1088,-0.0846,-0.0846,-0.1066,-0.1431,-0.1752,-0.2005,-0.2324,-0.2911,-0.3428,-0.387,-0.4139,-0.4202,-0.3774,-0.3098,-0.2063,-0.159,-0.0198,-0.0129,-0.0115,-0.0176,-0.0288,-0.0461,-0.0733,-0.0937,-0.1123,-0.1324,-0.1516,-0.1681,-0.2239,-0.2807,-0.0893,0.0047,-0.0115,-0.0341,-0.0808,-0.1343,-0.1568,-0.1744,-0.189,-0.2041,-0.1923,-0.17,-0.1544,-0.1285,-0.1057,-0.0728,-0.0582,-0.0563,-0.0758,-0.1187,-0.1599,-0.1975,-0.2307,-0.2851,-0.3507,-0.4021,-0.4348,-0.4488,-0.4112,-0.3348,-0.2296,-0.1599,-0.0176,-0.0148,-0.0187,-0.0264,-0.0365,-0.0505,-0.0656,-0.0791,-0.1038,-0.1382,-0.1522,-0.0755,-0.2313,-0.2156,-0.1104,-0.0613,-0.0549,-0.0824,-0.1184,-0.1368,-0.1681,-0.1876,-0.1901,-0.1774,-0.1533,-0.1373,-0.1288,-0.1035,-0.0945,-0.0736,-0.0678,-0.0629,-0.0709,-0.1014,-0.1379,-0.1741,-0.217,-0.2692,-0.3398,-0.4024,-0.4447,-0.4565,-0.4455,-0.3774,-0.2832,-0.1739,-0.0192,-0.0195,-0.0258,-0.0349,-0.0456,-0.0566,-0.0599,-0.033,-0.0486,-0.203,-0.2219,0,-0.1928,-0.1774,-0.1258,-0.0989,-0.1019,-0.1112,-0.1222,-0.1461,-0.1629,-0.1618,-0.1489,-0.1296,-0.1121,-0.0964,-0.0846,-0.0846,-0.0827,-0.0882,-0.0967,-0.1011,-0.106,-0.1258,-0.1615,-0.1859,-0.203,-0.2423,-0.3032,-0.3724,-0.4263,-0.4452,-0.4277,-0.3823,-0.2826,-0.164,-0.0214,-0.0242,-0.0299,-0.0393,-0.0552,-0.0725,-0.0865,0.0011,0,-0.2225,-0.2401,-0.0967,-0.1233,-0.1327,-0.122,-0.1189,-0.106,-0.1025,-0.1173,-0.1241,-0.1236,-0.1143,-0.0994,-0.0816,-0.0637,-0.0503,-0.0467,-0.0544,-0.0753,-0.1063,-0.142,-0.1623,-0.1659,-0.1717,-0.1978,-0.2324,-0.2447,-0.2464,-0.2777,-0.3326,-0.3867,-0.4183,-0.4076,-0.3488,-0.2521,-0.1577,-0.0341,-0.031,-0.0313,-0.0428,-0.064,-0.0928,-0.1524,0,-0.0074,-0.1398,-0.1585,-0.1033,-0.1077,-0.1104,-0.1167,-0.0928,-0.0744,-0.0706,-0.0717,-0.0681,-0.0621,-0.0467,-0.0228,-0.0008,0.0143,0.0225,0.0187,0.0027,-0.0275,-0.0739,-0.1406,-0.2002,-0.2255,-0.2288,-0.2373,-0.264,-0.2911,-0.2909,-0.2939,-0.3172,-0.3472,-0.3719,-0.3735,-0.3318,-0.2543,-0.1766]}],[{"header":{"parameterUnit":"m.s-1","parameterCategory":2,"la1":30.5641,"la2":29.4642,"lo1":-89.4342,"lo2":-87.9343,"dy":0.0333,"dx":0.0333,"nx":46,"ny":34,"refTime":"2024-04-01T00:00:00:Z","depth":"6","parameterNumber":2,"parameterNumberName":"U-component_of_CURRENTS"},"data":[0,0,0,0,0,0,0,0,0,0,0,0,0,0,0,0,0,0,0,0,0,0,0,0,0,0,0,0,0,0,0,0,0,0,0,0,0,0,0,0,0,-0.0055,0.0099,0.0266,0.0135,0,0,0,0,0,0,0,0,0,0,0,0,0,0,0,0,0,0,0,0,0,0,0,0,0,0,0,0,0,0,0,0,0,0,0,0,0,0,0,0,0,0,-0.0198,-0.0124,0.0129,0.0055,0,0,0,0,0,0,0,0,0,0,0,0,0,0,0,0,0,0,0,0,0,0,0,0,0,0,0,0,0,0,0,0,0,0,0,0,0,0,0,0,0,0,-0.0074,0.0038,0.0247,0.0222,0,0,0,0,0,0,0,0,0,0,0,0,0,0,0,0,0,0,0,0,0,0,0,0,0,0,0,0,0,0,0,0,0,0,0,0,0,0,0,0,0,0,-0.0093,0.0283,0.0409,0.0332,0,0,0,0,0,0,0,0,0,0,0,0,0,0,0,0,0,0,0,0,0,0,0,0,0,0,0,0,0,0,0,0,0,0,0,0,0,0,0,0,0,-0.0038,0.0124,0.0297,0.0277,0.0225,0,0,0,0,0,0,0,0,0,0,0,0,0,0,0,0,0,0,0,0,0,0,0,0,0,0,0,0,0,0,0,0,0,0,0,0,0,0,0,0,0,0.0016,0.0088,0.006,-0.003,0.0016,0,0,0,0,0,0,0,0,0,0,0,0,0.0228,0.0533,0.0665,0.0736,0.0736,0.0632,0.0489,0.0607,0.0786,0,0,0,0,0,0,0,0,0,0,0,0,-0.0173,-0.0132,0.0096,0,0,0,0,0,-0.0132,-0.0222,-0.0222,-0.0275,-0.0308,0,0,0,0,0,0,0,0,0,-0.0255,-0.0313,0.0324,0.0714,0.067,0.0692,0.0714,0.0725,0.0722,0.0717,0.0972,0.1483,0.1667,0.1439,0.1329,0.164,0.178,0.1651,0,0,0,0,0.0,0.0162,0.0374,0.0143,-0.0113,0,0,0,0,0,-0.0231,-0.0393,-0.0302,-0.0423,-0.0602,0,0,0,0,-0.0294,-0.0678,-0.0717,-0.0494,-0.0055,0.0338,0.0363,0.0324,0.0434,0.0547,0.0621,0.0676,0.0813,0.0865,0.0799,0.1241,0.15,0.1272,0.1187,0.103,0.131,0.175,0.1684,0.1541,0.1843,0.1728,0.0937,0.0634,0.081,0.0678,0.0445,0.0137,-0.0176,-0.0008,0.0093,-0.0231,-0.0591,-0.0011,0.0214,-0.0107,-0.0159,-0.0481,0,0,0,-0.0159,-0.0236,-0.0294,-0.0341,-0.0124,-0.0058,-0.0091,0.0286,0.0676,0.0678,0.0615,0.0558,0.061,0.0937,0.1329,0.1305,0.1373,0.1019,0.0659,0.1093,0.131,0.122,0.1228,0.1862,0.2335,0.2722,0.2692,0.1843,0.1387,0.1453,0.1354,0.075,0.0558,0.1233,0.1472,0.1222,0,0,0,-0.0626,-0.1469,-0.1255,-0.0602,0,0,-0.0069,0.0058,0.0272,0.0247,0.0242,0.0266,0.0036,-0.0209,0,0,0,0.0129,0.0176,0.019,0.0288,0,0.0299,0.0956,0.1324,0,0,0,0,0,0,0,0.0113,0.0387,0.084,0.117,0.1769,0.2137,0.1909,0,0,0.0077,-0.0071,-0.0335,-0.0374,-0.1044,-0.0082,0.1546,0,0,0,-0.0016,0.0151,0.042,0.0494,0.0439,0.0393,0.0343,0.039,0.0744,0.0505,0.0261,0.0467,0.0453,0.0409,0,0,-0.0025,0.0222,0.0582,0.0983,0.0821,-0.0082,-0.0277,0.0049,0.0371,0.0876,0.139,0.1187,0,0,0,0.0821,0.1612,0.1143,0.0541,0.0115,0.0662,0.111,0.1134,0.0788,0.0536,0,-0.0173,-0.0184,-0.0074,-0.0071,0.0643,0.0558,0.0341,0.0338,0.0236,0.0239,0.0681,0.1176,0.1093,0.0717,0.0591,0.0656,0.0717,0.1074,0.1329,0.125,0.1107,0.0989,0.1025,0.1497,0.1442,0.0541,-0.0036,-0.0074,0.0,-0.0005,0.0088,0.0286,0.0242,-0.0082,-0.0824,-0.0558,0.0516,0.0953,0.0659,0.0159,0.006,0.0978,0.181,0.1387,0.1112,0.0599,0.0129,0.0236,0.045,0.0555,0,-0.0055,0.0008,-0.0019,-0.0129,-0.0088,0,0,0.0118,0.0321,0.0478,0.0593,0.0714,0.095,0.1192,0.1296,0.134,0.1313,0.1379,0.1692,0.1983,0.1865,0.128,0.0492,-0.003,-0.0063,0.0055,0.0047,0.0096,0.0179,0.0025,-0.0209,0.047,0.1145,0.075,0.0552,0.061,0.0613,0.092,0.1071,0.0893,0.0651,0.0555,0.0621,0.0678,0.0654,0.0544,0.0387,-0.0066,-0.0135,0.0038,0,0,0,0.0036,0.006,0.0308,0.0662,0.0819,0.0926,0.1,0.1107,0.1428,0.1634,0.1519,0.167,0.1892,0.1986,0.1906,0.1458,0.0744,0.0247,0.0288,0.0596,0.0604,0.0275,0.0253,0.0192,0.0385,0.0511,0.0363,0.0052,-0.0206,-0.0448,-0.0547,-0.0297,0.0003,0.0291,0.0651,0.0989,0.1057,0.0873,0.0143,0.036,0.0439,0,0,0,0,0,0.0016,-0.014,0.0093,0.0629,0.0772,0.0709,0.0593,0.0802,0.1546,0.2123,0.1835,0.1552,0.1675,0.1489,0.1544,0.1511,0.1173,0.067,0.0439,0.0728,0.0994,0.0915,0.0379,-0.0209,-0.0508,-0.0415,-0.0211,-0.0445,-0.0747,-0.1057,-0.1316,-0.1143,-0.0547,0.022,0.0813,0.1044,0.0906,0.0404,0,0,0.0316,0.0577,0.0805,0.1101,0,0,0.0063,-0.0025,0.0088,0.0503,0.0569,0.0398,0.0195,0.0162,0.0217,0,0.0547,0.0986,0.1239,0.1044,0.1027,0.1143,0.1214,0.111,0.0939,0.0802,0.07,0.0527,0.0308,-0.0247,-0.0764,-0.039,-0.0003,-0.0393,-0.0772,-0.0769,-0.0772,-0.0758,-0.0788,-0.1049,-0.0786,-0.0146,-0.0239,-0.0769,0,0,0.0258,0.028,0.0176,0.0882,0.1728,0.1991,0.1409,0.0505,0.0236,0.0434,0.0494,0.0335,0.0124,-0.0132,-0.0236,-0.0184,0,-0.0016,0.0527,0.0797,0.0637,0.0637,0.0709,0.0739,0.0703,0.0599,0.0456,0.0409,0.0412,0.0316,-0.0299,-0.058,-0.0146,-0.0231,-0.0525,-0.0475,-0.0286,-0.0264,-0.0695,-0.1329,-0.1494,-0.1431,-0.1491,-0.1458,0,0,0,0.0426,0.0851,0,0,0,-0.0239,-0.0239,0.0093,0.033,0.045,0.042,0.0225,0.0113,0.0192,0.0228,0,-0.014,0.0181,0.0681,0.0467,0.0242,0.0132,0.008,0.0041,0.0022,0.0115,0.0233,0.0201,0.0047,-0.0332,-0.0442,-0.0143,0.0055,0.0008,-0.0203,-0.0132,0.0016,-0.0607,-0.136,-0.1706,-0.1774,-0.1615,-0.1447,0,0,0,0,0,0,0,-0.0308,-0.053,-0.0236,0.0126,0.0332,0.0398,0.0354,0.0247,0.0239,0.0181,0.008,0,-0.0203,-0.019,0.0574,0.031,0.0107,-0.0231,-0.0519,-0.0731,-0.0923,-0.0961,-0.0821,-0.0577,-0.036,-0.0115,0.0162,0.0385,0.0552,0.0645,0.05,0.0179,-0.0005,-0.0398,-0.0961,-0.1203,-0.1469,-0.1722,-0.1621,0,0,0,0,0,0,-0.0069,-0.0327,-0.0313,-0.0085,0.0049,0.0225,0.0297,0.025,0.0173,-0.0077,-0.0239,-0.0157,0,-0.0198,-0.0396,0.0456,0.0308,0.0233,0.0014,-0.0404,-0.0838,-0.0964,-0.058,-0.0181,-0.0148,-0.0088,0.0058,0.0217,0.0321,0.0417,0.0599,0.0805,0.0783,0.0461,-0.0011,-0.0352,-0.047,-0.0407,-0.0365,-0.0574,0,0,0,0,0,0,-0.0005,-0.0049,-0.0093,-0.006,0.0003,0.0038,0.0077,0.0104,0.0102,0.0102,0,0,0,-0.0179,-0.0415,0.0332,0.0341,0.0379,0.0423,0.0327,0.0022,-0.0016,0.008,-0.0036,-0.0137,-0.0099,-0.0008,0.0082,0.0181,0.0228,0.0264,0.05,0.0871,0.1016,0.078,0.0341,-0.0055,-0.0198,-0.0049,0.0047,0,0,0,0,0,0,0.0044,0.0074,0.0052,0.0014,-0.0022,-0.0096,-0.028,-0.0085,0.0154,0.0187,0.0299,0,0,-0.0132,-0.0327,0.028,0.0417,0.0407,0.0475,0.0514,0.0481,0.0412,0.0299,0.014,-0.0014,-0.0132,-0.0209,-0.0184,-0.003,0.0165,0.022,0.019,0.047,0.0978,0.1217,0.1,0.0483,0.0027,-0.0115,-0.0047,0,0,0,0,0,-0.0168,-0.0091,0.0143,0.0093,0.0019,-0.0003,-0.0003,-0.0011,0,0.0,0.0049,0.0099,0,0,-0.0206,-0.0211,0.0349,0.0547,0.0464,0.0439,0.0456,0.0467,0.0379,0.0228,0.0091,-0.0033,-0.017,-0.0255,-0.0305,-0.0341,-0.017,0.0132,0.0239,0.0198,0.0511,0.1096,0.1368,0.1126,0.061,0.017,-0.0041,0,-0.011,0.0118,0.0201,0,0.008,0.022,0.0222,0.0102,0.0036,0.0025,0.0016,0.0063,-0.0088,-0.0225,-0.011,-0.0066,0,-0.0126,-0.0313,-0.0055,0.0486,0.078,0.0659,0.0544,0.0489,0.0434,0.0374,0.031,0.0253,0.0154,-0.0038,-0.0211,-0.0365,-0.0478,-0.0505,-0.031,-0.0019,0.0069,0.0121,0.058,0.1225,0.1486,0.1244,0.0783,0.0379,0,0.0211,0,0.0041,0.0085,0,0.008,0.0143,0.0102,0.0091,0.0099,0.0069,0.0011,-0.0137,-0.0261,-0.0308,-0.0346,0,-0.0071,-0.0019,0.028,0.07,0.089,0.0802,0.0692,0.0618,0.0566,0.0519,0.0461,0.0286,0.0044,-0.0286,-0.0522,-0.0604,-0.0786,-0.0835,-0.0681,-0.0461,-0.0255,-0.0126,0.0113,0.0678,0.1305,0.1502,0.1266,0.0882,0,-0.0014,0.0107,0.0258,0.0272,0.0209,0.019,0.0187,0.0151,0.0181,0.0187,0.0115,-0.0058,-0.0211,-0.0407,-0.0566,0,-0.0027,0.0074,0.0332,0.0541,0.0755,0.0753,0.0676,0.0577,0.0415,0.0165,-0.0126,-0.0332,-0.0376,-0.022,0.0104,0.0456,0.0665,0.0431,-0.0258,-0.0764,-0.0808,-0.0626,-0.0415,-0.022,0.0096,0.0695,0.1231,0.1302,0.1063,0.0203,0.0126,0.0173,0.0379,0.0439,0.0376,0.0225,0.0159,0.0228,0.0308,0.0302,0.0203,-0.0058,-0.0555,-0.0865,0,0.0113,0.0253,0.0357,0.0508,0.0585,0.0731,0.0604,0.0247,-0.0162,-0.0662,-0.0813,-0.0799,-0.0607,-0.0143,0.0505,0.1044,0.1404,0.1604,0.1535,0.0893,-0.0129,-0.0783,-0.0942,-0.0799,-0.0544,-0.0294,0.0036,0.0536,0.0829,0.0753,0.0173,0.031,0.0398,0.0464,0.05,0.0423,0.0291,0.0286,0.0398,0.0489,0.0508,0.0511,0.0538,0.0558,0,0.0264,0.0547,0.0514,0.0522,0.0494,0.0483,0.07,0.042,-0.0181,-0.0709,-0.0865,-0.0772,-0.0522,-0.0099,0.0415,0.0758,0.0939,0.1066,0.1228,0.1439,0.1332,0.0593,-0.0385,-0.1011,-0.1143,-0.0926,-0.0626,-0.0431,-0.0211,-0.0052,-0.0069,0.0341,0.0442,0.0492,0.0522,0.0544,0.0475,0.0393,0.0453,0.0588,0.0698,0.0772,0.0964,0.1318,0.1964,0.214,0.1555,0.1005,0.0733,0.0626,0.058,0.0676,0.0829,0.0566,-0.0008,-0.0253,-0.0376,-0.0354,-0.0203,0.0011,0.0159,0.025,0.0357,0.0489,0.0673,0.089,0.1003,0.0819,0.0047,-0.0728,-0.1247,-0.1269,-0.1008,-0.0813,-0.0659,-0.0593,-0.0709,0.0401,0.0475,0.0522,0.056,0.0566,0.0516,0.0516,0.0651,0.0851,0.0937,0.092,0.1439,0.1846,0.1868,0.1879,0.1527,0.1187,0.0981,0.0893,0.0898,0.1063,0.0992,0.0558,0.0195,-0.0036,-0.0176,-0.0168,-0.0038,0.0118,0.028,0.0439,0.0549,0.0585,0.0629,0.067,0.0637,0.0577,0.0277,-0.0428,-0.1027,-0.1258,-0.1324,-0.1346,-0.1239,-0.1025,-0.0915,0.0475,0.0538,0.0599,0.0643,0.0618,0.0574,0.0593,0.0879,0.1442,0.1354,0.0953,0,0.0489,0.1261,0.1527,0.1469,0.1382,0.1252,0.1217,0.1417,0.1305,0.084,0.047,0.028,0.0327,0.0604,0.0975,0.1382,0.1752,0.203,0.2134,0.1975,0.1667,0.1379,0.1143,0.089,0.0569,0.0211,-0.025,-0.0591,-0.0777,-0.0681,-0.0739,-0.1046,-0.1214,-0.1038,0.0522,0.0621,0.0654,0.0651,0.0626,0.0549,0.0374,0.025,0,0.0341,0.1115,0.1247,0.1101,0.1343,0.1464,0.1563,0.1544,0.1667,0.1887,0.1686,0.1299,0.1101,0.1198,0.1588,0.212,0.2692,0.331,0.3895,0.4526,0.5002,0.5188,0.5037,0.4488,0.3538,0.2499,0.1722,0.1148,0.0659,0.0157,-0.0393,-0.0758,-0.0629,-0.039,-0.0385,-0.0538,-0.0634,0.0489,0.0577,0.0656,0.07,0.0709,0.0676,0.0651,0,-0.0055,0.031,0.1044,0.1335,0.1371,0.1406,0.1546,0.1678,0.2079,0.2313,0.2041,0.1785,0.1887,0.2351,0.2933,0.3579,0.4307,0.5068,0.5782,0.6455,0.7045,0.7468,0.7578,0.7309,0.6784,0.5971,0.4774,0.3444,0.2376,0.1689,0.1115,0.0467,-0.0047,-0.0203,-0.0066,0.0033,0.0027,0.008]},{"header":{"parameterUnit":"m.s-1","parameterCategory":2,"la1":30.5641,"la2":29.4642,"lo1":-89.4342,"lo2":-87.9343,"dy":0.0333,"dx":0.0333,"nx":46,"ny":34,"refTime":"2024-04-01T00:00:00:Z","depth":"6","parameterNumber":3,"parameterNumberName":"V-component_of_CURRENTS"},"data":[0,0,0,0,0,0,0,0,0,0,0,0,0,0,0,0,0,0,0,0,0,0,0,0,0,0,0,0,0,0,0,0,0,0,0,0,0,0,0,0,0,-0.0547,-0.0742,-0.0799,-0.1151,0,0,0,0,0,0,0,0,0,0,0,0,0,0,0,0,0,0,0,0,0,0,0,0,0,0,0,0,0,0,0,0,0,0,0,0,0,0,0,0,0,0,-0.0695,-0.0651,-0.1041,-0.1291,0,0,0,0,0,0,0,0,0,0,0,0,0,0,0,0,0,0,0,0,0,0,0,0,0,0,0,0,0,0,0,0,0,0,0,0,0,0,0,0,0,0,-0.0791,-0.0588,-0.1192,-0.1343,0,0,0,0,0,0,0,0,0,0,0,0,0,0,0,0,0,0,0,0,0,0,0,0,0,0,0,0,0,0,0,0,0,0,0,0,0,0,0,0,0,0,-0.0665,-0.0706,-0.1354,-0.1382,0,0,0,0,0,0,0,0,0,0,0,0,0,0,0,0,0,0,0,0,0,0,0,0,0,0,0,0,0,0,0,0,0,0,0,0,0,0,0,0,0,-0.0799,-0.0643,-0.0945,-0.1439,-0.1357,0,0,0,0,0,0,0,0,0,0,0,0,0,0,0,0,0,0,0,0,0,0,0,0,0,0,0,0,0,0,0,0,0,0,0,0,0,0,0,0,0,-0.0912,-0.0775,-0.117,-0.1387,-0.1156,0,0,0,0,0,0,0,0,0,0,0,0,-0.0132,-0.0258,-0.0382,-0.0459,-0.0519,-0.0613,-0.0659,-0.0618,-0.125,0,0,0,0,0,0,0,0,0,0,0,0,-0.0464,-0.0319,-0.1077,0,0,0,0,0,-0.1335,-0.0975,-0.1409,-0.1316,-0.1005,0,0,0,0,0,0,0,0,0,-0.0813,-0.0775,-0.0409,-0.0173,-0.0203,-0.0299,-0.0363,-0.0442,-0.0536,-0.0478,-0.0363,-0.1148,-0.1016,-0.0563,-0.0154,-0.0082,-0.061,-0.1049,0,0,0,0,-0.0602,-0.0209,-0.0327,-0.0533,-0.1126,0,0,0,0,0,-0.192,-0.1231,-0.1497,-0.1637,-0.1165,0,0,0,0,-0.0838,-0.0486,-0.0398,-0.0808,-0.103,-0.0904,-0.0813,-0.0404,-0.0203,-0.0121,-0.0255,-0.0247,-0.0272,-0.0483,-0.036,-0.011,-0.1439,-0.1313,-0.0618,-0.0176,-0.0313,-0.0753,-0.0654,0.061,0.0538,-0.0887,-0.0797,-0.0558,-0.0426,-0.039,-0.0788,-0.1178,-0.07,-0.0879,-0.0588,0.0,0.0,-0.1052,-0.1917,-0.1725,-0.2019,-0.1354,0,0,0,-0.0827,-0.0967,-0.0717,-0.0629,-0.0843,-0.106,-0.097,-0.0426,-0.0198,-0.0096,-0.0264,-0.0387,-0.0211,0.0011,-0.0255,-0.0931,-0.0541,-0.22,-0.0813,-0.0332,-0.0107,-0.0277,-0.0448,-0.0135,0.0305,-0.0453,-0.1423,-0.1071,-0.047,-0.0604,-0.0887,-0.0851,-0.0607,-0.0349,-0.1329,-0.0871,0,0,0,-0.3442,-0.2293,-0.1041,-0.0681,0,0,-0.0939,-0.092,-0.0989,-0.0857,-0.0687,-0.0681,-0.0783,-0.0824,0,0,0,-0.0412,-0.0621,-0.0093,0.0102,0,-0.1354,-0.1255,-0.2733,0,0,0,0,0,0,0,-0.1846,-0.0986,-0.0673,-0.0217,-0.086,-0.1516,-0.1123,0,0,-0.1511,-0.1365,-0.1662,-0.1752,-0.0961,-0.217,-0.2881,0,0,0,-0.0461,-0.0926,-0.0972,-0.081,-0.0648,-0.0456,-0.0467,-0.0503,-0.0497,-0.0651,-0.0401,-0.0354,-0.0431,-0.0975,0,0,-0.0088,-0.095,-0.1483,-0.2499,-0.1107,-0.07,-0.1132,-0.1231,-0.0722,-0.0214,-0.15,-0.2296,0,0,0,-0.12,-0.1862,-0.1478,-0.1159,-0.0687,-0.1335,-0.15,-0.1612,-0.1555,-0.0915,0,-0.2373,-0.061,-0.0423,-0.0201,-0.0231,-0.1066,-0.0978,-0.0772,-0.0662,-0.0464,-0.0242,-0.0258,-0.0602,-0.0722,-0.042,-0.0341,-0.0431,-0.0898,-0.0319,-0.0266,-0.014,-0.053,-0.122,-0.1909,-0.1338,-0.114,-0.1145,-0.0857,-0.0602,-0.0566,-0.161,-0.2497,-0.1755,-0.1154,-0.0912,-0.0439,-0.1519,-0.198,-0.1588,-0.0942,-0.0887,-0.1329,-0.2109,-0.1956,-0.1088,-0.0975,-0.1914,-0.089,-0.0544,-0.0341,0,-0.1217,-0.1025,-0.0717,-0.0538,-0.0272,0,0,-0.1082,-0.0838,-0.042,-0.0341,-0.0376,-0.0492,-0.0299,-0.0264,-0.0195,-0.0379,-0.084,-0.1384,-0.1313,-0.1379,-0.1176,-0.0893,-0.0906,-0.1228,-0.1464,-0.2436,-0.1599,-0.0972,-0.0983,0.0387,-0.006,-0.1824,-0.198,-0.0802,-0.0401,-0.145,-0.2285,-0.2824,-0.1881,-0.1371,-0.1989,-0.1236,-0.0736,-0.0514,-0.053,-0.1057,-0.0637,-0.0316,-0.0168,0,0,0,-0.1192,-0.0964,-0.0428,-0.0379,-0.0396,-0.0426,-0.0332,-0.028,-0.0074,-0.0385,-0.0783,-0.1118,-0.075,-0.1121,-0.1316,-0.1217,-0.1104,-0.1063,-0.1239,-0.189,-0.1269,-0.0871,-0.0588,-0.0003,-0.0047,-0.1898,-0.2065,-0.0357,-0.0541,-0.1508,-0.237,-0.2975,-0.2129,-0.1675,-0.1884,-0.1415,-0.1173,-0.078,-0.0266,-0.0461,-0.0755,0,0,0,0,0,-0.1181,-0.0813,-0.039,-0.0352,-0.0357,-0.0481,-0.042,-0.0244,0.0607,-0.0214,-0.1101,-0.1472,-0.0547,-0.0571,-0.1038,-0.1335,-0.1346,-0.1044,-0.1198,-0.1412,-0.1041,-0.056,-0.0157,-0.0192,-0.0508,-0.1829,-0.1865,-0.0228,-0.0739,-0.1695,-0.2173,-0.2494,-0.1664,-0.109,-0.1398,-0.1494,-0.1395,-0.0931,0,0,-0.1101,0.0442,0.0371,-0.0492,0,0,-0.1011,-0.0497,-0.0346,-0.0327,-0.0266,-0.0379,-0.0332,-0.0044,0.0948,0,-0.0714,-0.1601,-0.0939,-0.0453,-0.0571,-0.0978,-0.1387,-0.117,-0.1101,-0.1025,-0.0725,-0.0453,-0.0288,-0.033,-0.0536,-0.114,-0.139,-0.0522,-0.0497,-0.1458,-0.2115,-0.2019,-0.1049,-0.0508,-0.1044,-0.1566,-0.1645,-0.1085,0,0,-0.0481,0.0349,0.0489,-0.0247,0.0,0.0,-0.1351,-0.0775,-0.0544,-0.0404,-0.028,-0.033,-0.0299,-0.0049,0.0316,-0.0113,0,-0.1384,-0.1288,-0.0637,-0.0481,-0.0613,-0.1181,-0.1291,-0.109,-0.092,-0.0687,-0.0533,-0.0404,-0.0423,-0.0464,-0.1027,-0.1217,-0.0846,-0.0742,-0.0981,-0.1909,-0.1936,-0.0983,-0.0632,-0.1025,-0.1274,-0.1645,-0.1192,0,0,0,0.0126,0.0316,0,0,0,-0.1783,-0.1079,-0.0764,-0.0453,-0.0313,-0.031,-0.0371,-0.0222,-0.0113,-0.0222,0,-0.12,-0.139,-0.0835,-0.0665,-0.0588,-0.0926,-0.1285,-0.1151,-0.0775,-0.0431,-0.0497,-0.0544,-0.0547,-0.0709,-0.128,-0.1395,-0.1332,-0.1313,-0.1198,-0.1535,-0.1813,-0.1148,-0.0981,-0.1033,-0.0953,-0.1121,-0.0942,0,0,0,0,0,0,0,-0.0711,-0.1198,-0.0799,-0.0742,-0.0538,-0.0412,-0.0407,-0.0407,-0.0195,-0.0201,-0.0321,0,-0.1134,-0.1288,-0.0931,-0.0857,-0.0835,-0.0945,-0.1294,-0.1239,-0.0678,-0.0415,-0.0678,-0.0722,-0.0832,-0.1129,-0.1406,-0.156,-0.1695,-0.1733,-0.1697,-0.1692,-0.184,-0.1406,-0.1423,-0.1329,-0.1063,-0.0948,-0.0906,0,0,0,0,0,0,-0.0467,-0.0725,-0.081,-0.0678,-0.0706,-0.064,-0.0519,-0.0593,-0.0478,-0.0442,-0.0132,-0.0154,0,-0.1008,-0.1165,-0.1046,-0.0931,-0.1118,-0.1239,-0.1478,-0.1362,-0.0832,-0.0629,-0.0604,-0.058,-0.0706,-0.0909,-0.1148,-0.1437,-0.1761,-0.2022,-0.212,-0.2085,-0.2173,-0.1991,-0.1923,-0.1744,-0.15,-0.1307,-0.1134,0,0,0,0,0,0,-0.0558,-0.0753,-0.0816,-0.0797,-0.0742,-0.0706,-0.061,-0.078,-0.0569,-0.081,0,0,0,-0.1008,-0.1148,-0.1198,-0.0972,-0.1187,-0.1417,-0.1607,-0.1458,-0.0997,-0.0632,-0.0407,-0.0467,-0.0574,-0.0717,-0.0901,-0.1184,-0.156,-0.203,-0.2368,-0.2464,-0.2475,-0.2456,-0.2318,-0.2068,-0.1846,-0.1703,-0.1423,0,0,0,0,0,0,-0.072,-0.0761,-0.0775,-0.0835,-0.0827,-0.0835,-0.0854,-0.0439,-0.0758,-0.0832,-0.0533,0,0,-0.1055,-0.1187,-0.1302,-0.1077,-0.1134,-0.1395,-0.1593,-0.1516,-0.1187,-0.081,-0.0618,-0.0555,-0.058,-0.064,-0.0802,-0.1082,-0.1415,-0.1829,-0.2307,-0.264,-0.2766,-0.2763,-0.2656,-0.2412,-0.2123,-0.1862,-0.1629,0,0,0,0,0,-0.0324,-0.0728,-0.0799,-0.0829,-0.0882,-0.0917,-0.0961,-0.1044,0,-0.095,-0.0753,-0.0569,0,0,-0.109,-0.1137,-0.1313,-0.1209,-0.1151,-0.1368,-0.1546,-0.1524,-0.1329,-0.1074,-0.0895,-0.0797,-0.0706,-0.0687,-0.0893,-0.1181,-0.1497,-0.1827,-0.2219,-0.2653,-0.2936,-0.3016,-0.2942,-0.2719,-0.2395,-0.2022,-0.17,0,-0.0434,0.0,-0.0464,0,-0.0162,-0.0843,-0.0901,-0.0893,-0.0904,-0.0956,-0.0994,-0.1003,-0.0802,-0.0928,-0.0722,-0.0571,0,-0.0648,-0.111,-0.1033,-0.1203,-0.1332,-0.131,-0.1453,-0.1555,-0.156,-0.1491,-0.1376,-0.1294,-0.1162,-0.1025,-0.0964,-0.0956,-0.1121,-0.1434,-0.1849,-0.2241,-0.2656,-0.2988,-0.3186,-0.317,-0.2939,-0.2585,-0.2211,-0.1865,0,-0.0492,0,-0.0368,-0.0346,0,-0.0983,-0.0948,-0.0904,-0.0934,-0.0981,-0.1022,-0.1025,-0.0906,-0.0898,-0.078,-0.0266,0,-0.0797,-0.0961,-0.0931,-0.109,-0.1456,-0.1566,-0.1656,-0.1719,-0.1777,-0.1854,-0.1816,-0.1664,-0.1475,-0.1184,-0.0937,-0.0846,-0.0879,-0.1159,-0.1645,-0.2123,-0.2552,-0.2881,-0.3159,-0.3345,-0.3137,-0.2683,-0.2321,-0.2046,0,-0.0382,-0.0352,-0.0365,-0.0382,-0.047,-0.092,-0.0904,-0.0923,-0.0994,-0.1082,-0.1173,-0.1228,-0.1211,-0.1129,-0.042,0,-0.0439,-0.0797,-0.0764,-0.0846,-0.1025,-0.1607,-0.1785,-0.198,-0.2118,-0.2145,-0.2065,-0.1873,-0.1571,-0.1274,-0.0983,-0.0813,-0.0884,-0.0926,-0.0901,-0.1225,-0.1945,-0.2425,-0.2793,-0.3027,-0.3321,-0.3376,-0.2865,-0.2346,-0.2057,-0.0376,-0.0266,-0.0365,-0.0434,-0.0426,-0.0516,-0.0821,-0.0846,-0.0948,-0.1074,-0.1225,-0.1409,-0.1632,-0.1859,-0.0648,0,-0.0027,-0.0374,-0.0599,-0.0678,-0.0813,-0.1041,-0.1805,-0.2093,-0.228,-0.2263,-0.2115,-0.1799,-0.145,-0.1071,-0.0895,-0.0884,-0.0997,-0.1228,-0.1458,-0.1283,-0.1011,-0.1596,-0.2357,-0.2804,-0.3016,-0.3183,-0.3406,-0.3117,-0.234,-0.1914,-0.0368,-0.0321,-0.0352,-0.0393,-0.045,-0.0618,-0.0731,-0.0843,-0.0983,-0.1143,-0.1335,-0.1571,-0.1958,-0.2598,0,0.0404,-0.0014,-0.0319,-0.0503,-0.0667,-0.0904,-0.1373,-0.2093,-0.2261,-0.2145,-0.1942,-0.1711,-0.1321,-0.1,-0.0797,-0.0725,-0.0772,-0.0926,-0.1252,-0.1714,-0.1857,-0.1404,-0.125,-0.2148,-0.2878,-0.3203,-0.3142,-0.3241,-0.3181,-0.2354,-0.1802,-0.0363,-0.0316,-0.0308,-0.0371,-0.0494,-0.0659,-0.0717,-0.0851,-0.0992,-0.1154,-0.134,-0.1464,-0.1942,-0.2445,-0.0772,0.0008,-0.0151,-0.0291,-0.05,-0.0821,-0.1266,-0.1906,-0.2313,-0.2164,-0.1903,-0.1648,-0.1329,-0.0964,-0.0695,-0.0514,-0.0371,-0.0291,-0.033,-0.0665,-0.1362,-0.1961,-0.1843,-0.1382,-0.1821,-0.2887,-0.351,-0.3469,-0.3137,-0.3049,-0.2477,-0.1758,-0.0346,-0.0302,-0.0335,-0.042,-0.0508,-0.058,-0.067,-0.0753,-0.0923,-0.1211,-0.1343,-0.0662,-0.2,-0.1876,-0.0937,-0.0497,-0.0313,-0.0431,-0.0736,-0.1241,-0.1857,-0.2321,-0.2285,-0.1986,-0.1645,-0.1296,-0.0989,-0.0753,-0.0563,-0.0374,-0.0173,0.0016,0.0132,0.0022,-0.0569,-0.142,-0.189,-0.1675,-0.1656,-0.2716,-0.3746,-0.4013,-0.3521,-0.3063,-0.2565,-0.175,-0.0357,-0.0338,-0.0385,-0.0459,-0.0478,-0.0503,-0.0549,-0.0376,-0.0431,-0.1747,-0.1912,0,-0.1653,-0.15,-0.1,-0.0599,-0.0552,-0.0816,-0.1244,-0.1857,-0.2252,-0.2228,-0.1969,-0.1604,-0.1239,-0.0994,-0.0788,-0.0604,-0.0481,-0.0439,-0.0464,-0.047,-0.036,-0.0132,-0.0195,-0.0764,-0.1453,-0.1681,-0.1678,-0.231,-0.3453,-0.4106,-0.3961,-0.3258,-0.2453,-0.175,-0.0407,-0.0379,-0.0409,-0.0456,-0.0505,-0.0607,-0.0739,-0.0047,0,-0.1887,-0.2024,-0.0783,-0.1038,-0.1063,-0.0805,-0.0742,-0.0942,-0.1302,-0.1769,-0.2016,-0.1914,-0.1637,-0.1313,-0.1025,-0.0769,-0.0489,-0.0187,-0.0025,-0.0016,-0.0222,-0.0591,-0.0978,-0.1231,-0.1283,-0.1008,-0.086,-0.1071,-0.1404,-0.1612,-0.2,-0.2835,-0.3601,-0.3801,-0.3351,-0.2557,-0.1849,-0.0426,-0.0428,-0.0434,-0.0483,-0.0588,-0.0808,-0.1335,0,0.0203,-0.111,-0.1288,-0.0797,-0.0851,-0.0758,-0.0805,-0.1025,-0.1217,-0.1461,-0.1579,-0.1453,-0.1137,-0.0816,-0.0519,-0.0135,0.0294,0.0706,0.0928,0.0975,0.0786,0.036,-0.0247,-0.0939,-0.1563,-0.2068,-0.2192,-0.1947,-0.167,-0.1439,-0.1612,-0.1936,-0.2398,-0.2878,-0.3076,-0.2854,-0.2285,-0.1678]}],[{"header":{"parameterUnit":"m.s-1","parameterCategory":2,"la1":30.5641,"la2":29.4642,"lo1":-89.4342,"lo2":-87.9343,"dy":0.0333,"dx":0.0333,"nx":46,"ny":34,"refTime":"2024-04-01T00:00:00:Z","depth":"8","parameterNumber":2,"parameterNumberName":"U-component_of_CURRENTS"},"data":[0,0,0,0,0,0,0,0,0,0,0,0,0,0,0,0,0,0,0,0,0,0,0,0,0,0,0,0,0,0,0,0,0,0,0,0,0,0,0,0,0,0.0385,0.0709,0.056,0.0324,0,0,0,0,0,0,0,0,0,0,0,0,0,0,0,0,0,0,0,0,0,0,0,0,0,0,0,0,0,0,0,0,0,0,0,0,0,0,0,0,0,0,0.019,0.0401,0.0437,0.0319,0,0,0,0,0,0,0,0,0,0,0,0,0,0,0,0,0,0,0,0,0,0,0,0,0,0,0,0,0,0,0,0,0,0,0,0,0,0,0,0,0,0,0.0319,0.064,0.0585,0.0313,0,0,0,0,0,0,0,0,0,0,0,0,0,0,0,0,0,0,0,0,0,0,0,0,0,0,0,0,0,0,0,0,0,0,0,0,0,0,0,0,0,0,0.0753,0.0678,0.0563,0.0286,0,0,0,0,0,0,0,0,0,0,0,0,0,0,0,0,0,0,0,0,0,0,0,0,0,0,0,0,0,0,0,0,0,0,0,0,0,0,0,0,0,0.014,0.0376,0.0492,0.0472,0.0225,0,0,0,0,0,0,0,0,0,0,0,0,0,0,0,0,0,0,0,0,0,0,0,0,0,0,0,0,0,0,0,0,0,0,0,0,0,0,0,0,0,0.0168,0.0365,0.0327,0.0242,0.022,0,0,0,0,0,0,0,0,0,0,0,0,0.0209,0.0489,0.0596,0.0645,0.0645,0.061,0.0596,0.0615,0.0623,0,0,0,0,0,0,0,0,0,0,0,0,0.0305,0.0689,0.0766,0,0,0,0,0,0.0129,0.036,0.0385,0.0222,0.0154,0,0,0,0,0,0,0,0,0,0.0272,0.0335,0.0365,0.0613,0.0615,0.0599,0.0593,0.061,0.0623,0.0615,0.072,0.1,0.0975,0.0703,0.067,0.0827,0.0992,0.1052,0,0,0,0,0.0151,0.031,0.0415,0.0505,0.0494,0,0,0,0,0,0.0181,0.0533,0.0591,0.0363,0.0211,0,0,0,0,0.022,0.0291,0.0179,0.028,0.0437,0.056,0.0481,0.0316,0.0357,0.0527,0.0602,0.0621,0.0662,0.0728,0.0753,0.1049,0.1258,0.1145,0.1055,0.0879,0.0876,0.0895,0.0953,0.0948,0.0843,0.0876,0.0912,0.0879,0.0604,0.0492,0.0673,0.0231,-0.0244,-0.0173,-0.0376,-0.0733,-0.0838,-0.0275,0.061,0.0475,0.0118,0.0239,0,0,0,0.0195,0.0357,0.0313,0.0253,0.0222,0.0176,0.0135,0.033,0.053,0.058,0.0591,0.0558,0.0577,0.0733,0.0959,0.0959,0.1156,0.1178,0.0972,0.1041,0.0868,0.0695,0.0739,0.0882,0.1214,0.1489,0.1181,0.0758,0.0695,0.0662,0.078,0.106,0.1104,0.0862,0.0439,0.0192,0,0,0,0.019,-0.0571,-0.0939,-0.0047,0,0,0.0217,0.0415,0.042,0.0396,0.0299,0.0253,0.0294,0.0332,0,0,0,0.0107,0.0179,0.0228,0.0313,0,0.0041,0.0516,0.0953,0,0,0,0,0,0,0,0.0181,0.0667,0.0901,0.0942,0.1082,0.0989,0.0862,0,0,0.0154,0.0041,-0.0066,0.0016,-0.0472,0.0003,0.0895,0,0,0,0.0198,0.0382,0.0409,0.0445,0.0407,0.0374,0.0321,0.0448,0.0744,0.0711,0.0486,0.0294,0.025,0.0346,0,0,-0.0159,-0.0283,0.0247,0.0937,0.1398,0.1195,0.0876,0.1046,0.1453,0.1818,0.0816,0.0313,0,0,0,0.0744,0.1118,0.0332,0.0409,0.0574,0.109,0.0709,0.0396,0.0343,0.0354,0,0.0063,-0.0005,-0.0118,-0.0209,0.0637,0.0494,0.033,0.0319,0.0236,0.0258,0.0615,0.1025,0.0931,0.0514,0.0236,0.022,0.0407,0.0851,0.1118,0.1008,0.0747,0.0404,0.0357,0.0802,0.1263,0.122,0.1011,0.0799,0.0681,0.061,0.0591,0.058,0.0514,0.0242,-0.0445,0.0475,0.1426,0.1079,0.0662,0.0706,0.1129,0.1475,0.1351,0.0945,0.0538,0.0835,0.0678,0.0137,0.0211,0.0288,0,0.011,0.022,0.0239,0.0231,0.0203,0,0,0.0104,0.0195,0.0192,0.0217,0.0277,0.0467,0.0722,0.0934,0.1049,0.0871,0.0596,0.0684,0.0978,0.1214,0.139,0.1236,0.1088,0.1055,0.0964,0.0879,0.0843,0.0879,0.0582,0.0335,0.07,0.0956,0.0764,0.067,0.0766,0.0654,0.0651,0.0937,0.0967,0.0879,0.0623,0.036,0.031,0.0324,0.0525,0.0428,0.0214,0.014,0.0179,0,0,0,0.0033,-0.0005,0.0019,0.019,0.0294,0.0341,0.0379,0.0585,0.0992,0.117,0.0931,0.0733,0.1143,0.1667,0.1706,0.1538,0.1365,0.1324,0.122,0.1112,0.0945,0.0659,0.0648,0.0497,0.07,0.1057,0.0623,0.0349,-0.0022,-0.0525,-0.0439,0.0272,0.0772,0.0915,0.0994,0.0849,0.0623,0.0538,0.0118,0.0299,0.0363,0,0,0,0,0,0.0085,0.0055,-0.0121,-0.0016,0.025,0.036,0.0327,0.0387,0.0961,0.1544,0.1349,0.0857,0.109,0.1678,0.1785,0.1728,0.153,0.1398,0.1362,0.1346,0.1283,0.1247,0.0967,0.0085,-0.0162,0.0179,0.025,0.0151,0.0055,-0.0093,-0.017,0.0088,0.05,0.0942,0.1209,0.1156,0.0882,0.0571,0,0,0.022,0.0475,0.0442,0.0374,0,0,0.0187,0.0291,0.0003,-0.0115,0.0033,0.0121,0.0192,0.017,0.011,0,0.0371,0.0492,0.0709,0.1143,0.134,0.1601,0.1601,0.15,0.1469,0.1486,0.1415,0.1252,0.1112,0.0654,-0.0165,-0.014,0.036,0.0214,0.0184,0.042,0.0437,0.0277,0.0093,-0.0157,0.0055,0.0549,0.0522,0.0247,0,0,0.0069,0.0069,-0.0003,0.0423,0.1145,0.1447,0.0997,0.039,0.0088,-0.0071,-0.0071,-0.0071,-0.0052,-0.0126,-0.033,-0.0434,0,-0.011,-0.0058,0.0555,0.0681,0.0939,0.1214,0.131,0.1299,0.1272,0.1258,0.1247,0.1178,0.1044,0.0494,0.0187,0.053,0.05,0.0294,0.0478,0.0602,0.0393,-0.0179,-0.0843,-0.0895,-0.0695,-0.064,-0.0527,0,0,0,-0.0069,-0.0137,0,0,0,-0.006,-0.0085,-0.0096,-0.0146,-0.0148,-0.0151,-0.0168,-0.0239,-0.028,-0.0258,0,-0.0187,-0.0341,0.017,0.0192,0.0338,0.0423,0.0489,0.0599,0.0758,0.0879,0.0898,0.0865,0.0689,0.0291,-0.0088,0.003,0.0305,0.022,0.0217,0.0489,0.0483,-0.022,-0.1044,-0.1255,-0.1057,-0.0709,-0.0428,0,0,0,0,0,0,0,-0.031,-0.0431,-0.0255,-0.0258,-0.0253,-0.022,-0.0198,-0.0242,-0.0297,-0.0168,-0.0022,0,-0.0206,-0.0426,-0.0077,-0.011,-0.011,-0.014,-0.0231,-0.0244,0.0044,0.0077,-0.0357,-0.0525,-0.0522,-0.0503,-0.0338,-0.0082,0.0129,0.0239,0.014,0.0124,0.0294,-0.0025,-0.0678,-0.1014,-0.1049,-0.0986,-0.0904,0,0,0,0,0,0,-0.0063,-0.0261,-0.0379,-0.0354,-0.0321,-0.0297,-0.0236,-0.0211,-0.0277,-0.036,-0.0264,-0.0121,0,-0.0203,-0.0448,-0.0305,-0.0206,-0.031,-0.0321,-0.0396,-0.058,-0.0722,-0.0819,-0.0783,-0.0632,-0.0563,-0.0461,-0.036,-0.0343,-0.0294,-0.0041,0.0233,0.0258,0.0148,-0.0019,-0.0291,-0.0538,-0.0582,-0.056,-0.0692,0,0,0,0,0,0,0.0019,-0.0063,-0.0255,-0.0352,-0.0332,-0.0313,-0.0231,-0.0181,-0.0135,-0.0055,0,0,0,-0.0184,-0.0486,-0.0398,-0.0085,-0.0239,-0.0291,-0.0368,-0.0566,-0.0786,-0.0662,-0.0516,-0.0602,-0.0698,-0.0651,-0.0574,-0.05,-0.0486,-0.0426,-0.0179,0.019,0.0363,0.0151,-0.0168,-0.036,-0.0417,-0.036,-0.0272,0,0,0,0,0,0,0.0058,0.0069,-0.0088,-0.0244,-0.0291,-0.0291,-0.0341,-0.0118,0.0102,0.0162,0.0272,0,0,-0.019,-0.0552,-0.0525,-0.0041,-0.0124,-0.0225,-0.0363,-0.0327,-0.045,-0.0357,-0.0481,-0.053,-0.0596,-0.0648,-0.0558,-0.0461,-0.0396,-0.036,-0.0297,-0.0096,0.0275,0.0486,0.0261,-0.0206,-0.0464,-0.0505,-0.047,0,0,0,0,0,-0.0192,-0.0099,0.0146,0.0022,-0.0099,-0.0146,-0.0137,-0.0124,0,-0.0008,0.0016,0.0049,0,0,-0.022,-0.0698,-0.0486,-0.0025,0.0,-0.0143,-0.0294,-0.0266,-0.0242,-0.0341,-0.0382,-0.0497,-0.0654,-0.0626,-0.0558,-0.0434,-0.031,-0.0266,-0.0242,-0.0173,0.0049,0.0431,0.0621,0.036,-0.0132,-0.0483,-0.0621,0,-0.0085,0.0115,0.0195,0,0.0016,0.0195,0.0247,0.0069,-0.0005,-0.0019,-0.0025,0.0025,-0.0069,-0.0184,-0.0102,-0.0052,0,-0.0102,-0.0368,-0.0761,-0.0349,0.0036,0.0082,-0.0055,-0.0173,-0.022,-0.0272,-0.0376,-0.0321,-0.0481,-0.0464,-0.0434,-0.0522,-0.0558,-0.0404,-0.0233,-0.0192,-0.017,-0.006,0.0214,0.0615,0.0775,0.0511,0.0066,-0.0288,0,0.019,0,0.0044,0.0088,0,0.0099,0.0146,0.0066,0.0055,0.0071,0.0049,0.0,-0.0124,-0.022,-0.0255,-0.0288,0,-0.0093,-0.0294,-0.039,-0.0124,0.014,0.0025,-0.0041,-0.0159,-0.0253,-0.0286,-0.0341,-0.0332,-0.0099,0.0231,0.0508,0.0538,0.0242,-0.0146,-0.0286,-0.0225,-0.0159,-0.0099,0.0027,0.0338,0.0747,0.0887,0.0623,0.0225,0,-0.0052,0.0069,0.0258,0.0225,0.0135,0.0137,0.0137,0.0102,0.0129,0.0146,0.0091,-0.006,-0.0159,-0.0299,-0.0442,0,-0.0058,-0.0096,-0.0041,-0.0049,0.0022,0.022,-0.0132,-0.0472,-0.0555,-0.0558,-0.0533,-0.0398,0.0038,0.0555,0.103,0.1357,0.1571,0.1502,0.0893,0.0135,-0.025,-0.0288,-0.0201,-0.0118,0.0022,0.0379,0.0783,0.0838,0.0563,0.0335,0.0195,0.0148,0.0275,0.0297,0.0266,0.0162,0.0091,0.0157,0.0242,0.0242,0.0159,-0.0058,-0.0396,-0.058,0,0.0071,0.0132,0.0096,0.0104,0.0085,0.0192,0.0492,-0.0044,-0.0417,-0.053,-0.0415,-0.0242,0.0137,0.0681,0.1077,0.1296,0.1437,0.1601,0.1857,0.1805,0.1025,0.0082,-0.039,-0.0428,-0.0294,-0.0206,-0.008,0.0283,0.0591,0.0538,0.0148,0.0305,0.0349,0.0349,0.0368,0.031,0.0181,0.0179,0.0302,0.0398,0.0412,0.0412,0.0453,0.0481,0,0.0198,0.0407,0.0302,0.0187,0.0126,0.0096,0.0313,0.0747,0.0582,0.0233,0.0179,0.0129,0.0201,0.0437,0.0632,0.0717,0.0788,0.0915,0.1115,0.1453,0.1799,0.1596,0.0662,-0.0266,-0.067,-0.0596,-0.0426,-0.0415,-0.0288,-0.0077,-0.0069,0.031,0.0382,0.0428,0.0456,0.0434,0.0332,0.0253,0.031,0.0459,0.058,0.0632,0.0788,0.1118,0.1692,0.1824,0.1291,0.0761,0.0407,0.0275,0.0283,0.0343,0.0494,0.0799,0.0733,0.0456,0.0297,0.0154,0.0099,0.0093,0.0096,0.0151,0.0264,0.0437,0.0659,0.0975,0.1404,0.1659,0.1189,0.0121,-0.0722,-0.0931,-0.0764,-0.0689,-0.072,-0.0651,-0.0684,0.0374,0.0464,0.0508,0.0519,0.05,0.0439,0.0393,0.0481,0.0665,0.0766,0.0772,0.1209,0.1557,0.159,0.1571,0.1192,0.0797,0.0593,0.0577,0.0596,0.0637,0.0819,0.0901,0.0558,0.0266,0.0033,-0.0077,-0.0016,0.0151,0.0349,0.0472,0.0467,0.0442,0.0511,0.0717,0.1052,0.1412,0.1456,0.0706,-0.0489,-0.1225,-0.1299,-0.1066,-0.0917,-0.0912,-0.086,0.0434,0.0511,0.0544,0.0566,0.0563,0.053,0.0516,0.072,0.1176,0.1115,0.0794,0,0.0407,0.1025,0.1178,0.103,0.092,0.0865,0.0871,0.0981,0.117,0.1189,0.0808,0.0448,0.0255,0.0423,0.089,0.1461,0.2035,0.2469,0.2579,0.2263,0.1692,0.1233,0.1049,0.1071,0.125,0.1434,0.1112,0.0025,-0.1088,-0.1483,-0.1406,-0.1316,-0.1277,-0.111,0.0439,0.0525,0.058,0.0599,0.058,0.0505,0.0354,0.0255,0,0.028,0.0923,0.1025,0.0882,0.1033,0.1025,0.1068,0.1066,0.1148,0.1357,0.1618,0.153,0.1192,0.1096,0.1382,0.2019,0.2796,0.3598,0.4403,0.5153,0.5782,0.6188,0.6191,0.5493,0.4005,0.2475,0.175,0.1566,0.1555,0.1437,0.0689,-0.0569,-0.1338,-0.153,-0.1469,-0.1266,-0.0983,0.0434,0.0519,0.0602,0.0643,0.0643,0.0607,0.0585,0,-0.0113,0.0151,0.0791,0.103,0.1035,0.097,0.1063,0.1115,0.1338,0.1761,0.1986,0.1758,0.1673,0.2093,0.2887,0.3757,0.4587,0.5425,0.6254,0.7012,0.7658,0.816,0.8504,0.8693,0.8605,0.7836,0.6172,0.4197,0.2785,0.2175,0.2005,0.1785,0.1093,0.0036,-0.0481,-0.042,-0.0154,0.0203]},{"header":{"parameterUnit":"m.s-1","parameterCategory":2,"la1":30.5641,"la2":29.4642,"lo1":-89.4342,"lo2":-87.9343,"dy":0.0333,"dx":0.0333,"nx":46,"ny":34,"refTime":"2024-04-01T00:00:00:Z","depth":"8","parameterNumber":3,"parameterNumberName":"V-component_of_CURRENTS"},"data":[0,0,0,0,0,0,0,0,0,0,0,0,0,0,0,0,0,0,0,0,0,0,0,0,0,0,0,0,0,0,0,0,0,0,0,0,0,0,0,0,0,0.0316,0.0088,0.0143,0.0448,0,0,0,0,0,0,0,0,0,0,0,0,0,0,0,0,0,0,0,0,0,0,0,0,0,0,0,0,0,0,0,0,0,0,0,0,0,0,0,0,0,0,0.0255,0.0011,-0.003,0.0352,0,0,0,0,0,0,0,0,0,0,0,0,0,0,0,0,0,0,0,0,0,0,0,0,0,0,0,0,0,0,0,0,0,0,0,0,0,0,0,0,0,0,0.025,-0.0022,-0.0184,0.0217,0,0,0,0,0,0,0,0,0,0,0,0,0,0,0,0,0,0,0,0,0,0,0,0,0,0,0,0,0,0,0,0,0,0,0,0,0,0,0,0,0,0,0.0146,-0.0201,-0.0349,0.0082,0,0,0,0,0,0,0,0,0,0,0,0,0,0,0,0,0,0,0,0,0,0,0,0,0,0,0,0,0,0,0,0,0,0,0,0,0,0,0,0,0,0.0115,-0.0033,-0.0368,-0.045,-0.0104,0,0,0,0,0,0,0,0,0,0,0,0,0,0,0,0,0,0,0,0,0,0,0,0,0,0,0,0,0,0,0,0,0,0,0,0,0,0,0,0,0,-0.0044,-0.0044,-0.0385,-0.0464,-0.0327,0,0,0,0,0,0,0,0,0,0,0,0,-0.0146,-0.0258,-0.0379,-0.045,-0.0486,-0.0544,-0.0538,-0.0577,-0.1005,0,0,0,0,0,0,0,0,0,0,0,0,-0.0225,-0.0698,-0.0714,0,0,0,0,0,-0.0181,-0.0104,-0.036,-0.0481,-0.0525,0,0,0,0,0,0,0,0,0,-0.0201,-0.0426,-0.0508,-0.0231,-0.0214,-0.0338,-0.0398,-0.0442,-0.0453,-0.0401,-0.0244,-0.0736,-0.0269,0.0121,0.0113,0.0033,-0.0211,0.0159,0,0,0,0,0.0277,-0.0011,-0.0258,-0.0758,-0.0461,0,0,0,0,0,-0.0308,-0.0387,-0.0599,-0.0591,-0.0604,0,0,0,0,-0.0434,-0.0588,-0.0538,-0.0456,-0.0618,-0.0387,-0.0371,-0.0393,-0.0277,-0.0135,-0.0277,-0.0269,-0.0258,-0.0291,-0.0321,-0.0143,-0.0689,-0.033,-0.0126,-0.0107,-0.0033,-0.0102,0.0085,0.0179,0.008,-0.0385,-0.0176,0.0129,-0.0038,-0.0299,-0.0819,-0.0563,-0.0143,0.0027,-0.0069,0.0,0.0,-0.0173,-0.0884,-0.0791,-0.0519,-0.0607,0,0,0,-0.0286,-0.05,-0.0613,-0.0549,-0.0527,-0.0629,-0.0634,-0.0159,-0.0137,-0.0121,-0.0283,-0.0357,-0.0195,0.0,-0.011,-0.0728,-0.0676,-0.1022,-0.0195,-0.019,-0.0168,-0.0049,0.0003,0.0008,0.0088,-0.0725,-0.0588,-0.0299,-0.0066,-0.0143,-0.0404,-0.0489,-0.0461,-0.0071,-0.0003,-0.0047,0,0,0,-0.1316,-0.092,-0.0192,-0.0316,0,0,-0.0299,-0.0398,-0.0613,-0.0613,-0.0516,-0.0511,-0.0505,-0.0629,0,0,0,-0.0475,-0.0569,-0.0099,0.0058,0,-0.0953,-0.0926,-0.1112,0,0,0,0,0,0,0,-0.156,-0.0396,-0.0211,-0.0055,0.0008,-0.05,-0.0209,0,0,0.022,-0.0203,-0.0591,-0.0725,-0.0775,-0.0733,-0.1107,0,0,0,-0.0209,-0.042,-0.0574,-0.0632,-0.0511,-0.0415,-0.0428,-0.042,-0.0481,-0.0585,-0.0522,-0.0492,-0.0519,-0.0835,0,0,-0.0019,-0.0673,-0.0854,-0.0934,-0.0824,-0.0986,-0.0547,-0.0585,-0.0387,-0.0467,-0.0398,-0.1241,0,0,0,-0.0363,-0.0582,-0.0319,-0.0527,-0.042,-0.0203,-0.0508,-0.0511,-0.0604,-0.0549,0,-0.0637,-0.0148,-0.0508,-0.0374,-0.0104,-0.0643,-0.0684,-0.0593,-0.0434,-0.0308,-0.0217,-0.0233,-0.0613,-0.0654,-0.0588,-0.0596,-0.0621,-0.0816,-0.0299,-0.0244,-0.0093,-0.0453,-0.0709,-0.0967,-0.1129,-0.0997,-0.0816,-0.0827,-0.0552,-0.0582,-0.1035,-0.1335,-0.1019,-0.095,-0.0832,-0.0956,-0.1447,-0.1607,-0.1019,-0.0945,-0.0843,-0.1228,-0.125,-0.0681,-0.0428,-0.0461,-0.0558,-0.056,-0.0464,-0.0308,0,-0.0676,-0.0687,-0.0538,-0.0374,-0.0126,0,0,-0.0876,-0.0764,-0.0673,-0.0676,-0.0648,-0.0618,-0.0404,-0.0283,-0.0165,-0.0324,-0.0623,-0.109,-0.1502,-0.148,-0.136,-0.1123,-0.0895,-0.0983,-0.128,-0.1659,-0.1357,-0.1107,-0.1046,-0.0022,-0.086,-0.1673,-0.1442,-0.1068,-0.0593,-0.1332,-0.1741,-0.1255,-0.0805,-0.0736,-0.1019,-0.0695,-0.0434,-0.0321,-0.0648,-0.0593,-0.0492,-0.0247,-0.0157,0,0,0,-0.0832,-0.0722,-0.0692,-0.0623,-0.053,-0.0483,-0.0401,-0.0302,-0.0099,-0.0291,-0.0618,-0.1027,-0.1231,-0.1412,-0.1632,-0.1582,-0.1395,-0.1266,-0.128,-0.1656,-0.1516,-0.1231,-0.1027,0.0154,-0.0486,-0.161,-0.1752,-0.0764,-0.0511,-0.1332,-0.2041,-0.1695,-0.1121,-0.1079,-0.111,-0.0755,-0.0541,-0.039,-0.0324,-0.0286,-0.0566,0,0,0,0,0,-0.0698,-0.0599,-0.0651,-0.0558,-0.0459,-0.0404,-0.0288,-0.0192,0.0261,-0.0162,-0.0876,-0.1005,-0.1093,-0.1123,-0.1302,-0.1535,-0.1585,-0.1409,-0.1302,-0.1574,-0.1684,-0.1464,-0.0808,-0.0049,-0.0659,-0.1785,-0.2044,-0.0816,-0.0898,-0.1541,-0.1961,-0.1769,-0.125,-0.1049,-0.1115,-0.0978,-0.0862,-0.0764,0,0,-0.0676,-0.0151,0.0247,0.0129,0,0,-0.0505,-0.0522,-0.053,-0.0494,-0.0494,-0.047,-0.0319,-0.0047,0.047,0,-0.056,-0.1093,-0.1296,-0.1003,-0.0978,-0.1294,-0.1357,-0.122,-0.1225,-0.1412,-0.1478,-0.125,-0.0882,-0.0385,-0.0489,-0.1541,-0.187,-0.1035,-0.1038,-0.1772,-0.2027,-0.187,-0.1143,-0.0651,-0.1222,-0.1513,-0.1228,-0.1079,0,0,-0.0277,-0.0239,0.0096,0.0063,0.0,0.0,-0.0728,-0.058,-0.0494,-0.0481,-0.0492,-0.0445,-0.0338,-0.0055,0.0146,-0.0382,0,-0.0994,-0.1115,-0.0937,-0.0805,-0.1162,-0.114,-0.0906,-0.1025,-0.1252,-0.1258,-0.1123,-0.0942,-0.0722,-0.0467,-0.1041,-0.1338,-0.0983,-0.1068,-0.1689,-0.2123,-0.2112,-0.114,-0.0654,-0.1368,-0.1956,-0.1368,-0.1126,0,0,0,-0.0165,-0.0027,0,0,0,-0.0986,-0.0654,-0.0522,-0.0461,-0.0431,-0.0387,-0.031,-0.0113,-0.0143,-0.0393,0,-0.0777,-0.0747,-0.0703,-0.0731,-0.1217,-0.1173,-0.0813,-0.0772,-0.0912,-0.1025,-0.0945,-0.086,-0.0703,-0.0591,-0.1005,-0.1404,-0.1231,-0.1198,-0.1445,-0.189,-0.2164,-0.1236,-0.0871,-0.1266,-0.136,-0.1162,-0.0862,0,0,0,0,0,0,0,-0.042,-0.0645,-0.0494,-0.0426,-0.039,-0.0387,-0.0382,-0.0288,-0.0151,-0.022,-0.0365,0,-0.0714,-0.0637,-0.0648,-0.0659,-0.1324,-0.1318,-0.0928,-0.0618,-0.0478,-0.0709,-0.0667,-0.0824,-0.0898,-0.1132,-0.1538,-0.1838,-0.1857,-0.1747,-0.1744,-0.1887,-0.1945,-0.1302,-0.109,-0.1239,-0.1184,-0.1038,-0.0898,0,0,0,0,0,0,-0.0417,-0.0382,-0.0409,-0.039,-0.0376,-0.0379,-0.0415,-0.042,-0.0365,-0.0409,-0.0129,-0.0165,0,-0.0755,-0.0645,-0.0711,-0.0711,-0.1393,-0.1475,-0.1079,-0.0599,-0.0404,-0.0733,-0.078,-0.0997,-0.1165,-0.1327,-0.1511,-0.1675,-0.1901,-0.2019,-0.2096,-0.2192,-0.2107,-0.161,-0.1371,-0.1373,-0.1453,-0.1395,-0.1291,0,0,0,0,0,0,-0.0492,-0.0456,-0.0472,-0.047,-0.0478,-0.0478,-0.0503,-0.0503,-0.0547,-0.07,0,0,0,-0.0791,-0.0678,-0.0695,-0.0835,-0.1362,-0.1469,-0.1255,-0.0824,-0.0634,-0.0909,-0.0843,-0.0926,-0.0849,-0.0865,-0.0975,-0.1209,-0.1535,-0.1868,-0.2142,-0.2384,-0.2477,-0.2239,-0.1923,-0.1634,-0.1549,-0.1659,-0.1645,0,0,0,0,0,0,-0.0615,-0.0607,-0.0588,-0.0569,-0.0602,-0.0626,-0.0687,-0.0275,-0.0731,-0.0753,-0.0533,0,0,-0.0797,-0.0711,-0.0618,-0.0961,-0.1338,-0.1349,-0.1305,-0.1129,-0.0865,-0.1003,-0.0808,-0.0678,-0.0544,-0.0475,-0.0547,-0.0777,-0.1126,-0.1555,-0.1945,-0.2288,-0.2593,-0.2697,-0.2532,-0.2164,-0.1818,-0.1741,-0.1755,0,0,0,0,0,-0.025,-0.0582,-0.067,-0.067,-0.0667,-0.07,-0.075,-0.0829,0,-0.0838,-0.0709,-0.0571,0,0,-0.0854,-0.0744,-0.0555,-0.1057,-0.1357,-0.1376,-0.1362,-0.1313,-0.1033,-0.0992,-0.0766,-0.0618,-0.0417,-0.0313,-0.0341,-0.0527,-0.0882,-0.1338,-0.1794,-0.214,-0.2469,-0.276,-0.2865,-0.267,-0.2282,-0.1953,-0.1774,0,-0.0396,0.0,-0.0448,0,-0.0124,-0.0659,-0.0736,-0.0731,-0.0742,-0.0772,-0.081,-0.0846,-0.0714,-0.0802,-0.0687,-0.0574,0,-0.0602,-0.0791,-0.0717,-0.0516,-0.1126,-0.1467,-0.1563,-0.1563,-0.1494,-0.131,-0.1167,-0.1022,-0.081,-0.0596,-0.0511,-0.0464,-0.047,-0.0665,-0.1079,-0.1566,-0.203,-0.2354,-0.2656,-0.292,-0.2914,-0.2623,-0.2244,-0.1931,0,-0.0423,0,-0.0349,-0.0297,0,-0.081,-0.0777,-0.0766,-0.0788,-0.0832,-0.0873,-0.0887,-0.0783,-0.0805,-0.0717,-0.0269,0,-0.0703,-0.0775,-0.0711,-0.0508,-0.1038,-0.1574,-0.175,-0.1802,-0.1783,-0.1667,-0.1428,-0.1247,-0.0956,-0.0843,-0.0755,-0.0742,-0.0703,-0.07,-0.0854,-0.1255,-0.181,-0.2261,-0.2601,-0.2898,-0.2999,-0.2807,-0.2475,-0.2178,0,-0.028,-0.0236,-0.031,-0.0349,-0.0516,-0.0766,-0.0755,-0.0766,-0.0832,-0.092,-0.0997,-0.1033,-0.1014,-0.0972,-0.0379,0,-0.047,-0.0714,-0.0794,-0.0637,-0.0385,-0.0794,-0.1461,-0.1741,-0.1802,-0.1714,-0.1607,-0.1387,-0.1148,-0.0992,-0.0898,-0.0926,-0.1025,-0.117,-0.1066,-0.0923,-0.1049,-0.1563,-0.2118,-0.2524,-0.2881,-0.3098,-0.2972,-0.2612,-0.2335,-0.022,-0.0154,-0.0297,-0.0404,-0.0453,-0.0549,-0.0665,-0.0695,-0.0775,-0.0904,-0.1038,-0.1178,-0.1349,-0.1552,-0.0541,0,-0.0102,-0.0404,-0.0582,-0.0574,-0.0426,-0.0225,-0.0788,-0.1469,-0.1568,-0.1629,-0.1538,-0.1393,-0.1192,-0.1038,-0.0939,-0.0937,-0.0992,-0.1123,-0.148,-0.1662,-0.1343,-0.1055,-0.1338,-0.1945,-0.2409,-0.2777,-0.3112,-0.3128,-0.2637,-0.2315,-0.0236,-0.0291,-0.0382,-0.0445,-0.0505,-0.056,-0.0588,-0.0667,-0.081,-0.097,-0.1129,-0.1305,-0.1621,-0.2184,0,0.0319,-0.0077,-0.0313,-0.0352,-0.0302,-0.0324,-0.0412,-0.1176,-0.175,-0.1681,-0.1651,-0.1533,-0.1294,-0.1044,-0.0851,-0.0736,-0.0689,-0.0725,-0.0871,-0.1357,-0.1989,-0.1956,-0.1263,-0.1162,-0.1755,-0.2332,-0.2618,-0.2925,-0.3084,-0.2604,-0.2096,-0.0288,-0.0382,-0.0423,-0.0467,-0.0492,-0.053,-0.0585,-0.0684,-0.0824,-0.0978,-0.1132,-0.1217,-0.1637,-0.2074,-0.0643,-0.0008,-0.0132,-0.0124,-0.0129,-0.0275,-0.0492,-0.0843,-0.161,-0.1945,-0.1722,-0.1621,-0.139,-0.1046,-0.0725,-0.0472,-0.0283,-0.0192,-0.0222,-0.0363,-0.0898,-0.1824,-0.2335,-0.1818,-0.117,-0.153,-0.2271,-0.2604,-0.2705,-0.2865,-0.2607,-0.1903,-0.0341,-0.0385,-0.0412,-0.0423,-0.0445,-0.0483,-0.0558,-0.0623,-0.0769,-0.103,-0.114,-0.0552,-0.1689,-0.1588,-0.0769,-0.0382,-0.0104,-0.0041,-0.0209,-0.0486,-0.0799,-0.1299,-0.1928,-0.1887,-0.1667,-0.1393,-0.1008,-0.0648,-0.036,-0.0157,-0.0011,0.0121,0.0198,0.019,-0.0214,-0.1222,-0.2296,-0.2398,-0.1483,-0.1335,-0.2123,-0.2719,-0.276,-0.2653,-0.2381,-0.1728,-0.0346,-0.0352,-0.0357,-0.0368,-0.0407,-0.0442,-0.0467,-0.0327,-0.036,-0.1456,-0.1593,0,-0.1384,-0.1233,-0.0772,-0.0321,-0.0115,-0.0222,-0.0431,-0.0733,-0.1211,-0.1851,-0.1939,-0.1697,-0.1357,-0.0959,-0.0634,-0.0376,-0.0214,-0.0184,-0.0266,-0.0352,-0.0247,0.0069,0.0184,-0.0385,-0.1566,-0.2491,-0.2123,-0.1346,-0.1667,-0.2472,-0.273,-0.2373,-0.1873,-0.1365,-0.0343,-0.033,-0.0343,-0.0393,-0.045,-0.0533,-0.0645,-0.0047,0,-0.1502,-0.1653,-0.0602,-0.0849,-0.0829,-0.0494,-0.0272,-0.0288,-0.0437,-0.0717,-0.1252,-0.1785,-0.1733,-0.1423,-0.1055,-0.0711,-0.0415,-0.0132,0.0066,0.0107,-0.0069,-0.0445,-0.0906,-0.1269,-0.1338,-0.0906,-0.0365,-0.0692,-0.1689,-0.2225,-0.1772,-0.1604,-0.1956,-0.2362,-0.2228,-0.1708,-0.117,-0.0357,-0.0376,-0.0387,-0.0437,-0.0525,-0.07,-0.1148,0,0.0291,-0.0799,-0.1003,-0.0593,-0.0648,-0.0486,-0.0368,-0.0371,-0.0442,-0.0775,-0.1346,-0.156,-0.1294,-0.0824,-0.0407,-0.0063,0.0291,0.0667,0.0939,0.1016,0.0849,0.0448,-0.0124,-0.0797,-0.1541,-0.2296,-0.2563,-0.2019,-0.1258,-0.1066,-0.1659,-0.1953,-0.187,-0.187,-0.209,-0.2076,-0.1769,-0.1198]}],[{"header":{"parameterUnit":"m.s-1","parameterCategory":2,"la1":30.5641,"la2":29.4642,"lo1":-89.4342,"lo2":-87.9343,"dy":0.0333,"dx":0.0333,"nx":46,"ny":34,"refTime":"2024-04-01T00:00:00:Z","depth":"10","parameterNumber":2,"parameterNumberName":"U-component_of_CURRENTS"},"data":[0,0,0,0,0,0,0,0,0,0,0,0,0,0,0,0,0,0,0,0,0,0,0,0,0,0,0,0,0,0,0,0,0,0,0,0,0,0,0,0,0,-0.0008,-0.0052,-0.0104,-0.0055,0,0,0,0,0,0,0,0,0,0,0,0,0,0,0,0,0,0,0,0,0,0,0,0,0,0,0,0,0,0,0,0,0,0,0,0,0,0,0,0,0,0,0.0005,-0.0008,-0.0044,-0.0025,0,0,0,0,0,0,0,0,0,0,0,0,0,0,0,0,0,0,0,0,0,0,0,0,0,0,0,0,0,0,0,0,0,0,0,0,0,0,0,0,0,0,0.0027,0.0011,-0.0036,-0.0008,0,0,0,0,0,0,0,0,0,0,0,0,0,0,0,0,0,0,0,0,0,0,0,0,0,0,0,0,0,0,0,0,0,0,0,0,0,0,0,0,0,0,0.025,0.0107,0.0011,0.0033,0,0,0,0,0,0,0,0,0,0,0,0,0,0,0,0,0,0,0,0,0,0,0,0,0,0,0,0,0,0,0,0,0,0,0,0,0,0,0,0,0,0.014,0.0277,0.0165,0.0085,0.0118,0,0,0,0,0,0,0,0,0,0,0,0,0,0,0,0,0,0,0,0,0,0,0,0,0,0,0,0,0,0,0,0,0,0,0,0,0,0,0,0,0,0.0121,0.0266,0.0217,0.014,0.0148,0,0,0,0,0,0,0,0,0,0,0,0,0.0198,0.0461,0.0558,0.0599,0.0599,0.0569,0.056,0.0569,0.0569,0,0,0,0,0,0,0,0,0,0,0,0,0.0159,0.0346,0.0376,0,0,0,0,0,0.0099,0.025,0.0272,0.0231,0.0203,0,0,0,0,0,0,0,0,0,0.0159,0.022,0.0341,0.0569,0.0571,0.0555,0.0549,0.056,0.0574,0.0574,0.0654,0.0788,0.0736,0.0552,0.0522,0.0662,0.0728,0.0698,0,0,0,0,0.0102,0.0217,0.0269,0.0324,0.0341,0,0,0,0,0,0.0085,0.022,0.0242,0.0225,0.022,0,0,0,0,0.0135,0.025,0.0214,0.0244,0.0365,0.0472,0.0426,0.0297,0.0338,0.0497,0.0569,0.058,0.0604,0.0665,0.0698,0.0799,0.0786,0.0591,0.0508,0.0533,0.0643,0.0618,0.0527,0.056,0.0613,0.058,0.0536,0.0415,0.0244,0.0288,0.0338,-0.0011,-0.0297,-0.0266,-0.0313,-0.0357,-0.0294,-0.0118,0.0157,0.0124,0.0069,0.0195,0,0,0,0.0137,0.0255,0.0239,0.0214,0.0206,0.0162,0.0124,0.0305,0.0494,0.0541,0.0552,0.0527,0.0538,0.0662,0.0843,0.0835,0.0783,0.0621,0.0459,0.0536,0.0585,0.0618,0.0654,0.0662,0.0626,0.0621,0.0555,0.0445,0.0417,0.0398,0.0382,0.0357,0.022,-0.0041,-0.0179,-0.0157,0,0,0,0.0102,-0.0113,-0.0214,0.0066,0,0,0.0154,0.0305,0.0332,0.0343,0.0277,0.0231,0.0233,0.0236,0,0,0,0.0102,0.0179,0.0231,0.0308,0,0.0041,0.0338,0.0596,0,0,0,0,0,0,0,0.0019,0.0173,0.036,0.0481,0.0571,0.0486,0.0385,0,0,-0.0096,-0.0176,-0.0033,0.0173,0.0118,0.0258,0.0536,0,0,0,0.0181,0.0349,0.0376,0.0409,0.0376,0.0343,0.0291,0.0376,0.0613,0.058,0.0385,0.0236,0.0228,0.0316,0,0,-0.0137,-0.0222,0.0217,0.075,0.0799,0.0904,0.097,0.0906,0.081,0.0656,0.0327,0.0159,0,0,0,0.0341,0.0522,0.0025,-0.0082,0.0552,0.031,0.0225,0.0255,0.025,0.0255,0,0.0055,-0.0008,-0.0044,-0.0008,0.0599,0.0459,0.0305,0.0294,0.022,0.0244,0.0563,0.0912,0.0829,0.0467,0.0217,0.0201,0.0368,0.0753,0.0986,0.0884,0.0626,0.031,0.0275,0.0538,0.0857,0.0983,0.1041,0.1041,0.0909,0.0851,0.0816,0.0492,0.0431,0.0184,-0.0211,0.0536,0.1052,0.067,0.0379,0.0618,0.0994,0.0978,0.0549,0.0157,0.0242,0.0678,0.0582,0.025,0.008,0.0154,0,0.0104,0.0206,0.0225,0.022,0.0195,0,0,0.0099,0.0181,0.0179,0.0201,0.0253,0.0415,0.0632,0.0802,0.089,0.0725,0.042,0.0464,0.0736,0.0857,0.0893,0.1099,0.1231,0.1115,0.0978,0.0934,0.078,0.0742,0.0445,0.0525,0.1005,0.0906,0.0775,0.0805,0.0862,0.0786,0.0829,0.0651,0.031,0.0437,0.053,0.0343,0.0253,0.0288,0.0494,0.0404,0.0203,0.0137,0.0173,0,0,0,0.0033,0.0011,0.003,0.0168,0.0264,0.031,0.0324,0.042,0.0706,0.0898,0.0676,0.0489,0.0563,0.0717,0.0945,0.1019,0.1148,0.1239,0.1132,0.1014,0.0937,0.0906,0.0895,0.0972,0.1247,0.1189,0.0851,0.0687,0.0428,0.0266,0.056,0.0681,0.0461,0.0341,0.0363,0.0319,0.0299,0.031,0.0113,0.028,0.0338,0,0,0,0,0,0.0077,0.0082,-0.0033,0.0027,0.0206,0.0288,0.0264,0.0192,0.056,0.1154,0.1101,0.0604,0.045,0.0813,0.1305,0.1307,0.1266,0.1263,0.1329,0.1327,0.1181,0.1088,0.1041,0.0648,0.0637,0.092,0.0717,0.0593,0.0709,0.0824,0.0731,0.0607,0.0689,0.0895,0.0986,0.0791,0.0401,0.0242,0,0,0.0201,0.0431,0.0412,0.0357,0,0,0.0126,0.0214,0.003,-0.0058,0.0052,0.0121,0.0159,0.0121,0.006,0,0.0313,0.0365,0.0239,0.0725,0.1379,0.1566,0.1645,0.148,0.142,0.139,0.128,0.1154,0.1159,0.1057,0.0717,0.0665,0.0805,0.0722,0.0742,0.0865,0.0824,0.0599,0.0547,0.0676,0.084,0.0865,0.0547,0.0242,0,0,0.0052,0.0096,0.0143,0.045,0.0967,0.1244,0.0873,0.0352,0.008,-0.0058,-0.0047,-0.003,-0.0025,-0.0102,-0.025,-0.0316,0,-0.011,-0.0118,0.0231,0.1025,0.136,0.1653,0.1574,0.1472,0.1371,0.1291,0.1255,0.1274,0.1329,0.1198,0.1063,0.114,0.106,0.0906,0.0873,0.0816,0.0593,0.0201,-0.0074,-0.0085,0.0019,0.0107,0.0069,0,0,0,-0.0069,-0.014,0,0,0,-0.0055,-0.0077,-0.0088,-0.0129,-0.0124,-0.0115,-0.0124,-0.0173,-0.0217,-0.0222,0,-0.0176,-0.0288,-0.0077,0.0626,0.0659,0.0923,0.1055,0.1071,0.106,0.1055,0.1038,0.1027,0.0978,0.0772,0.0533,0.0588,0.0816,0.0857,0.0849,0.0843,0.0654,0.0066,-0.0547,-0.0527,-0.0121,0.0113,0.0069,0,0,0,0,0,0,0,-0.0275,-0.039,-0.0236,-0.0231,-0.0211,-0.0179,-0.0159,-0.0201,-0.0244,-0.014,-0.0027,0,-0.0192,-0.0374,-0.0255,0.0294,0.0113,0.0154,0.0305,0.0398,0.0483,0.0453,0.008,-0.0291,-0.0396,-0.0439,-0.0404,-0.0242,0.0041,0.0275,0.0404,0.0541,0.0626,0.0308,-0.0258,-0.0558,-0.0481,-0.031,-0.0286,0,0,0,0,0,0,-0.006,-0.0247,-0.0352,-0.031,-0.0275,-0.0244,-0.0187,-0.0173,-0.0242,-0.0335,-0.025,-0.0113,0,-0.019,-0.0412,-0.0324,0.017,0.0058,-0.0201,-0.0025,0.0005,-0.0264,-0.0791,-0.1101,-0.1148,-0.1085,-0.0972,-0.0827,-0.0681,-0.0478,-0.0206,0.0019,0.0126,0.0297,0.0341,0.0055,-0.0236,-0.0332,-0.0398,-0.0563,0,0,0,0,0,0,0.0019,-0.006,-0.0242,-0.0324,-0.0305,-0.0283,-0.0209,-0.0168,-0.0124,-0.0052,0,0,0,-0.0173,-0.0437,-0.0412,0.0146,0.0324,-0.0069,-0.0091,-0.0096,-0.0527,-0.0939,-0.0961,-0.0978,-0.0849,-0.0632,-0.0489,-0.0434,-0.042,-0.0349,-0.0222,-0.0082,0.0041,0.0066,0.0008,-0.0102,-0.0258,-0.0368,-0.0434,0,0,0,0,0,0,0.0055,0.0066,-0.0082,-0.0233,-0.0272,-0.0272,-0.0316,-0.0107,0.0093,0.0151,0.0255,0,0,-0.0181,-0.0483,-0.0536,0.0066,0.0437,0.0085,0.0005,0.0019,0.0025,-0.0201,-0.0327,-0.0159,-0.0025,0.008,0.0137,0.0102,0.0,-0.0102,-0.0143,-0.0121,-0.0041,0.0016,-0.0071,-0.0225,-0.0316,-0.045,-0.0555,0,0,0,0,0,-0.0184,-0.0096,0.0137,0.0019,-0.0096,-0.014,-0.0129,-0.0115,0,-0.0008,0.0014,0.0044,0,0,-0.0203,-0.056,-0.0733,-0.0066,0.0415,0.0077,0.0016,0.0115,0.0286,0.0264,0.0231,0.0159,0.0091,0.006,0.0126,0.0244,0.0266,0.0146,0.003,-0.0005,0.0033,0.0093,0.0074,-0.0099,-0.0321,-0.0481,-0.0615,0,-0.0082,0.0113,0.019,0,0.0008,0.0176,0.0231,0.0063,-0.0011,-0.0022,-0.0027,0.0022,-0.0063,-0.017,-0.0096,-0.0049,0,-0.0096,-0.0332,-0.0621,-0.0898,-0.0179,0.0335,-0.0203,-0.028,-0.0137,0.003,0.0159,0.0297,0.0357,0.0385,0.0354,0.0275,0.0242,0.031,0.0332,0.0231,0.0143,0.0148,0.0211,0.025,0.0179,-0.0036,-0.0266,-0.0426,0,0.0181,0,0.0044,0.0088,0,0.0093,0.0135,0.0058,0.0044,0.006,0.0041,-0.0003,-0.0113,-0.0198,-0.0233,-0.0266,0,-0.0085,-0.0291,-0.0602,-0.0821,-0.0165,0.0352,-0.0415,-0.0396,-0.0217,0.0025,0.0258,0.0527,0.0733,0.0873,0.0981,0.1071,0.0942,0.0629,0.0445,0.0346,0.0261,0.0228,0.0236,0.0291,0.0357,0.0283,0.0071,-0.0099,0,-0.0049,0.0066,0.0247,0.0217,0.0129,0.0126,0.0124,0.0082,0.011,0.0126,0.0077,-0.0058,-0.0137,-0.0261,-0.0393,0,-0.0055,-0.0104,-0.0198,-0.0503,-0.0742,-0.0115,0.0459,-0.0148,-0.0176,0.006,0.0313,0.056,0.0819,0.106,0.1261,0.1415,0.156,0.1686,0.1469,0.0906,0.0467,0.0253,0.019,0.0176,0.0151,0.0253,0.0365,0.0288,0.006,0.0313,0.0187,0.0148,0.0261,0.0283,0.0253,0.0148,0.0071,0.0129,0.0209,0.0211,0.0135,-0.0052,-0.0335,-0.0486,0,0.0063,0.0102,0.0,-0.0165,-0.0374,-0.0522,0.0077,0.0753,0.067,0.0717,0.0692,0.0711,0.0849,0.1016,0.1121,0.1222,0.1357,0.1519,0.1744,0.1912,0.1596,0.0893,0.0327,0.0085,0.0055,0.0008,-0.0066,0.003,0.0154,0.0033,0.0135,0.0275,0.0319,0.0327,0.0346,0.0288,0.0159,0.0146,0.0258,0.0349,0.0357,0.0352,0.039,0.0417,0,0.0181,0.0357,0.022,-0.0014,-0.017,-0.0272,-0.0222,0.0203,0.0802,0.103,0.1068,0.0895,0.0698,0.0673,0.0703,0.0736,0.0808,0.0953,0.117,0.1439,0.178,0.1898,0.1387,0.0574,0.0016,-0.0126,-0.0132,-0.0291,-0.0382,-0.0305,-0.0343,0.0297,0.0363,0.0404,0.0428,0.0407,0.0305,0.0217,0.0261,0.0396,0.0505,0.0549,0.0676,0.0959,0.145,0.1568,0.1121,0.0643,0.0168,0.0,0.0047,0.011,0.0148,0.0437,0.0937,0.0972,0.0766,0.0516,0.0324,0.0247,0.0247,0.0288,0.0335,0.0445,0.0665,0.0975,0.1371,0.1769,0.1728,0.0997,0.0137,-0.0302,-0.0346,-0.0434,-0.0621,-0.0667,-0.0709,0.0357,0.0439,0.0481,0.0489,0.0467,0.0404,0.0346,0.0412,0.0571,0.0662,0.0676,0.1041,0.1327,0.136,0.134,0.0994,0.05,0.0283,0.0335,0.0396,0.0434,0.0582,0.0939,0.1132,0.0739,0.0385,0.0137,0.0107,0.0261,0.0445,0.0503,0.0417,0.0321,0.0374,0.0623,0.0992,0.1415,0.175,0.1483,0.0514,-0.0371,-0.0687,-0.0629,-0.0637,-0.0742,-0.0736,0.0409,0.0481,0.0511,0.053,0.0525,0.0489,0.047,0.0637,0.1011,0.095,0.0681,0,0.0349,0.0873,0.0975,0.0692,0.0544,0.0571,0.0626,0.0739,0.0937,0.1233,0.1434,0.0994,0.0588,0.0442,0.0747,0.1343,0.198,0.2469,0.2615,0.231,0.1692,0.1112,0.0832,0.0915,0.1241,0.1599,0.1681,0.1003,-0.0201,-0.1038,-0.1225,-0.1187,-0.1123,-0.0961,0.0415,0.0492,0.0541,0.0558,0.0536,0.0464,0.0327,0.0239,0,0.0242,0.0794,0.0884,0.0755,0.0851,0.0717,0.0665,0.0722,0.0832,0.1025,0.1294,0.1651,0.1736,0.1313,0.1327,0.1796,0.2615,0.3538,0.4425,0.523,0.5894,0.6348,0.6424,0.5823,0.4266,0.2483,0.1582,0.1497,0.1675,0.1876,0.1675,0.0725,-0.0519,-0.1159,-0.1192,-0.0967,-0.0742,0.0407,0.0483,0.0558,0.0591,0.0585,0.0549,0.0527,0,-0.0115,0.0115,0.0673,0.0862,0.0851,0.0742,0.0651,0.0772,0.0975,0.1307,0.1686,0.2038,0.1733,0.1917,0.2651,0.3678,0.4661,0.5589,0.6424,0.718,0.7847,0.8386,0.8765,0.9026,0.9075,0.8495,0.6905,0.4581,0.2727,0.2109,0.2173,0.2192,0.1931,0.1338,0.0577,0.0242,0.0396,0.0676]},{"header":{"parameterUnit":"m.s-1","parameterCategory":2,"la1":30.5641,"la2":29.4642,"lo1":-89.4342,"lo2":-87.9343,"dy":0.0333,"dx":0.0333,"nx":46,"ny":34,"refTime":"2024-04-01T00:00:00:Z","depth":"10","parameterNumber":3,"parameterNumberName":"V-component_of_CURRENTS"},"data":[0,0,0,0,0,0,0,0,0,0,0,0,0,0,0,0,0,0,0,0,0,0,0,0,0,0,0,0,0,0,0,0,0,0,0,0,0,0,0,0,0,0.0349,0.0341,0.0316,0.028,0,0,0,0,0,0,0,0,0,0,0,0,0,0,0,0,0,0,0,0,0,0,0,0,0,0,0,0,0,0,0,0,0,0,0,0,0,0,0,0,0,0,0.0308,0.0302,0.028,0.0228,0,0,0,0,0,0,0,0,0,0,0,0,0,0,0,0,0,0,0,0,0,0,0,0,0,0,0,0,0,0,0,0,0,0,0,0,0,0,0,0,0,0,0.0275,0.0225,0.0206,0.0148,0,0,0,0,0,0,0,0,0,0,0,0,0,0,0,0,0,0,0,0,0,0,0,0,0,0,0,0,0,0,0,0,0,0,0,0,0,0,0,0,0,0,0.0222,0.0187,0.0162,0.0077,0,0,0,0,0,0,0,0,0,0,0,0,0,0,0,0,0,0,0,0,0,0,0,0,0,0,0,0,0,0,0,0,0,0,0,0,0,0,0,0,0,0.017,0.0113,0.0126,0.0077,-0.0016,0,0,0,0,0,0,0,0,0,0,0,0,0,0,0,0,0,0,0,0,0,0,0,0,0,0,0,0,0,0,0,0,0,0,0,0,0,0,0,0,0,0.0049,0.0033,0.0027,-0.0033,-0.0118,0,0,0,0,0,0,0,0,0,0,0,0,-0.0137,-0.0242,-0.0352,-0.0415,-0.0445,-0.0494,-0.0497,-0.0519,-0.0797,0,0,0,0,0,0,0,0,0,0,0,0,0.017,0.0069,0.0233,0,0,0,0,0,-0.0047,-0.0041,-0.0055,-0.0069,-0.0132,0,0,0,0,0,0,0,0,0,-0.0129,-0.0343,-0.0478,-0.022,-0.0203,-0.0316,-0.0368,-0.0407,-0.0409,-0.0368,-0.0214,-0.0519,-0.0096,0.0135,0.0154,0.0044,-0.0118,0.0255,0,0,0,0,0.0266,0.0206,0.0176,-0.0014,0.0288,0,0,0,0,0,-0.0151,-0.0157,-0.0244,-0.0107,-0.0104,0,0,0,0,-0.0132,-0.028,-0.0341,-0.0417,-0.0514,-0.0294,-0.0294,-0.0368,-0.0264,-0.0129,-0.0261,-0.025,-0.0233,-0.0247,-0.0291,-0.0091,-0.031,-0.006,0.0058,0.0019,-0.0016,-0.0044,0.014,0.017,0.008,-0.008,-0.0052,0.0203,0.0143,0.0082,-0.0074,0.025,0.0058,0.0069,0.0005,0.0,0.0,-0.0096,-0.0393,-0.0404,-0.014,-0.0099,0,0,0,-0.0157,-0.0236,-0.0371,-0.0423,-0.0489,-0.0514,-0.0489,-0.0121,-0.0129,-0.0115,-0.0272,-0.033,-0.0179,0.0005,-0.0085,-0.0634,-0.0467,-0.0442,-0.0014,-0.0008,-0.0058,-0.0038,0.0014,0.0014,0.0085,-0.0231,-0.0151,-0.0019,0.0091,0.0011,-0.0126,0.0049,0.008,0.0027,0.0093,0.0082,0,0,0,-0.0599,-0.0577,-0.0071,-0.0052,0,0,-0.0261,-0.0294,-0.045,-0.0492,-0.047,-0.0475,-0.0387,-0.0459,0,0,0,-0.0453,-0.0527,-0.0088,0.0055,0,-0.0772,-0.0621,-0.0648,0,0,0,0,0,0,0,-0.0593,-0.0113,0.0005,0.0019,0.0055,-0.0247,0.0066,0,0,0.0154,0.0005,-0.0374,-0.0417,-0.0247,-0.0324,-0.0714,0,0,0,-0.0192,-0.0376,-0.0505,-0.0558,-0.0461,-0.0385,-0.0393,-0.0332,-0.0379,-0.0514,-0.0448,-0.0439,-0.0489,-0.0753,0,0,-0.0014,-0.0478,-0.061,-0.0695,-0.0294,-0.0357,-0.0294,-0.008,0.0121,0.0203,0.0096,-0.045,0,0,0,-0.0003,-0.0269,0.0052,-0.0016,-0.0077,0.0181,-0.0082,-0.0275,-0.0341,-0.0176,0,-0.039,0.0016,-0.0143,-0.0203,-0.0096,-0.0585,-0.0618,-0.0541,-0.0407,-0.0288,-0.0195,-0.0203,-0.0555,-0.0588,-0.0525,-0.0541,-0.0574,-0.0728,-0.0269,-0.0217,-0.0074,-0.033,-0.056,-0.0604,-0.0514,-0.0588,-0.0478,-0.0349,-0.0203,-0.0074,-0.0154,-0.0277,-0.025,-0.0349,-0.0566,-0.0692,-0.0549,-0.0687,-0.045,-0.0379,-0.0511,-0.0448,-0.0393,-0.036,-0.0242,-0.0371,-0.0091,-0.0055,-0.0225,-0.0269,0,-0.0623,-0.0634,-0.0505,-0.036,-0.0124,0,0,-0.0794,-0.0684,-0.0602,-0.0604,-0.0593,-0.0558,-0.036,-0.0247,-0.0135,-0.0269,-0.0467,-0.07,-0.0783,-0.0794,-0.0791,-0.0714,-0.0643,-0.0761,-0.0882,-0.0813,-0.0659,-0.0656,-0.0602,-0.056,-0.1118,-0.139,-0.0942,-0.0879,-0.0552,-0.0676,-0.0368,-0.0316,-0.042,-0.0442,-0.0428,-0.0374,-0.039,-0.0308,-0.0607,-0.0549,-0.0464,-0.0236,-0.0154,0,0,0,-0.0747,-0.0599,-0.0527,-0.0494,-0.0467,-0.0431,-0.0349,-0.0206,-0.0058,-0.0228,-0.0492,-0.0698,-0.0928,-0.1101,-0.1077,-0.1057,-0.1052,-0.1016,-0.114,-0.1222,-0.1173,-0.1258,-0.1154,-0.0514,-0.0764,-0.1351,-0.1228,-0.0926,-0.064,-0.0843,-0.0769,-0.0525,-0.0566,-0.0665,-0.0621,-0.0445,-0.0338,-0.0302,-0.0305,-0.0266,-0.0525,0,0,0,0,0,-0.058,-0.0448,-0.0407,-0.0382,-0.0354,-0.0297,-0.0206,-0.0069,0.0096,-0.0121,-0.0747,-0.075,-0.0975,-0.1148,-0.1112,-0.125,-0.1329,-0.1261,-0.1206,-0.1371,-0.1508,-0.1535,-0.1269,-0.0563,-0.0692,-0.142,-0.1697,-0.1266,-0.1126,-0.1354,-0.1266,-0.0981,-0.0761,-0.0791,-0.061,-0.0456,-0.0442,-0.0357,0,0,-0.0621,-0.003,0.0239,0.0129,0,0,-0.0401,-0.0417,-0.0374,-0.0357,-0.0346,-0.028,-0.0187,0.0019,0.0247,0,-0.0475,-0.0893,-0.0832,-0.0989,-0.0766,-0.1099,-0.1255,-0.1159,-0.1099,-0.1313,-0.1541,-0.1522,-0.1329,-0.0783,-0.0618,-0.1346,-0.1843,-0.1527,-0.1467,-0.1777,-0.1708,-0.1384,-0.0989,-0.0744,-0.1063,-0.0851,-0.0687,-0.0613,0,0,-0.0258,-0.0173,0.0049,0.0066,0.0,0.0,-0.0637,-0.0527,-0.0431,-0.0387,-0.0368,-0.0299,-0.0217,-0.0027,0.0115,-0.0266,0,-0.0862,-0.0698,-0.0838,-0.0505,-0.0747,-0.0849,-0.0816,-0.0945,-0.1214,-0.1376,-0.131,-0.1167,-0.1008,-0.0728,-0.103,-0.1384,-0.1445,-0.145,-0.1796,-0.1936,-0.1763,-0.1156,-0.0744,-0.1486,-0.1423,-0.1145,-0.122,0,0,0,-0.0159,-0.0071,0,0,0,-0.0884,-0.0604,-0.0467,-0.039,-0.0349,-0.0302,-0.0233,-0.0096,-0.0113,-0.0308,0,-0.0703,-0.058,-0.0764,-0.0426,-0.0582,-0.0563,-0.058,-0.084,-0.109,-0.1143,-0.0997,-0.0816,-0.0709,-0.061,-0.0821,-0.1145,-0.1236,-0.1261,-0.1497,-0.1857,-0.2038,-0.1371,-0.092,-0.1362,-0.1472,-0.1236,-0.1176,0,0,0,0,0,0,0,-0.0368,-0.0593,-0.0456,-0.0379,-0.0332,-0.0313,-0.031,-0.0244,-0.0137,-0.019,-0.033,0,-0.0654,-0.0544,-0.0731,-0.0472,-0.061,-0.0547,-0.0552,-0.0698,-0.0813,-0.0673,-0.0494,-0.0555,-0.0626,-0.0766,-0.1101,-0.1382,-0.1395,-0.1332,-0.1398,-0.1664,-0.1909,-0.1461,-0.1035,-0.1198,-0.128,-0.1209,-0.1057,0,0,0,0,0,0,-0.039,-0.0349,-0.0385,-0.0354,-0.0341,-0.033,-0.0341,-0.0365,-0.033,-0.0379,-0.0121,-0.0157,0,-0.0684,-0.0566,-0.0692,-0.0604,-0.0667,-0.0665,-0.0689,-0.0676,-0.0607,-0.0423,-0.0527,-0.0797,-0.0939,-0.0989,-0.1088,-0.1222,-0.1332,-0.1447,-0.156,-0.1741,-0.1785,-0.1475,-0.1165,-0.1178,-0.1332,-0.1365,-0.1241,0,0,0,0,0,0,-0.0459,-0.0431,-0.0445,-0.0431,-0.0437,-0.0437,-0.0448,-0.0445,-0.0505,-0.0643,0,0,0,-0.0717,-0.0585,-0.0676,-0.0643,-0.0684,-0.0728,-0.0846,-0.0819,-0.0665,-0.0588,-0.0797,-0.0742,-0.0645,-0.0582,-0.0591,-0.0692,-0.0948,-0.1261,-0.1505,-0.1774,-0.192,-0.1747,-0.1456,-0.1324,-0.1349,-0.1469,-0.1502,0,0,0,0,0,0,-0.0569,-0.0566,-0.0549,-0.0525,-0.0552,-0.058,-0.0632,-0.0239,-0.0673,-0.0684,-0.0503,0,0,-0.0722,-0.0591,-0.0634,-0.0563,-0.0613,-0.0698,-0.0865,-0.0956,-0.0827,-0.0813,-0.0733,-0.0538,-0.0423,-0.0338,-0.0316,-0.0398,-0.0656,-0.0981,-0.1302,-0.1643,-0.1934,-0.209,-0.1936,-0.1673,-0.1497,-0.15,-0.153,0,0,0,0,0,-0.0233,-0.0541,-0.0621,-0.0618,-0.0607,-0.064,-0.0687,-0.0761,0,-0.0764,-0.0651,-0.0538,0,0,-0.0744,-0.0566,-0.0549,-0.0396,-0.0549,-0.0714,-0.0849,-0.0967,-0.0854,-0.0799,-0.0703,-0.067,-0.0533,-0.0398,-0.031,-0.0332,-0.0494,-0.081,-0.1195,-0.1508,-0.1802,-0.2118,-0.228,-0.2118,-0.1796,-0.159,-0.1486,0,-0.0376,0.0,-0.0423,0,-0.0115,-0.0607,-0.0678,-0.0667,-0.067,-0.0698,-0.0733,-0.0769,-0.0654,-0.0731,-0.0634,-0.0538,0,-0.0563,-0.0667,-0.0456,-0.0365,-0.022,-0.0566,-0.0821,-0.0923,-0.0945,-0.0816,-0.0838,-0.095,-0.0937,-0.0851,-0.0711,-0.0618,-0.0541,-0.0505,-0.0681,-0.1041,-0.145,-0.1736,-0.2013,-0.2315,-0.2395,-0.2148,-0.1791,-0.1549,0,-0.0387,0,-0.033,-0.0283,0,-0.0744,-0.0709,-0.0689,-0.0703,-0.0744,-0.0783,-0.0794,-0.0706,-0.0731,-0.0659,-0.0253,0,-0.0645,-0.0596,-0.0404,-0.0143,-0.0019,-0.0555,-0.0945,-0.1066,-0.1008,-0.0956,-0.1066,-0.1176,-0.114,-0.1044,-0.0942,-0.0934,-0.095,-0.0849,-0.0753,-0.089,-0.1335,-0.1725,-0.2008,-0.2282,-0.2477,-0.2423,-0.2082,-0.1725,0,-0.0214,-0.0176,-0.0294,-0.033,-0.0489,-0.0706,-0.0684,-0.0681,-0.0736,-0.0816,-0.0882,-0.0909,-0.0893,-0.0868,-0.0346,0,-0.0439,-0.0626,-0.0574,-0.0354,0.0074,0.0132,-0.0516,-0.0978,-0.1198,-0.1198,-0.1222,-0.1272,-0.1217,-0.1126,-0.1016,-0.0945,-0.0986,-0.1181,-0.1313,-0.114,-0.0956,-0.1195,-0.1675,-0.2044,-0.2335,-0.2576,-0.2631,-0.2425,-0.2076,-0.0151,-0.008,-0.0242,-0.0379,-0.0428,-0.0516,-0.061,-0.0615,-0.0681,-0.0797,-0.0912,-0.1027,-0.1167,-0.134,-0.0475,0,-0.011,-0.0374,-0.0456,-0.0393,-0.0091,0.0228,0.0019,-0.0717,-0.1195,-0.1379,-0.1412,-0.1368,-0.1294,-0.1126,-0.0934,-0.0805,-0.0753,-0.0799,-0.1118,-0.1593,-0.1651,-0.1252,-0.1143,-0.1552,-0.2016,-0.2384,-0.2686,-0.2835,-0.2694,-0.2365,-0.0192,-0.0236,-0.0341,-0.0417,-0.0475,-0.0525,-0.0527,-0.0582,-0.0711,-0.0854,-0.0989,-0.1129,-0.139,-0.1854,0,0.0286,-0.0082,-0.0264,-0.0192,-0.0027,0.0085,0.0085,-0.0275,-0.0981,-0.1442,-0.1458,-0.1483,-0.1329,-0.1066,-0.0802,-0.0593,-0.0492,-0.0472,-0.0503,-0.0808,-0.1519,-0.2024,-0.1728,-0.1225,-0.142,-0.1936,-0.231,-0.2653,-0.2906,-0.278,-0.2346,-0.0266,-0.0352,-0.0393,-0.0434,-0.0459,-0.0489,-0.0519,-0.0596,-0.0725,-0.086,-0.0986,-0.1052,-0.1404,-0.1755,-0.0549,-0.0003,-0.0115,-0.0011,0.0121,0.0093,-0.0036,-0.0187,-0.0481,-0.109,-0.1398,-0.1384,-0.1329,-0.1046,-0.0709,-0.045,-0.0294,-0.022,-0.0198,-0.0192,-0.0439,-0.12,-0.2112,-0.223,-0.1544,-0.1346,-0.1829,-0.225,-0.2508,-0.2744,-0.2651,-0.2126,-0.0319,-0.036,-0.0385,-0.0393,-0.0412,-0.0442,-0.0497,-0.0547,-0.067,-0.0901,-0.1,-0.0478,-0.1442,-0.1354,-0.0654,-0.0319,-0.0003,0.0187,0.0121,-0.0063,-0.0214,-0.0379,-0.0742,-0.1412,-0.1395,-0.1346,-0.1057,-0.0662,-0.033,-0.0135,-0.0047,0.003,0.0124,0.0187,0.0,-0.0742,-0.1892,-0.2579,-0.2129,-0.139,-0.1637,-0.2211,-0.242,-0.2412,-0.223,-0.1667,-0.0324,-0.0327,-0.033,-0.0341,-0.0371,-0.0401,-0.042,-0.0288,-0.0313,-0.1247,-0.1362,0,-0.1189,-0.1046,-0.0637,-0.0159,0.0132,0.0118,-0.0011,-0.0148,-0.0327,-0.0656,-0.1439,-0.1527,-0.1376,-0.1038,-0.0599,-0.0225,0.0005,0.0049,-0.0052,-0.0187,-0.0135,0.0146,0.0291,-0.0151,-0.1302,-0.2557,-0.2766,-0.1936,-0.1447,-0.1843,-0.2085,-0.1903,-0.1544,-0.1035,-0.0319,-0.0308,-0.0316,-0.036,-0.0409,-0.0478,-0.058,-0.0041,0,-0.1285,-0.1398,-0.0503,-0.0733,-0.0689,-0.0313,0.0008,0.0077,0.0005,-0.0099,-0.0297,-0.0733,-0.1398,-0.1368,-0.1074,-0.0673,-0.028,0.0047,0.0275,0.0335,0.0184,-0.0179,-0.0654,-0.1063,-0.12,-0.0799,-0.0173,-0.0511,-0.1752,-0.2815,-0.2656,-0.1843,-0.1544,-0.1557,-0.15,-0.1189,-0.0766,-0.033,-0.0346,-0.0357,-0.0398,-0.0472,-0.0623,-0.1003,0,0.0286,-0.0689,-0.0849,-0.0489,-0.0536,-0.036,-0.0082,0.0003,-0.0008,-0.0121,-0.0385,-0.0981,-0.1198,-0.081,-0.031,0.0121,0.0448,0.0733,0.0948,0.103,0.0901,0.0544,0.0005,-0.0654,-0.1426,-0.2241,-0.2563,-0.1994,-0.1088,-0.0986,-0.195,-0.2651,-0.2403,-0.1838,-0.1637,-0.1568,-0.1351,-0.0942]}],[{"header":{"parameterUnit":"m.s-1","parameterCategory":2,"la1":30.5641,"la2":29.4642,"lo1":-89.4342,"lo2":-87.9343,"dy":0.0333,"dx":0.0333,"nx":46,"ny":34,"refTime":"2024-04-01T00:00:00:Z","depth":"12","parameterNumber":2,"parameterNumberName":"U-component_of_CURRENTS"},"data":[0,0,0,0,0,0,0,0,0,0,0,0,0,0,0,0,0,0,0,0,0,0,0,0,0,0,0,0,0,0,0,0,0,0,0,0,0,0,0,0,0,0,0,0,0,0,0,0,0,0,0,0,0,0,0,0,0,0,0,0,0,0,0,0,0,0,0,0,0,0,0,0,0,0,0,0,0,0,0,0,0,0,0,0,0,0,0,0,0,0,0,0,0,0,0,0,0,0,0,0,0,0,0,0,0,0,0,0,0,0,0,0,0,0,0,0,0,0,0,0,0,0,0,0,0,0,0,0,0,0,0,0,0,0,0,0,0,0,0,0,0,0,0,0,0,0,0,0,0,0,0,0,0,0,0,0,0,0,0,0,0,0,0,0,0,0,0,0,0,0,0,0,0,0,0,0,0,0,0,0,0,0,0,0,0,0,0,0,0,0,0,0,0,0,0,0,0,0,0,0,0,0,0,0,0,0,0,0,0,0,0,0,0,0,0,0,0,0,0,0,0,0,0,0,0,0,0,0,0,0,0,0,0,0,0,0,0,0,0,0,0,0,0,0,0,0,0,0,0,0,0,0,0,0,0,0,0,0,0,0,0,0,0,0,0,0,0,0,0,0,0,0,0,0,0,0,0,0,0,0,0,0,0,0,0,0,0,0,0,0,0,0,0,0,0,0,0,0,0,0,0,0,0,0,0,0,0,0,0,0,0,0,0,0,0,0,0,0,0,0,0,0,0,0,0,0,0,0,0,0,0,0,0,0,0,0,0,0,0,0,0,0,0,0,0,0,0,0,0,0,0,0,0,0,0,0,0,0,0,0,0,0,0,0,0,0,0,0,0,0,0,0,0,0,0,0,0,0,0,0,0,0,0,0,0,0,0,0,0,0,0,0,0,0,0,0,0,0,0,0,0,0,0,0,0,0,0,0,0,0,0,0,0,0,0,0,0,0,0,0,0,0,0,0,0,0,0,0,0,0,0,0,0,0,0,0,0,0,0,0,0,0,0,0,0,0,0,0,0,0,0,0,0,0,0,0,0,0,0,0,0,0,0,0,0,0,0,0,0,0,0,0,0,0,0,0,0,0,0,0,0,0,0,0,0,0,0,0,0,0,0,0,0,0,0,0,0,0,0,0,0,0,0,0,0,0,0,0,0,0,0,0,0,0,0,0,0,0,0,0,0,0,0,0,0,0,0,0.0667,0.0654,0.0645,0.067,0,0,0,0,0,0,0,0,0,-0.0198,0.0176,0,0,0,0,0,0,0,0,0,0,0,0,0,0,0,0,0,0,0,0,0,0,0,0,0,0,0,0,0,0,0.0692,0.0665,0.0637,0.0613,0.0604,0.056,0.0489,0,0.0118,0.0019,0.008,0.0409,0.0456,0.0104,0.0069,0.0176,0.0272,0.0349,0.0253,0.0159,0,0.0514,0,0.0195,0.008,0.0148,0,0,0,0,0,0,0,0,0,0,0,0,0,0,0,0,0,0,0,0.0396,0.0585,0.0695,0.0698,0.0667,0.061,0.0522,0.0549,0.0571,0.0461,0.0456,0.0236,0.045,0.095,0.0813,0.0593,0.0673,0.0753,0.0777,0.0645,0.0275,0.0168,0.0338,0.0428,0.0305,0.0247,0.028,0,0,0,0,0,0,0,0,0,0,0,0,0,0,0,0,0,0,0,0.0412,0.0415,0.0514,0.056,0.0613,0.0687,0.0665,0.0634,0.0637,0.0566,0.058,0.0571,0.0764,0.1151,0.1118,0.0849,0.0758,0.0755,0.0777,0.0602,0.0266,0.017,0.0198,0.0222,0.0242,0.0291,0.0305,0,0,0,0,0,0,0,0,0,0,0,0,0,0,0,0,0,0,0,0,0.0275,0.0332,0.0382,0.0486,0.0703,0.0915,0.1033,0.1055,0.0948,0.0797,0.0851,0.0967,0.1192,0.1272,0.0961,0.0775,0.0882,0.0917,0.0629,0.0335,0.0313,0.0387,0.0439,0.036,0.0266,0.0239,0,0,0,0,0,0,0,0,0,0,0,0,0,0,0,0,0,0,0,0,0.0146,0.0222,0.031,0.0623,0.1005,0.12,0.125,0.1236,0.114,0.1027,0.1025,0.1085,0.1118,0.1178,0.1088,0.0893,0.0838,0.0857,0.0739,0.0645,0.0764,0.0912,0.0909,0.0536,0.0184,0.0085,0,0,0,0,0,0,0,0,0,0,0,0,0,0,0,0,0,0,0,0,-0.0124,0.0063,0.0313,0.0989,0.1393,0.1439,0.1409,0.1351,0.1263,0.1211,0.1244,0.1332,0.1431,0.1527,0.1469,0.1263,0.106,0.0909,0.0799,0.0654,0.0503,0.0525,0.0461,0.0277,0.0162,0.0055,0,0,0,0,0,0,0,0,0,0,0,0,0,0,0,0,0,0,0,0,0,-0.0096,0.0231,0.0961,0.1296,0.1187,0.1176,0.1143,0.1165,0.1178,0.1159,0.1167,0.1134,0.1077,0.1101,0.1187,0.1192,0.1132,0.0978,0.072,0.0332,0.0074,0.0253,0.0431,0.0349,0.0247,0,0,0,0,0,0,0,0,0,0,0,0,0,0,0,0,0,0,0,0,0,-0.0225,0.0016,0.053,0.0643,0.0651,0.0706,0.0747,0.0731,0.0525,0.019,0.0055,0.0005,-0.0019,0.0115,0.0404,0.0695,0.0915,0.1011,0.0906,0.0582,0.0192,0.0005,0.0113,0.0211,0.0154,0,0,0,0,0,0,0,0,0,0,0,0,0,0,0,0,0,0,0,0,0,-0.0294,-0.0121,0.0343,0.0398,0.0349,0.0352,0.0214,-0.0283,-0.0766,-0.0986,-0.0953,-0.0766,-0.0585,-0.0357,-0.0077,0.0192,0.0393,0.0591,0.075,0.0695,0.0396,0.0121,0.0003,-0.0115,-0.0319,0,0,0,0,0,0,0,0,0,0,0,0,0,0,0,0,0,0,0,0,0,-0.0365,-0.0192,0.0327,0.0472,0.0363,0.0365,0.0099,-0.0335,-0.0547,-0.0409,-0.0184,0.0022,0.0126,0.0107,0.0077,0.014,0.0244,0.0277,0.0324,0.042,0.0393,0.0225,0.0,-0.0222,-0.0393,0,0,0,0,0,0,0,0,0,0,0,0,0,0,0,0,0,0,0,0,0,-0.0456,-0.0269,0.0365,0.0505,0.0417,0.0472,0.045,0.0478,0.0505,0.0599,0.0711,0.0777,0.0819,0.0764,0.0585,0.0423,0.036,0.0313,0.0211,0.0143,0.0118,0.0093,-0.003,-0.0266,-0.0483,0,0,0,0,0,0,0,0,0,0,0,0,0,0,0,0,0,0,0,0,0,-0.0571,-0.0374,0.039,0.0549,0.0467,0.0582,0.0744,0.0912,0.1008,0.1052,0.0997,0.0909,0.0901,0.1003,0.1027,0.0824,0.0571,0.0456,0.0393,0.025,0.0069,-0.0016,-0.0055,-0.014,-0.0308,0,0,0,0,0,0,0,0,0,0,0,0,0,0,0,0,0,0,0,0,-0.0591,-0.0667,-0.0511,0.0385,0.0613,0.0475,0.0651,0.0893,0.1118,0.1261,0.1338,0.125,0.1123,0.1019,0.0956,0.1016,0.1052,0.089,0.0703,0.0615,0.0544,0.0368,0.0154,0.0041,0.0011,-0.0041,0,0,0,0,0,0,0,0,0,0,0,0,0,0,0,0,0,0,0,0,-0.0566,-0.0775,-0.0613,0.0379,0.0758,0.0654,0.0791,0.1052,0.1231,0.1338,0.1335,0.1321,0.1285,0.1288,0.134,0.1266,0.1107,0.0986,0.086,0.0783,0.0698,0.0577,0.0426,0.0277,0.0203,0.0181,0,0,0,0,0,0,0,0,0,0,0,0,0,0,0,0,0,0,0,0,-0.0527,-0.0813,-0.0626,0.0321,0.0871,0.1173,0.1118,0.1189,0.1239,0.1255,0.1258,0.1327,0.1426,0.1519,0.1648,0.1708,0.1467,0.1104,0.084,0.0714,0.0673,0.056,0.0423,0.0343,0.0239,0.008,0,0,0,0,0,0,0,0,0,0,0,0,0,0,0,0,0,0,0,-0.0195,-0.0492,-0.0711,-0.0519,0.0173,0.0942,0.1379,0.1382,0.1239,0.117,0.1107,0.1096,0.1181,0.1349,0.153,0.1703,0.1895,0.1873,0.1464,0.0961,0.064,0.0536,0.0423,0.0198,0.0,-0.0091,-0.0255,0,0,0,0,0,0,0,0,0,0,0,0,0,0,0,0,0,0,0,-0.0283,-0.042,-0.053,-0.036,0.0176,0.0928,0.1291,0.1362,0.106,0.086,0.0819,0.0854,0.0923,0.1041,0.1244,0.148,0.1758,0.1994,0.1805,0.1209,0.0645,0.0379,0.0277,-0.0005,-0.0321,-0.0464,-0.0607,0,0,0,0,0,0,0,0,0,0,0,0,0,0,0,0,0,0,-0.0157,-0.0151,-0.0091,-0.0124,0.0047,0.0563,0.1277,0.1258,0.0964,0.0623,0.0519,0.0552,0.0585,0.0571,0.0596,0.0764,0.1063,0.1401,0.1791,0.1969,0.1546,0.0824,0.0319,0.0121,-0.0077,-0.039,-0.0604,-0.0698,0,0,0,0,0,0,0,0,0,0,0,0,0,0,0,0,0,0.0143,0.0088,0.0187,0.0233,0.0332,0.061,0.1192,0.1302,0.0953,0.0549,0.0415,0.0508,0.0659,0.0692,0.0582,0.0428,0.0396,0.0637,0.1014,0.1415,0.1835,0.1862,0.1211,0.0393,-0.0055,-0.0148,-0.0264,-0.0475,-0.0541,0,0,0,0,0,0,0,0,0,0,0,0,0,0,0,0,0.0387,0.0299,0.0376,0.0489,0.0659,0.0939,0.1406,0.1549,0.1156,0.0772,0.0786,0.1192,0.1733,0.2211,0.2417,0.2206,0.1637,0.1011,0.0676,0.0816,0.1189,0.156,0.1832,0.1571,0.0678,-0.0244,-0.0695,-0.0777,-0.0736,-0.0659,0,0,0,0,0,0,0,0,0,0,0,0,0,0,0,0,0.0407,0.053,0.0709,0.0948,0.1247,0.1634,0.1818,0.1494,0.1681,0.2326,0.3244,0.4175,0.5002,0.5664,0.6131,0.6287,0.576,0.4255,0.242,0.1387,0.1302,0.1577,0.1824,0.1854,0.1412,0.0464,-0.036,-0.0552,-0.047,-0.0426,0,0,0,0,0,0,0,0,0,0,0,0,0,0,0,0.0445,0.0648,0.0912,0.1225,0.1522,0.1923,0.1914,0.2392,0.3378,0.4513,0.5556,0.6446,0.7248,0.7924,0.846,0.8839,0.9094,0.9168,0.8712,0.7292,0.4851,0.2651,0.1917,0.2068,0.22,0.2052,0.1656,0.1159,0.0783,0.067,0.0761]},{"header":{"parameterUnit":"m.s-1","parameterCategory":2,"la1":30.5641,"la2":29.4642,"lo1":-89.4342,"lo2":-87.9343,"dy":0.0333,"dx":0.0333,"nx":46,"ny":34,"refTime":"2024-04-01T00:00:00:Z","depth":"12","parameterNumber":3,"parameterNumberName":"V-component_of_CURRENTS"},"data":[0,0,0,0,0,0,0,0,0,0,0,0,0,0,0,0,0,0,0,0,0,0,0,0,0,0,0,0,0,0,0,0,0,0,0,0,0,0,0,0,0,0,0,0,0,0,0,0,0,0,0,0,0,0,0,0,0,0,0,0,0,0,0,0,0,0,0,0,0,0,0,0,0,0,0,0,0,0,0,0,0,0,0,0,0,0,0,0,0,0,0,0,0,0,0,0,0,0,0,0,0,0,0,0,0,0,0,0,0,0,0,0,0,0,0,0,0,0,0,0,0,0,0,0,0,0,0,0,0,0,0,0,0,0,0,0,0,0,0,0,0,0,0,0,0,0,0,0,0,0,0,0,0,0,0,0,0,0,0,0,0,0,0,0,0,0,0,0,0,0,0,0,0,0,0,0,0,0,0,0,0,0,0,0,0,0,0,0,0,0,0,0,0,0,0,0,0,0,0,0,0,0,0,0,0,0,0,0,0,0,0,0,0,0,0,0,0,0,0,0,0,0,0,0,0,0,0,0,0,0,0,0,0,0,0,0,0,0,0,0,0,0,0,0,0,0,0,0,0,0,0,0,0,0,0,0,0,0,0,0,0,0,0,0,0,0,0,0,0,0,0,0,0,0,0,0,0,0,0,0,0,0,0,0,0,0,0,0,0,0,0,0,0,0,0,0,0,0,0,0,0,0,0,0,0,0,0,0,0,0,0,0,0,0,0,0,0,0,0,0,0,0,0,0,0,0,0,0,0,0,0,0,0,0,0,0,0,0,0,0,0,0,0,0,0,0,0,0,0,0,0,0,0,0,0,0,0,0,0,0,0,0,0,0,0,0,0,0,0,0,0,0,0,0,0,0,0,0,0,0,0,0,0,0,0,0,0,0,0,0,0,0,0,0,0,0,0,0,0,0,0,0,0,0,0,0,0,0,0,0,0,0,0,0,0,0,0,0,0,0,0,0,0,0,0,0,0,0,0,0,0,0,0,0,0,0,0,0,0,0,0,0,0,0,0,0,0,0,0,0,0,0,0,0,0,0,0,0,0,0,0,0,0,0,0,0,0,0,0,0,0,0,0,0,0,0,0,0,0,0,0,0,0,0,0,0,0,0,0,0,0,0,0,0,0,0,0,0,0,0,0,0,0,0,0,0,0,0,0,0,0,0,0,0,0,0,0,0,0,0,0,0,0,0,0,0,0,-0.0214,-0.019,0.0022,0.0129,0,0,0,0,0,0,0,0,0,0.0011,-0.0058,0,0,0,0,0,0,0,0,0,0,0,0,0,0,0,0,0,0,0,0,0,0,0,0,0,0,0,0,0,0,-0.0396,-0.0305,-0.0247,-0.0099,-0.0049,0.003,0.003,0,-0.0011,-0.0181,-0.0277,-0.0151,-0.0203,0.0069,-0.003,0.0041,-0.017,-0.008,-0.0173,-0.0231,0,-0.0349,0,-0.0003,-0.0184,-0.0242,0,0,0,0,0,0,0,0,0,0,0,0,0,0,0,0,0,0,0,-0.0593,-0.0566,-0.05,-0.0385,-0.0266,-0.0272,-0.0299,-0.0291,-0.0233,-0.0217,-0.0349,-0.0379,-0.0519,-0.0648,-0.081,-0.0448,-0.0426,-0.0431,-0.0206,-0.0217,-0.0335,-0.0434,-0.0398,-0.0222,-0.0173,-0.0283,-0.0294,0,0,0,0,0,0,0,0,0,0,0,0,0,0,0,0,0,0,0,-0.0613,-0.064,-0.0695,-0.0613,-0.0483,-0.0494,-0.0607,-0.0805,-0.0753,-0.0632,-0.0684,-0.0615,-0.0676,-0.1044,-0.1134,-0.0731,-0.0797,-0.0687,-0.0472,-0.0192,-0.0349,-0.0428,-0.0426,-0.0371,-0.031,-0.0316,-0.0294,0,0,0,0,0,0,0,0,0,0,0,0,0,0,0,0,0,0,0,0,-0.061,-0.0893,-0.0802,-0.0698,-0.0733,-0.0742,-0.0906,-0.1071,-0.1118,-0.1154,-0.1209,-0.0967,-0.0961,-0.1269,-0.1192,-0.1143,-0.1134,-0.1038,-0.0621,-0.0401,-0.0346,-0.0459,-0.0412,-0.0393,-0.0349,-0.0346,0,0,0,0,0,0,0,0,0,0,0,0,0,0,0,0,0,0,0,0,-0.0623,-0.0838,-0.0835,-0.0868,-0.0992,-0.0939,-0.0942,-0.1165,-0.1346,-0.1382,-0.136,-0.1068,-0.0887,-0.1343,-0.1618,-0.1516,-0.1486,-0.1472,-0.111,-0.0728,-0.0618,-0.0678,-0.0536,-0.0417,-0.0445,-0.0396,0,0,0,0,0,0,0,0,0,0,0,0,0,0,0,0,0,0,0,0,-0.0634,-0.0656,-0.0758,-0.07,-0.0904,-0.0887,-0.0926,-0.1154,-0.131,-0.1266,-0.1167,-0.1071,-0.0956,-0.1115,-0.1404,-0.153,-0.1607,-0.1673,-0.148,-0.1121,-0.1,-0.0813,-0.1068,-0.0643,-0.0676,-0.0588,0,0,0,0,0,0,0,0,0,0,0,0,0,0,0,0,0,0,0,0,0,-0.0577,-0.0667,-0.0464,-0.0607,-0.0725,-0.0978,-0.1156,-0.1167,-0.0983,-0.0805,-0.0692,-0.0654,-0.0755,-0.0997,-0.1211,-0.1384,-0.1571,-0.1706,-0.1645,-0.1362,-0.0967,-0.1222,-0.1035,-0.0948,-0.0939,0,0,0,0,0,0,0,0,0,0,0,0,0,0,0,0,0,0,0,0,0,-0.0566,-0.0673,-0.0431,-0.0519,-0.07,-0.1022,-0.1025,-0.0797,-0.0453,-0.0376,-0.0412,-0.0434,-0.0659,-0.0884,-0.0992,-0.1121,-0.1338,-0.159,-0.1791,-0.1577,-0.1088,-0.1173,-0.1252,-0.1154,-0.1019,0,0,0,0,0,0,0,0,0,0,0,0,0,0,0,0,0,0,0,0,0,-0.0574,-0.0692,-0.0555,-0.067,-0.0909,-0.1176,-0.0956,-0.0516,-0.0437,-0.0475,-0.0585,-0.0569,-0.0645,-0.0731,-0.0802,-0.0923,-0.1137,-0.142,-0.1612,-0.1513,-0.1159,-0.1137,-0.125,-0.1261,-0.1159,0,0,0,0,0,0,0,0,0,0,0,0,0,0,0,0,0,0,0,0,0,-0.0571,-0.0656,-0.0602,-0.0819,-0.1107,-0.1412,-0.1178,-0.0846,-0.0846,-0.0728,-0.0651,-0.0538,-0.0494,-0.0489,-0.0604,-0.0764,-0.0964,-0.1239,-0.1464,-0.1483,-0.1329,-0.1231,-0.1206,-0.1258,-0.1305,0,0,0,0,0,0,0,0,0,0,0,0,0,0,0,0,0,0,0,0,0,-0.0541,-0.0569,-0.0525,-0.0786,-0.1118,-0.1491,-0.1426,-0.1263,-0.1074,-0.0942,-0.081,-0.0623,-0.0445,-0.0385,-0.0505,-0.0673,-0.0868,-0.1107,-0.1351,-0.1527,-0.1546,-0.1494,-0.1387,-0.131,-0.1302,0,0,0,0,0,0,0,0,0,0,0,0,0,0,0,0,0,0,0,0,0,-0.0494,-0.0472,-0.0376,-0.0676,-0.0983,-0.1346,-0.139,-0.1321,-0.1151,-0.1112,-0.0981,-0.0755,-0.0549,-0.0415,-0.0423,-0.0577,-0.084,-0.109,-0.131,-0.1533,-0.1695,-0.1719,-0.164,-0.1513,-0.1351,0,0,0,0,0,0,0,0,0,0,0,0,0,0,0,0,0,0,0,0,-0.0428,-0.0431,-0.0335,-0.0151,-0.0602,-0.0857,-0.1104,-0.1167,-0.1156,-0.1195,-0.1178,-0.1066,-0.0912,-0.0794,-0.0709,-0.0599,-0.0577,-0.075,-0.1055,-0.1335,-0.1566,-0.175,-0.1818,-0.1752,-0.1615,-0.1483,0,0,0,0,0,0,0,0,0,0,0,0,0,0,0,0,0,0,0,0,-0.0368,-0.0316,-0.0121,0.0069,-0.0552,-0.0879,-0.1014,-0.1079,-0.1167,-0.1252,-0.1203,-0.1096,-0.0983,-0.0948,-0.1019,-0.1027,-0.0876,-0.0783,-0.1003,-0.1332,-0.1618,-0.1824,-0.1895,-0.1827,-0.1667,-0.1549,0,0,0,0,0,0,0,0,0,0,0,0,0,0,0,0,0,0,0,0,-0.0269,-0.0129,0.0069,0.0074,-0.0527,-0.0939,-0.1093,-0.1165,-0.1302,-0.1269,-0.1129,-0.0928,-0.081,-0.0827,-0.1033,-0.1321,-0.1318,-0.1057,-0.1041,-0.134,-0.1662,-0.1914,-0.2082,-0.2079,-0.187,-0.1653,0,0,0,0,0,0,0,0,0,0,0,0,0,0,0,0,0,0,0,-0.0297,-0.0005,0.0049,0.0077,-0.0082,-0.0541,-0.0862,-0.1101,-0.1244,-0.1244,-0.1071,-0.0799,-0.0613,-0.053,-0.0555,-0.0819,-0.1335,-0.1673,-0.1472,-0.117,-0.1343,-0.1717,-0.2027,-0.2263,-0.2368,-0.2271,-0.2008,0,0,0,0,0,0,0,0,0,0,0,0,0,0,0,0,0,0,0,0.0052,0.019,0.0135,0.0044,-0.0099,-0.0431,-0.0709,-0.1044,-0.1129,-0.092,-0.0645,-0.0445,-0.0346,-0.0294,-0.0266,-0.0467,-0.1082,-0.1796,-0.1892,-0.1475,-0.1365,-0.1714,-0.209,-0.2365,-0.2585,-0.2563,-0.2197,0,0,0,0,0,0,0,0,0,0,0,0,0,0,0,0,0,0,0.0179,0.0217,0.0184,0.0143,0.0038,-0.0115,-0.0492,-0.0846,-0.1025,-0.0884,-0.061,-0.0423,-0.033,-0.0294,-0.0206,-0.0085,-0.0151,-0.0711,-0.164,-0.2186,-0.1901,-0.1513,-0.1686,-0.2085,-0.2357,-0.2587,-0.2527,-0.2093,0,0,0,0,0,0,0,0,0,0,0,0,0,0,0,0,0,0.0225,0.0228,0.0173,0.0135,0.0058,-0.0102,-0.0437,-0.0928,-0.106,-0.0989,-0.0665,-0.0382,-0.0255,-0.0233,-0.0211,-0.0102,0.0082,0.0096,-0.0354,-0.1335,-0.2304,-0.2401,-0.1846,-0.1692,-0.2019,-0.2236,-0.2255,-0.2074,-0.1643,0,0,0,0,0,0,0,0,0,0,0,0,0,0,0,0,0.0176,0.022,0.0195,0.0181,0.0085,-0.0093,-0.0393,-0.111,-0.1214,-0.1066,-0.0687,-0.0261,-0.0005,0.0052,-0.0052,-0.0211,-0.0203,0.0063,0.0258,-0.0003,-0.0904,-0.2126,-0.2826,-0.2488,-0.189,-0.1832,-0.1936,-0.1763,-0.145,-0.0964,0,0,0,0,0,0,0,0,0,0,0,0,0,0,0,0,0.0195,0.022,0.0206,0.0102,-0.0055,-0.0327,-0.1132,-0.106,-0.0731,-0.0291,0.0104,0.0379,0.0472,0.0346,0.0022,-0.042,-0.0849,-0.1057,-0.0709,-0.008,-0.0357,-0.1524,-0.2714,-0.3016,-0.2447,-0.1876,-0.159,-0.1395,-0.1074,-0.0659,0,0,0,0,0,0,0,0,0,0,0,0,0,0,0,0.0159,0.0195,0.0173,0.006,-0.0151,-0.0717,-0.0786,-0.0321,0.017,0.0574,0.0862,0.1057,0.1118,0.0986,0.0643,0.0129,-0.05,-0.125,-0.2074,-0.2434,-0.1912,-0.1008,-0.0909,-0.1953,-0.2854,-0.292,-0.2252,-0.1744,-0.1535,-0.1244,-0.0857]}],[{"header":{"parameterUnit":"m.s-1","parameterCategory":2,"la1":30.5641,"la2":29.4642,"lo1":-89.4342,"lo2":-87.9343,"dy":0.0333,"dx":0.0333,"nx":46,"ny":34,"refTime":"2024-04-01T00:00:00:Z","depth":"15","parameterNumber":2,"parameterNumberName":"U-component_of_CURRENTS"},"data":[0,0,0,0,0,0,0,0,0,0,0,0,0,0,0,0,0,0,0,0,0,0,0,0,0,0,0,0,0,0,0,0,0,0,0,0,0,0,0,0,0,0,0,0,0,0,0,0,0,0,0,0,0,0,0,0,0,0,0,0,0,0,0,0,0,0,0,0,0,0,0,0,0,0,0,0,0,0,0,0,0,0,0,0,0,0,0,0,0,0,0,0,0,0,0,0,0,0,0,0,0,0,0,0,0,0,0,0,0,0,0,0,0,0,0,0,0,0,0,0,0,0,0,0,0,0,0,0,0,0,0,0,0,0,0,0,0,0,0,0,0,0,0,0,0,0,0,0,0,0,0,0,0,0,0,0,0,0,0,0,0,0,0,0,0,0,0,0,0,0,0,0,0,0,0,0,0,0,0,0,0,0,0,0,0,0,0,0,0,0,0,0,0,0,0,0,0,0,0,0,0,0,0,0,0,0,0,0,0,0,0,0,0,0,0,0,0,0,0,0,0,0,0,0,0,0,0,0,0,0,0,0,0,0,0,0,0,0,0,0,0,0,0,0,0,0,0,0,0,0,0,0,0,0,0,0,0,0,0,0,0,0,0,0,0,0,0,0,0,0,0,0,0,0,0,0,0,0,0,0,0,0,0,0,0,0,0,0,0,0,0,0,0,0,0,0,0,0,0,0,0,0,0,0,0,0,0,0,0,0,0,0,0,0,0,0,0,0,0,0,0,0,0,0,0,0,0,0,0,0,0,0,0,0,0,0,0,0,0,0,0,0,0,0,0,0,0,0,0,0,0,0,0,0,0,0,0,0,0,0,0,0,0,0,0,0,0,0,0,0,0,0,0,0,0,0,0,0,0,0,0,0,0,0,0,0,0,0,0,0,0,0,0,0,0,0,0,0,0,0,0,0,0,0,0,0,0,0,0,0,0,0,0,0,0,0,0,0,0,0,0,0,0,0,0,0,0,0,0,0,0,0,0,0,0,0,0,0,0,0,0,0,0,0,0,0,0,0,0,0,0,0,0,0,0,0,0,0,0,0,0,0,0,0,0,0,0,0,0,0,0,0,0,0,0,0,0,0,0,0,0,0,0,0,0,0,0,0,0,0,0,0,0,0,0,0,0,0,0,0,0,0,0,0,0,0,0,0,0,0,0,0,0,0,0,0,0,0,0,0,0,0,0,0,0,0,0,0,0,0,0,0,0,0,0,0,0,0,0,0,0,0,0,0,0,0,0,0,0,0,0,0,0,0,0,0,0,0,0,0,0,0,0,0,0,0,0,0,0,0,0,0,0,0,0,0,0,0,0,0,0,0,0,0,0,0,0,-0.0077,0.0148,0,0,0,0,0,0,0,0,0,0,0,0,0,0,0,0,0,0,0,0,0,0,0,0,0,0,0,0,0,0,0,0,0.0566,0.0494,0,0,0,0,0,0,0.0288,0.0486,0.0124,-0.0019,0.0003,0.014,0.0349,0.0363,0.0222,0,0,0,0,0,0,0,0,0,0,0,0,0,0,0,0,0,0,0,0,0,0,0,0,0,0,0,0,0.0434,0.0486,0.0472,0.0385,0.036,0.0387,0.0368,0.0393,0.0379,0.0453,0.0676,0.0711,0.0401,0.0214,0.0211,0.0146,0.0137,0.0165,0.0165,0.019,0.0211,0.0231,0.0275,0.0288,0,0,0,0,0,0,0,0,0,0,0,0,0,0,0,0,0,0,0,0,0,0.0239,0.0228,0.025,0.0288,0.0305,0.042,0.053,0.0536,0.0511,0.0527,0.0753,0.1063,0.1038,0.058,0.0228,0.0162,0.0058,-0.0016,0.0074,0.0154,0.0198,0.0244,0.0253,0.025,0.0231,0,0,0,0,0,0,0,0,0,0,0,0,0,0,0,0,0,0,0,0,0,0.0162,0.0093,0.0019,0.0085,0.0467,0.0758,0.0808,0.0876,0.0893,0.0879,0.0981,0.1241,0.128,0.0975,0.0676,0.0538,0.0439,0.0308,0.0247,0.0203,0.0352,0.0459,0.0233,0.011,0.0088,0,0,0,0,0,0,0,0,0,0,0,0,0,0,0,0,0,0,0,0,0,0,0.006,-0.0077,0.0151,0.0736,0.097,0.1022,0.1041,0.106,0.1085,0.1154,0.1343,0.1508,0.1415,0.117,0.0948,0.0709,0.0497,0.0423,0.0514,0.0508,0.0338,0.0173,0.0052,0.0014,0,0,0,0,0,0,0,0,0,0,0,0,0,0,0,0,0,0,0,0,0,0,0.0016,0.0074,0.0582,0.0868,0.0895,0.0981,0.1093,0.1211,0.1258,0.1277,0.1335,0.1401,0.1406,0.1338,0.1228,0.1101,0.084,0.0593,0.0569,0.0527,0.0464,0.0341,0.0154,0.0077,0,0,0,0,0,0,0,0,0,0,0,0,0,0,0,0,0,0,0,0,0,0,-0.0088,-0.0003,0.0569,0.0667,0.0698,0.0816,0.0898,0.0945,0.0862,0.075,0.0753,0.0835,0.0989,0.1176,0.1291,0.1327,0.1236,0.0964,0.0731,0.0676,0.0665,0.0571,0.0445,0.0319,0,0,0,0,0,0,0,0,0,0,0,0,0,0,0,0,0,0,0,0,0,0,-0.0159,-0.0181,0.0291,0.045,0.045,0.0533,0.0489,0.0181,-0.0085,-0.0168,-0.006,0.0143,0.0442,0.0819,0.1126,0.1274,0.1346,0.1302,0.1126,0.0849,0.0596,0.0486,0.031,0.0091,0,0,0,0,0,0,0,0,0,0,0,0,0,0,0,0,0,0,0,0,0,0,-0.0217,-0.0272,0.0157,0.0401,0.0404,0.0434,0.0382,0.0253,0.0247,0.033,0.0434,0.0519,0.0549,0.0632,0.084,0.1077,0.1154,0.1162,0.1178,0.1101,0.0821,0.0456,0.0132,-0.0135,0,0,0,0,0,0,0,0,0,0,0,0,0,0,0,0,0,0,0,0,0,0,-0.0283,-0.0272,0.0192,0.0494,0.0544,0.0678,0.0769,0.0898,0.1016,0.1071,0.1088,0.1093,0.1038,0.0893,0.0791,0.0873,0.1011,0.0986,0.0882,0.0868,0.0868,0.0645,0.0321,0.0008,0,0,0,0,0,0,0,0,0,0,0,0,0,0,0,0,0,0,0,0,0,0,-0.0371,-0.0275,0.0231,0.0714,0.0816,0.1049,0.1263,0.1522,0.1678,0.1741,0.1719,0.1673,0.1681,0.1604,0.131,0.0992,0.0923,0.0992,0.0923,0.0772,0.0728,0.0714,0.0613,0.0508,0,0,0,0,0,0,0,0,0,0,0,0,0,0,0,0,0,0,0,0,0,0,-0.0478,-0.0308,0.0346,0.1074,0.1217,0.1409,0.159,0.1648,0.1788,0.1827,0.1769,0.1686,0.17,0.1832,0.1895,0.1662,0.1266,0.1068,0.1046,0.0956,0.0788,0.0698,0.067,0.0607,0,0,0,0,0,0,0,0,0,0,0,0,0,0,0,0,0,0,0,0,0,0,-0.0577,-0.0313,0.039,0.1214,0.1417,0.1445,0.1401,0.142,0.1415,0.15,0.1585,0.1593,0.1618,0.1747,0.1892,0.1975,0.1802,0.1453,0.1192,0.1079,0.0981,0.0862,0.0788,0.0722,0,0,0,0,0,0,0,0,0,0,0,0,0,0,0,0,0,0,0,0,0,0,-0.061,-0.0343,0.0159,0.0736,0.1192,0.1288,0.1288,0.1231,0.1236,0.1349,0.1513,0.1621,0.1695,0.1832,0.1923,0.1914,0.1873,0.173,0.1426,0.1126,0.0978,0.0928,0.0887,0.0783,0,0,0,0,0,0,0,0,0,0,0,0,0,0,0,0,0,0,0,0,0,-0.067,-0.0569,-0.0365,-0.0135,0.0242,0.097,0.1296,0.1255,0.1145,0.1104,0.1184,0.1346,0.1535,0.1703,0.1892,0.2044,0.1994,0.1772,0.1571,0.142,0.1137,0.0788,0.0591,0.0456,0.0264,0,0,0,0,0,0,0,0,0,0,0,0,0,0,0,0,0,0,0,0,0,-0.047,-0.0456,-0.0305,0.0058,0.0431,0.125,0.1428,0.1206,0.1066,0.1041,0.1044,0.1107,0.1274,0.1505,0.1777,0.2057,0.2109,0.1832,0.1456,0.1217,0.1046,0.0684,0.0272,0.0069,-0.0041,0,0,0,0,0,0,0,0,0,0,0,0,0,0,0,0,0,0,0,0,0,-0.0272,-0.0272,-0.0027,0.0415,0.1079,0.1461,0.1239,0.1014,0.0997,0.0992,0.0937,0.0901,0.0978,0.1198,0.1491,0.1857,0.2123,0.198,0.1516,0.109,0.0884,0.0673,0.0324,0.0052,-0.0044,0,0,0,0,0,0,0,0,0,0,0,0,0,0,0,0,0,0,0,0,0.0022,-0.0033,0.0115,0.0494,0.1079,0.1412,0.128,0.103,0.1038,0.1156,0.1206,0.1118,0.0934,0.0788,0.0879,0.117,0.1538,0.1934,0.2085,0.1719,0.1121,0.0736,0.061,0.0478,0.0261,0.0126,0,0,0,0,0,0,0,0,0,0,0,0,0,0,0,0,0,0,0,0.0258,0.0299,0.0508,0.0895,0.1382,0.1604,0.1417,0.1187,0.1266,0.1612,0.2016,0.2269,0.2195,0.178,0.1192,0.0797,0.0893,0.1274,0.1656,0.1953,0.1906,0.1384,0.0662,0.0154,-0.0052,-0.0118,-0.0143,0,0,0,0,0,0,0,0,0,0,0,0,0,0,0,0,0,0,0.0428,0.0527,0.0802,0.1167,0.1643,0.1906,0.1829,0.2085,0.2714,0.3513,0.423,0.4796,0.5213,0.5411,0.5065,0.3867,0.2252,0.1231,0.1181,0.1546,0.1824,0.189,0.1681,0.1165,0.0582,0.0269,0.0173,0.008,0,0,0,0,0,0,0,0,0,0,0,0,0,0,0,0,0,0.0505,0.0725,0.1025,0.1365,0.1739,0.2258,0.2865,0.3876,0.4993,0.6004,0.6856,0.749,0.7866,0.805,0.8094,0.8111,0.8031,0.713,0.479,0.2417,0.1667,0.1917,0.2098,0.2011,0.1684,0.1217,0.0832,0.0665,0.0717]},{"header":{"parameterUnit":"m.s-1","parameterCategory":2,"la1":30.5641,"la2":29.4642,"lo1":-89.4342,"lo2":-87.9343,"dy":0.0333,"dx":0.0333,"nx":46,"ny":34,"refTime":"2024-04-01T00:00:00:Z","depth":"15","parameterNumber":3,"parameterNumberName":"V-component_of_CURRENTS"},"data":[0,0,0,0,0,0,0,0,0,0,0,0,0,0,0,0,0,0,0,0,0,0,0,0,0,0,0,0,0,0,0,0,0,0,0,0,0,0,0,0,0,0,0,0,0,0,0,0,0,0,0,0,0,0,0,0,0,0,0,0,0,0,0,0,0,0,0,0,0,0,0,0,0,0,0,0,0,0,0,0,0,0,0,0,0,0,0,0,0,0,0,0,0,0,0,0,0,0,0,0,0,0,0,0,0,0,0,0,0,0,0,0,0,0,0,0,0,0,0,0,0,0,0,0,0,0,0,0,0,0,0,0,0,0,0,0,0,0,0,0,0,0,0,0,0,0,0,0,0,0,0,0,0,0,0,0,0,0,0,0,0,0,0,0,0,0,0,0,0,0,0,0,0,0,0,0,0,0,0,0,0,0,0,0,0,0,0,0,0,0,0,0,0,0,0,0,0,0,0,0,0,0,0,0,0,0,0,0,0,0,0,0,0,0,0,0,0,0,0,0,0,0,0,0,0,0,0,0,0,0,0,0,0,0,0,0,0,0,0,0,0,0,0,0,0,0,0,0,0,0,0,0,0,0,0,0,0,0,0,0,0,0,0,0,0,0,0,0,0,0,0,0,0,0,0,0,0,0,0,0,0,0,0,0,0,0,0,0,0,0,0,0,0,0,0,0,0,0,0,0,0,0,0,0,0,0,0,0,0,0,0,0,0,0,0,0,0,0,0,0,0,0,0,0,0,0,0,0,0,0,0,0,0,0,0,0,0,0,0,0,0,0,0,0,0,0,0,0,0,0,0,0,0,0,0,0,0,0,0,0,0,0,0,0,0,0,0,0,0,0,0,0,0,0,0,0,0,0,0,0,0,0,0,0,0,0,0,0,0,0,0,0,0,0,0,0,0,0,0,0,0,0,0,0,0,0,0,0,0,0,0,0,0,0,0,0,0,0,0,0,0,0,0,0,0,0,0,0,0,0,0,0,0,0,0,0,0,0,0,0,0,0,0,0,0,0,0,0,0,0,0,0,0,0,0,0,0,0,0,0,0,0,0,0,0,0,0,0,0,0,0,0,0,0,0,0,0,0,0,0,0,0,0,0,0,0,0,0,0,0,0,0,0,0,0,0,0,0,0,0,0,0,0,0,0,0,0,0,0,0,0,0,0,0,0,0,0,0,0,0,0,0,0,0,0,0,0,0,0,0,0,0,0,0,0,0,0,0,0,0,0,0,0,0,0,0,0,0,0,0,0,0,0,0,0,0,0,0,0,0,0,0,0,0,0,0,0,0,0,0,0,0,0,0,0,0,0,0,0,0,0,0,0,0,0,0,0,-0.0022,0.0044,0,0,0,0,0,0,0,0,0,0,0,0,0,0,0,0,0,0,0,0,0,0,0,0,0,0,0,0,0,0,0,0,-0.0192,-0.0192,0,0,0,0,0,0,-0.019,-0.0165,0.0063,0.0074,0.0005,-0.0247,-0.0231,-0.0231,-0.0269,0,0,0,0,0,0,0,0,0,0,0,0,0,0,0,0,0,0,0,0,0,0,0,0,0,0,0,0,-0.0379,-0.028,-0.0217,-0.0209,-0.028,-0.0244,-0.0209,-0.0338,-0.0272,-0.0294,-0.0393,-0.0417,-0.0165,-0.0396,-0.0522,-0.0442,-0.0365,-0.0335,-0.0396,-0.0393,-0.0343,-0.0283,-0.0288,-0.0272,0,0,0,0,0,0,0,0,0,0,0,0,0,0,0,0,0,0,0,0,0,-0.0522,-0.0511,-0.045,-0.0363,-0.0313,-0.0338,-0.0508,-0.0505,-0.0519,-0.0569,-0.0728,-0.0876,-0.0854,-0.0582,-0.0618,-0.0673,-0.0453,-0.0371,-0.033,-0.0343,-0.0357,-0.0426,-0.0379,-0.0332,-0.0313,0,0,0,0,0,0,0,0,0,0,0,0,0,0,0,0,0,0,0,0,0,-0.058,-0.0629,-0.0577,-0.056,-0.047,-0.0602,-0.0819,-0.0937,-0.092,-0.1019,-0.1129,-0.1225,-0.1313,-0.1195,-0.0953,-0.0838,-0.0629,-0.0349,-0.0272,-0.0308,-0.0505,-0.0393,-0.0407,-0.0357,-0.036,0,0,0,0,0,0,0,0,0,0,0,0,0,0,0,0,0,0,0,0,0,0,-0.0629,-0.0651,-0.0645,-0.0711,-0.0849,-0.0992,-0.1112,-0.1096,-0.1071,-0.1068,-0.1129,-0.1291,-0.1434,-0.1404,-0.1305,-0.1022,-0.0648,-0.0459,-0.0538,-0.0632,-0.0332,-0.0431,-0.0352,-0.0409,0,0,0,0,0,0,0,0,0,0,0,0,0,0,0,0,0,0,0,0,0,0,-0.0602,-0.0566,-0.0585,-0.0794,-0.0989,-0.1145,-0.1154,-0.1052,-0.092,-0.0816,-0.0799,-0.0799,-0.0978,-0.1203,-0.1384,-0.1404,-0.1178,-0.0887,-0.1066,-0.0832,-0.0703,-0.0634,-0.0538,-0.0522,0,0,0,0,0,0,0,0,0,0,0,0,0,0,0,0,0,0,0,0,0,0,-0.0558,-0.0445,-0.0503,-0.0851,-0.1118,-0.1244,-0.1123,-0.0832,-0.0541,-0.0431,-0.0368,-0.036,-0.0494,-0.0714,-0.1038,-0.1362,-0.1516,-0.148,-0.1508,-0.1085,-0.0978,-0.0975,-0.0725,-0.0678,0,0,0,0,0,0,0,0,0,0,0,0,0,0,0,0,0,0,0,0,0,0,-0.0552,-0.0483,-0.0497,-0.0956,-0.1316,-0.1393,-0.1107,-0.0802,-0.0602,-0.0544,-0.0472,-0.0409,-0.0404,-0.0459,-0.0643,-0.1014,-0.1382,-0.1596,-0.1632,-0.1296,-0.1132,-0.1066,-0.0931,-0.0904,0,0,0,0,0,0,0,0,0,0,0,0,0,0,0,0,0,0,0,0,0,0,-0.056,-0.0552,-0.0494,-0.1052,-0.1491,-0.1546,-0.1291,-0.1156,-0.1035,-0.0871,-0.07,-0.0566,-0.0486,-0.0459,-0.0497,-0.0703,-0.1068,-0.1404,-0.1555,-0.1467,-0.1285,-0.1057,-0.097,-0.1016,0,0,0,0,0,0,0,0,0,0,0,0,0,0,0,0,0,0,0,0,0,0,-0.0536,-0.0536,-0.047,-0.1041,-0.1472,-0.1538,-0.1431,-0.1231,-0.1132,-0.1014,-0.0835,-0.0662,-0.0549,-0.0536,-0.0571,-0.064,-0.0838,-0.1167,-0.1442,-0.161,-0.1632,-0.1393,-0.1096,-0.0997,0,0,0,0,0,0,0,0,0,0,0,0,0,0,0,0,0,0,0,0,0,0,-0.0475,-0.0437,-0.0376,-0.0876,-0.1258,-0.1324,-0.1195,-0.1025,-0.0967,-0.0862,-0.0744,-0.0648,-0.058,-0.0538,-0.0588,-0.0703,-0.0849,-0.1071,-0.136,-0.1623,-0.1849,-0.184,-0.1535,-0.1247,0,0,0,0,0,0,0,0,0,0,0,0,0,0,0,0,0,0,0,0,0,0,-0.036,-0.0302,-0.0192,-0.0615,-0.0978,-0.1014,-0.0865,-0.0742,-0.0673,-0.0634,-0.0648,-0.0689,-0.0736,-0.0736,-0.0695,-0.0736,-0.0901,-0.1118,-0.136,-0.1615,-0.1829,-0.1983,-0.1936,-0.167,0,0,0,0,0,0,0,0,0,0,0,0,0,0,0,0,0,0,0,0,0,0,-0.022,-0.0159,-0.0022,-0.033,-0.0684,-0.0706,-0.0681,-0.0643,-0.0525,-0.0459,-0.0494,-0.0615,-0.0791,-0.0992,-0.1027,-0.0923,-0.0956,-0.1167,-0.1401,-0.1615,-0.1777,-0.1854,-0.1939,-0.1881,0,0,0,0,0,0,0,0,0,0,0,0,0,0,0,0,0,0,0,0,0,0,-0.0096,-0.0099,-0.0014,-0.0082,-0.0321,-0.0533,-0.0692,-0.07,-0.0516,-0.0368,-0.0354,-0.0472,-0.0706,-0.1033,-0.131,-0.128,-0.1134,-0.122,-0.1453,-0.1664,-0.1818,-0.1873,-0.1827,-0.1777,0,0,0,0,0,0,0,0,0,0,0,0,0,0,0,0,0,0,0,0,0,0.0044,-0.0019,-0.0041,0.0038,0.0096,-0.0096,-0.0492,-0.0703,-0.0626,-0.0407,-0.0255,-0.0209,-0.0269,-0.0505,-0.0939,-0.1415,-0.1571,-0.1409,-0.1343,-0.153,-0.1769,-0.1961,-0.2041,-0.1942,-0.1769,0,0,0,0,0,0,0,0,0,0,0,0,0,0,0,0,0,0,0,0,0,0.0132,0.0077,0.0104,0.0211,0.0222,-0.0093,-0.0508,-0.0547,-0.0374,-0.0228,-0.0151,-0.0085,-0.0038,-0.019,-0.0662,-0.134,-0.1796,-0.173,-0.1522,-0.164,-0.1892,-0.2112,-0.2244,-0.2195,-0.1934,0,0,0,0,0,0,0,0,0,0,0,0,0,0,0,0,0,0,0,0,0,0.0211,0.0201,0.0198,0.0239,0.0074,-0.0357,-0.0514,-0.0365,-0.0253,-0.0236,-0.0228,-0.014,0.0027,0.0055,-0.033,-0.109,-0.1835,-0.2027,-0.1805,-0.175,-0.1994,-0.2189,-0.2351,-0.2329,-0.2046,0,0,0,0,0,0,0,0,0,0,0,0,0,0,0,0,0,0,0,0,0.0255,0.0264,0.0214,0.0154,-0.0003,-0.0412,-0.0626,-0.0497,-0.0294,-0.0239,-0.0297,-0.0374,-0.0354,-0.0148,0.0074,-0.0088,-0.0788,-0.1725,-0.2299,-0.2206,-0.1989,-0.203,-0.2134,-0.2112,-0.2016,-0.1758,0,0,0,0,0,0,0,0,0,0,0,0,0,0,0,0,0,0,0,0.0272,0.028,0.022,0.0137,-0.0071,-0.0582,-0.0816,-0.0709,-0.0338,-0.0085,-0.0027,-0.0162,-0.039,-0.0508,-0.0341,-0.0058,-0.0014,-0.0533,-0.1502,-0.2417,-0.2672,-0.2401,-0.2164,-0.2098,-0.189,-0.1588,-0.1189,0,0,0,0,0,0,0,0,0,0,0,0,0,0,0,0,0,0,0.0283,0.0288,0.0255,0.017,0.0044,-0.0706,-0.0739,-0.0404,0.0,0.0346,0.0475,0.0376,0.008,-0.0319,-0.0736,-0.1022,-0.0747,-0.0162,-0.0319,-0.117,-0.2236,-0.2925,-0.284,-0.2456,-0.2167,-0.187,-0.1486,-0.1096,0,0,0,0,0,0,0,0,0,0,0,0,0,0,0,0,0,0.0275,0.0269,0.0239,0.0146,-0.0047,-0.0387,0.0041,0.0519,0.0884,0.1118,0.117,0.103,0.07,0.0228,-0.0335,-0.0997,-0.1752,-0.2134,-0.1763,-0.0964,-0.0824,-0.1697,-0.2692,-0.3076,-0.2813,-0.2288,-0.1862,-0.1447,-0.1038]}],[{"header":{"parameterUnit":"m.s-1","parameterCategory":2,"la1":30.5641,"la2":29.4642,"lo1":-89.4342,"lo2":-87.9343,"dy":0.0333,"dx":0.0333,"nx":46,"ny":34,"refTime":"2024-04-01T00:00:00:Z","depth":"20","parameterNumber":2,"parameterNumberName":"U-component_of_CURRENTS"},"data":[0,0,0,0,0,0,0,0,0,0,0,0,0,0,0,0,0,0,0,0,0,0,0,0,0,0,0,0,0,0,0,0,0,0,0,0,0,0,0,0,0,0,0,0,0,0,0,0,0,0,0,0,0,0,0,0,0,0,0,0,0,0,0,0,0,0,0,0,0,0,0,0,0,0,0,0,0,0,0,0,0,0,0,0,0,0,0,0,0,0,0,0,0,0,0,0,0,0,0,0,0,0,0,0,0,0,0,0,0,0,0,0,0,0,0,0,0,0,0,0,0,0,0,0,0,0,0,0,0,0,0,0,0,0,0,0,0,0,0,0,0,0,0,0,0,0,0,0,0,0,0,0,0,0,0,0,0,0,0,0,0,0,0,0,0,0,0,0,0,0,0,0,0,0,0,0,0,0,0,0,0,0,0,0,0,0,0,0,0,0,0,0,0,0,0,0,0,0,0,0,0,0,0,0,0,0,0,0,0,0,0,0,0,0,0,0,0,0,0,0,0,0,0,0,0,0,0,0,0,0,0,0,0,0,0,0,0,0,0,0,0,0,0,0,0,0,0,0,0,0,0,0,0,0,0,0,0,0,0,0,0,0,0,0,0,0,0,0,0,0,0,0,0,0,0,0,0,0,0,0,0,0,0,0,0,0,0,0,0,0,0,0,0,0,0,0,0,0,0,0,0,0,0,0,0,0,0,0,0,0,0,0,0,0,0,0,0,0,0,0,0,0,0,0,0,0,0,0,0,0,0,0,0,0,0,0,0,0,0,0,0,0,0,0,0,0,0,0,0,0,0,0,0,0,0,0,0,0,0,0,0,0,0,0,0,0,0,0,0,0,0,0,0,0,0,0,0,0,0,0,0,0,0,0,0,0,0,0,0,0,0,0,0,0,0,0,0,0,0,0,0,0,0,0,0,0,0,0,0,0,0,0,0,0,0,0,0,0,0,0,0,0,0,0,0,0,0,0,0,0,0,0,0,0,0,0,0,0,0,0,0,0,0,0,0,0,0,0,0,0,0,0,0,0,0,0,0,0,0,0,0,0,0,0,0,0,0,0,0,0,0,0,0,0,0,0,0,0,0,0,0,0,0,0,0,0,0,0,0,0,0,0,0,0,0,0,0,0,0,0,0,0,0,0,0,0,0,0,0,0,0,0,0,0,0,0,0,0,0,0,0,0,0,0,0,0,0,0,0,0,0,0,0,0,0,0,0,0,0,0,0,0,0,0,0,0,0,0,0,0,0,0,0,0,0,0,0,0,0,0,0,0,0,0,0,0,0,0,0,0,0,0,0,0,0,0,0,0,0,0,0,0,0,0,0,0,0,0,0,0,0,0,0,0,0,0,0,0,0,0,0,0,0,0,0,0,0,0,0,0,0,0,0,0,0,0,0,0,0,0,0,0,0,0,0,0,0,0,0,0,0,0,0,0,0,0,0,0,0,0,0,0,0,0,0,0,0,0,0,0,0,0,0,0,0,0,0,0,0,0,0,0,0,0,0,0,0,0,0,0,0,0,0,0,0,0,0,0,0,0,0,0,0,0,0,0,0,0,0,0,0,0,0,0,0,0,0,0,0,0,0,0,0,0,0,0,0,0,0,0,0,0,0,0,0,0,0,0,0,0,0,0,0,0.0415,0.008,-0.0052,0,0,0,0,0,0,0,0,0,0,0,0,0,0,0,0,0,0,0,0,0,0,0,0,0,0,0,0,0,0,0,0,0,0,0,-0.0016,-0.0027,0.0025,0.0121,0.0198,0.0209,0.0283,0.0478,0.0459,0.0233,0.0168,0.022,0.0187,0.0099,0.0071,0.006,0,0,0,0,0,0,0,0,0,0,0,0,0,0,0,0,0,0,0,0,0,0,0,0,0,0,0,0,0,-0.014,-0.0168,-0.0148,-0.0033,0.011,0.0192,0.0192,0.0253,0.0505,0.0623,0.0434,0.0242,0.0242,0.0305,0.028,0.0165,0.0129,0.0217,0.0269,0.0168,0.0049,0.0019,0,0,0,0,0,0,0,0,0,0,0,0,0,0,0,0,0,0,0,0,0,0,0,0,-0.0203,-0.0269,-0.0195,-0.0121,0.0058,0.0332,0.0563,0.067,0.0791,0.0923,0.0887,0.0689,0.0492,0.0407,0.0374,0.0231,0.0239,0.0321,0.0286,0.019,0.0069,0.003,0,0,0,0,0,0,0,0,0,0,0,0,0,0,0,0,0,0,0,0,0,0,0,0,-0.0184,-0.0228,-0.0173,-0.0165,0.0157,0.0582,0.0808,0.0865,0.0904,0.0967,0.1038,0.1049,0.0948,0.0802,0.0613,0.0439,0.0437,0.0511,0.0481,0.0417,0.033,0.0203,0,0,0,0,0,0,0,0,0,0,0,0,0,0,0,0,0,0,0,0,0,0,0,0,-0.0231,-0.0211,-0.0165,-0.0132,0.0332,0.0623,0.0706,0.0692,0.0626,0.0662,0.0824,0.1025,0.1162,0.1165,0.1066,0.0862,0.0703,0.0687,0.0676,0.0623,0.0494,0.0387,0,0,0,0,0,0,0,0,0,0,0,0,0,0,0,0,0,0,0,0,0,0,0,0,-0.0261,-0.0236,-0.0082,0.0093,0.0516,0.0695,0.0739,0.0709,0.0648,0.0599,0.0632,0.078,0.0994,0.1189,0.1291,0.1288,0.1121,0.0893,0.0728,0.0621,0.0497,0.0409,0,0,0,0,0,0,0,0,0,0,0,0,0,0,0,0,0,0,0,0,0,0,0,0,-0.0294,-0.0233,0.0085,0.0376,0.0728,0.0854,0.1074,0.1206,0.1211,0.1132,0.1008,0.0884,0.0876,0.1011,0.1151,0.1231,0.122,0.1082,0.0813,0.0566,0.0439,0.0368,0,0,0,0,0,0,0,0,0,0,0,0,0,0,0,0,0,0,0,0,0,0,0,0,-0.0291,-0.0258,0.0148,0.0621,0.0827,0.0989,0.114,0.1299,0.1494,0.1585,0.1535,0.1393,0.1189,0.1068,0.1077,0.1096,0.1068,0.0997,0.0838,0.0582,0.0382,0.0305,0,0,0,0,0,0,0,0,0,0,0,0,0,0,0,0,0,0,0,0,0,0,0,0,0,-0.025,0.006,0.0538,0.0648,0.0684,0.0755,0.1025,0.1324,0.1585,0.1684,0.1686,0.1648,0.1486,0.1296,0.1176,0.1035,0.0895,0.0802,0.07,0.0536,0.045,0,0,0,0,0,0,0,0,0,0,0,0,0,0,0,0,0,0,0,0,0,0,0,0,0,-0.0277,-0.0126,0.0124,0.0239,0.0294,0.0459,0.081,0.1192,0.1527,0.1708,0.1769,0.1794,0.1827,0.1717,0.1519,0.1288,0.1025,0.0838,0.0742,0.0689,0.0654,0,0,0,0,0,0,0,0,0,0,0,0,0,0,0,0,0,0,0,0,0,0,0,0,0,-0.0338,-0.0228,-0.0113,0.0214,0.0415,0.0645,0.0937,0.1258,0.1533,0.173,0.1868,0.1917,0.1953,0.2,0.1912,0.1653,0.1277,0.0953,0.0766,0.0698,0.0714,0,0,0,0,0,0,0,0,0,0,0,0,0,0,0,0,0,0,0,0,0,0,0,0,0,-0.0242,-0.0146,0.0104,0.0678,0.092,0.1063,0.1189,0.1354,0.1535,0.1697,0.187,0.1997,0.2024,0.2044,0.2087,0.1953,0.1566,0.1057,0.072,0.0591,0.0555,0,0,0,0,0,0,0,0,0,0,0,0,0,0,0,0,0,0,0,0,0,0,0,0,0,-0.0014,0.0148,0.0813,0.128,0.1382,0.1368,0.1329,0.1321,0.1423,0.1585,0.1785,0.2,0.209,0.2044,0.2041,0.2065,0.1843,0.1261,0.0665,0.0382,0.0327,0,0,0,0,0,0,0,0,0,0,0,0,0,0,0,0,0,0,0,0,0,0,0,0,-0.0041,0.0222,0.0593,0.1371,0.1623,0.1651,0.159,0.1461,0.1302,0.1247,0.1362,0.1571,0.1854,0.2087,0.2096,0.1983,0.198,0.1989,0.1714,0.1148,0.0684,0.0472,0,0,0,0,0,0,0,0,0,0,0,0,0,0,0,0,0,0,0,0,0,0,0,0,0.0272,0.0654,0.1154,0.1574,0.1664,0.1829,0.1964,0.1931,0.1678,0.1384,0.125,0.1343,0.1618,0.1945,0.2093,0.2,0.1854,0.1846,0.1912,0.1783,0.1442,0.1121,0,0,0,0,0,0,0,0,0,0,0,0,0,0,0,0,0,0,0,0,0,0,0.0338,0.056,0.0992,0.1351,0.1607,0.1599,0.1802,0.2104,0.2472,0.2659,0.2486,0.203,0.1549,0.1318,0.142,0.1736,0.1994,0.2013,0.1827,0.1505,0.1187,0.1027,0.095,0.0945,0,0,0,0,0,0,0,0,0,0,0,0,0,0,0,0,0,0,0,0,0,0.0648,0.1016,0.1437,0.1761,0.2076,0.2346,0.2804,0.3216,0.3505,0.3683,0.3876,0.3969,0.3529,0.2557,0.1678,0.1384,0.1557,0.184,0.1969,0.1857,0.1555,0.122,0.1014,0.089,0.0838,0,0,0,0,0,0,0,0,0,0,0,0,0,0,0,0,0,0,0,0.0648,0.0786,0.1165,0.1519,0.2071,0.2988,0.3818,0.4711,0.5427,0.5927,0.6216,0.6375,0.64,0.6367,0.638,0.582,0.406,0.2214,0.1546,0.1766,0.2033,0.2,0.1774,0.1483,0.1211,0.1038,0.103]},{"header":{"parameterUnit":"m.s-1","parameterCategory":2,"la1":30.5641,"la2":29.4642,"lo1":-89.4342,"lo2":-87.9343,"dy":0.0333,"dx":0.0333,"nx":46,"ny":34,"refTime":"2024-04-01T00:00:00:Z","depth":"20","parameterNumber":3,"parameterNumberName":"V-component_of_CURRENTS"},"data":[0,0,0,0,0,0,0,0,0,0,0,0,0,0,0,0,0,0,0,0,0,0,0,0,0,0,0,0,0,0,0,0,0,0,0,0,0,0,0,0,0,0,0,0,0,0,0,0,0,0,0,0,0,0,0,0,0,0,0,0,0,0,0,0,0,0,0,0,0,0,0,0,0,0,0,0,0,0,0,0,0,0,0,0,0,0,0,0,0,0,0,0,0,0,0,0,0,0,0,0,0,0,0,0,0,0,0,0,0,0,0,0,0,0,0,0,0,0,0,0,0,0,0,0,0,0,0,0,0,0,0,0,0,0,0,0,0,0,0,0,0,0,0,0,0,0,0,0,0,0,0,0,0,0,0,0,0,0,0,0,0,0,0,0,0,0,0,0,0,0,0,0,0,0,0,0,0,0,0,0,0,0,0,0,0,0,0,0,0,0,0,0,0,0,0,0,0,0,0,0,0,0,0,0,0,0,0,0,0,0,0,0,0,0,0,0,0,0,0,0,0,0,0,0,0,0,0,0,0,0,0,0,0,0,0,0,0,0,0,0,0,0,0,0,0,0,0,0,0,0,0,0,0,0,0,0,0,0,0,0,0,0,0,0,0,0,0,0,0,0,0,0,0,0,0,0,0,0,0,0,0,0,0,0,0,0,0,0,0,0,0,0,0,0,0,0,0,0,0,0,0,0,0,0,0,0,0,0,0,0,0,0,0,0,0,0,0,0,0,0,0,0,0,0,0,0,0,0,0,0,0,0,0,0,0,0,0,0,0,0,0,0,0,0,0,0,0,0,0,0,0,0,0,0,0,0,0,0,0,0,0,0,0,0,0,0,0,0,0,0,0,0,0,0,0,0,0,0,0,0,0,0,0,0,0,0,0,0,0,0,0,0,0,0,0,0,0,0,0,0,0,0,0,0,0,0,0,0,0,0,0,0,0,0,0,0,0,0,0,0,0,0,0,0,0,0,0,0,0,0,0,0,0,0,0,0,0,0,0,0,0,0,0,0,0,0,0,0,0,0,0,0,0,0,0,0,0,0,0,0,0,0,0,0,0,0,0,0,0,0,0,0,0,0,0,0,0,0,0,0,0,0,0,0,0,0,0,0,0,0,0,0,0,0,0,0,0,0,0,0,0,0,0,0,0,0,0,0,0,0,0,0,0,0,0,0,0,0,0,0,0,0,0,0,0,0,0,0,0,0,0,0,0,0,0,0,0,0,0,0,0,0,0,0,0,0,0,0,0,0,0,0,0,0,0,0,0,0,0,0,0,0,0,0,0,0,0,0,0,0,0,0,0,0,0,0,0,0,0,0,0,0,0,0,0,0,0,0,0,0,0,0,0,0,0,0,0,0,0,0,0,0,0,0,0,0,0,0,0,0,0,0,0,0,0,0,0,0,0,0,0,0,0,0,0,0,0,0,0,0,0,0,0,0,0,0,0,0,0,0,0,0,0,0,0,0,0,0,0,0,0,0,0,0,0,0,0,0,0,0,0,0,0,0,0,0,0,0,0,0,0,0,0,0,0,0,0,0,0,0,0,0,0,0,0,0,0,0,0,0,0,0,0,0,0,0,0,0,0,0,0,0,0,0,0,0,0,0,0,0,0,0,0,0,0,0,0,0,0,0,0,0,0,-0.0206,-0.0058,-0.0201,0,0,0,0,0,0,0,0,0,0,0,0,0,0,0,0,0,0,0,0,0,0,0,0,0,0,0,0,0,0,0,0,0,0,0,-0.0253,-0.0203,-0.0168,-0.0198,-0.0184,-0.0113,-0.0168,-0.0357,-0.0365,-0.0291,-0.0255,-0.0324,-0.0363,-0.0332,-0.0233,-0.0272,0,0,0,0,0,0,0,0,0,0,0,0,0,0,0,0,0,0,0,0,0,0,0,0,0,0,0,0,0,-0.0423,-0.0332,-0.0261,-0.0261,-0.0297,-0.033,-0.0415,-0.0577,-0.0794,-0.0799,-0.0714,-0.056,-0.053,-0.0472,-0.0396,-0.0266,-0.0365,-0.0511,-0.0335,-0.0341,-0.0316,-0.0319,0,0,0,0,0,0,0,0,0,0,0,0,0,0,0,0,0,0,0,0,0,0,0,0,-0.0431,-0.0357,-0.0335,-0.0343,-0.0494,-0.0684,-0.0805,-0.0832,-0.089,-0.089,-0.0956,-0.0934,-0.0832,-0.0725,-0.0607,-0.05,-0.0591,-0.0577,-0.045,-0.0417,-0.0431,-0.0426,0,0,0,0,0,0,0,0,0,0,0,0,0,0,0,0,0,0,0,0,0,0,0,0,-0.0368,-0.0302,-0.0343,-0.0486,-0.0868,-0.0994,-0.0865,-0.0681,-0.0549,-0.0508,-0.0637,-0.0843,-0.1003,-0.0978,-0.0854,-0.0819,-0.0871,-0.0717,-0.0552,-0.0552,-0.0508,-0.0442,0,0,0,0,0,0,0,0,0,0,0,0,0,0,0,0,0,0,0,0,0,0,0,0,-0.0343,-0.0258,-0.0316,-0.0634,-0.1088,-0.1011,-0.0731,-0.0519,-0.0409,-0.0376,-0.0398,-0.0544,-0.0783,-0.1035,-0.1137,-0.1129,-0.1112,-0.0983,-0.0772,-0.0673,-0.0538,-0.0453,0,0,0,0,0,0,0,0,0,0,0,0,0,0,0,0,0,0,0,0,0,0,0,0,-0.0379,-0.0324,-0.0379,-0.067,-0.0953,-0.0797,-0.0618,-0.0525,-0.0486,-0.0467,-0.0428,-0.042,-0.0503,-0.0755,-0.1088,-0.1299,-0.134,-0.1225,-0.1055,-0.0857,-0.0687,-0.058,0,0,0,0,0,0,0,0,0,0,0,0,0,0,0,0,0,0,0,0,0,0,0,0,-0.0409,-0.0385,-0.0401,-0.0541,-0.0588,-0.0472,-0.042,-0.0478,-0.05,-0.0505,-0.0489,-0.0467,-0.0475,-0.0555,-0.081,-0.1189,-0.1486,-0.1491,-0.128,-0.1088,-0.0895,-0.072,0,0,0,0,0,0,0,0,0,0,0,0,0,0,0,0,0,0,0,0,0,0,0,0,-0.0368,-0.033,-0.0244,-0.0302,-0.0203,-0.014,-0.0184,-0.0332,-0.0382,-0.0423,-0.0497,-0.0549,-0.0591,-0.0632,-0.0706,-0.0972,-0.1404,-0.1711,-0.1593,-0.1296,-0.1063,-0.0893,0,0,0,0,0,0,0,0,0,0,0,0,0,0,0,0,0,0,0,0,0,0,0,0,0,-0.0253,-0.0058,-0.0041,0.006,0.0085,0.0096,-0.003,-0.0071,-0.014,-0.036,-0.058,-0.0711,-0.081,-0.0884,-0.095,-0.1209,-0.164,-0.1898,-0.1695,-0.1302,-0.1033,0,0,0,0,0,0,0,0,0,0,0,0,0,0,0,0,0,0,0,0,0,0,0,0,0,-0.0203,0.0085,0.0187,0.0214,0.0302,0.0321,0.0327,0.0291,0.0165,-0.0143,-0.0522,-0.0808,-0.0953,-0.1082,-0.1167,-0.1209,-0.1434,-0.1824,-0.203,-0.1752,-0.1343,0,0,0,0,0,0,0,0,0,0,0,0,0,0,0,0,0,0,0,0,0,0,0,0,0,-0.0082,0.0184,0.0305,0.0324,0.0379,0.0442,0.0525,0.0511,0.036,0.0016,-0.0472,-0.0901,-0.1148,-0.1231,-0.1371,-0.1437,-0.1442,-0.1615,-0.1903,-0.1991,-0.1755,0,0,0,0,0,0,0,0,0,0,0,0,0,0,0,0,0,0,0,0,0,0,0,0,0,0.0093,0.0244,0.039,0.0324,0.0261,0.0341,0.0442,0.0486,0.0398,0.0126,-0.0376,-0.0945,-0.1362,-0.1486,-0.153,-0.1653,-0.1659,-0.1629,-0.1785,-0.1978,-0.1923,0,0,0,0,0,0,0,0,0,0,0,0,0,0,0,0,0,0,0,0,0,0,0,0,0,0.0201,0.0354,0.0401,0.017,0.0093,0.0124,0.019,0.0264,0.028,0.0154,-0.0209,-0.084,-0.1445,-0.1752,-0.1772,-0.1851,-0.1901,-0.1857,-0.1876,-0.2016,-0.2035,0,0,0,0,0,0,0,0,0,0,0,0,0,0,0,0,0,0,0,0,0,0,0,0,0.0198,0.0332,0.0439,0.0244,0.0118,0.0088,0.0011,-0.0044,0.0003,0.0096,0.0104,-0.011,-0.0643,-0.1371,-0.1879,-0.2022,-0.2115,-0.2178,-0.2148,-0.2107,-0.2129,-0.2118,0,0,0,0,0,0,0,0,0,0,0,0,0,0,0,0,0,0,0,0,0,0,0,0,0.0319,0.0415,0.0338,0.0242,0.0352,0.0357,0.0151,-0.0154,-0.0283,-0.0192,-0.0038,-0.0085,-0.0483,-0.12,-0.1912,-0.2241,-0.2376,-0.245,-0.2398,-0.2222,-0.2076,-0.2,0,0,0,0,0,0,0,0,0,0,0,0,0,0,0,0,0,0,0,0,0,0,0.0275,0.0335,0.0374,0.0316,0.0124,0.0217,0.0442,0.0593,0.0363,-0.0047,-0.0511,-0.0667,-0.0478,-0.0258,-0.0434,-0.1046,-0.1862,-0.2434,-0.2612,-0.2629,-0.2565,-0.2329,-0.2022,-0.1783,0,0,0,0,0,0,0,0,0,0,0,0,0,0,0,0,0,0,0,0,0,0.0321,0.0398,0.0437,0.0398,0.0019,0.006,0.0299,0.0519,0.056,0.0365,-0.0014,-0.0596,-0.1115,-0.1165,-0.0766,-0.0643,-0.1,-0.1714,-0.2434,-0.2758,-0.2769,-0.2678,-0.2472,-0.2065,-0.1632,0,0,0,0,0,0,0,0,0,0,0,0,0,0,0,0,0,0,0,0.031,0.0363,0.0442,0.0514,0.0481,0.0324,0.0665,0.0884,0.1016,0.0934,0.0662,0.0242,-0.0236,-0.0797,-0.1472,-0.1961,-0.1851,-0.1274,-0.1068,-0.1491,-0.2206,-0.2771,-0.2928,-0.2769,-0.2458,-0.2008,-0.1524]}],[{"header":{"parameterUnit":"m.s-1","parameterCategory":2,"la1":30.5641,"la2":29.4642,"lo1":-89.4342,"lo2":-87.9343,"dy":0.0333,"dx":0.0333,"nx":46,"ny":34,"refTime":"2024-04-01T00:00:00:Z","depth":"25","parameterNumber":2,"parameterNumberName":"U-component_of_CURRENTS"},"data":[0,0,0,0,0,0,0,0,0,0,0,0,0,0,0,0,0,0,0,0,0,0,0,0,0,0,0,0,0,0,0,0,0,0,0,0,0,0,0,0,0,0,0,0,0,0,0,0,0,0,0,0,0,0,0,0,0,0,0,0,0,0,0,0,0,0,0,0,0,0,0,0,0,0,0,0,0,0,0,0,0,0,0,0,0,0,0,0,0,0,0,0,0,0,0,0,0,0,0,0,0,0,0,0,0,0,0,0,0,0,0,0,0,0,0,0,0,0,0,0,0,0,0,0,0,0,0,0,0,0,0,0,0,0,0,0,0,0,0,0,0,0,0,0,0,0,0,0,0,0,0,0,0,0,0,0,0,0,0,0,0,0,0,0,0,0,0,0,0,0,0,0,0,0,0,0,0,0,0,0,0,0,0,0,0,0,0,0,0,0,0,0,0,0,0,0,0,0,0,0,0,0,0,0,0,0,0,0,0,0,0,0,0,0,0,0,0,0,0,0,0,0,0,0,0,0,0,0,0,0,0,0,0,0,0,0,0,0,0,0,0,0,0,0,0,0,0,0,0,0,0,0,0,0,0,0,0,0,0,0,0,0,0,0,0,0,0,0,0,0,0,0,0,0,0,0,0,0,0,0,0,0,0,0,0,0,0,0,0,0,0,0,0,0,0,0,0,0,0,0,0,0,0,0,0,0,0,0,0,0,0,0,0,0,0,0,0,0,0,0,0,0,0,0,0,0,0,0,0,0,0,0,0,0,0,0,0,0,0,0,0,0,0,0,0,0,0,0,0,0,0,0,0,0,0,0,0,0,0,0,0,0,0,0,0,0,0,0,0,0,0,0,0,0,0,0,0,0,0,0,0,0,0,0,0,0,0,0,0,0,0,0,0,0,0,0,0,0,0,0,0,0,0,0,0,0,0,0,0,0,0,0,0,0,0,0,0,0,0,0,0,0,0,0,0,0,0,0,0,0,0,0,0,0,0,0,0,0,0,0,0,0,0,0,0,0,0,0,0,0,0,0,0,0,0,0,0,0,0,0,0,0,0,0,0,0,0,0,0,0,0,0,0,0,0,0,0,0,0,0,0,0,0,0,0,0,0,0,0,0,0,0,0,0,0,0,0,0,0,0,0,0,0,0,0,0,0,0,0,0,0,0,0,0,0,0,0,0,0,0,0,0,0,0,0,0,0,0,0,0,0,0,0,0,0,0,0,0,0,0,0,0,0,0,0,0,0,0,0,0,0,0,0,0,0,0,0,0,0,0,0,0,0,0,0,0,0,0,0,0,0,0,0,0,0,0,0,0,0,0,0,0,0,0,0,0,0,0,0,0,0,0,0,0,0,0,0,0,0,0,0,0,0,0,0,0,0,0,0,0,0,0,0,0,0,0,0,0,0,0,0,0,0,0,0,0,0,0,0,0,0,0,0,0,0,0,0,0,0,0,0,0,0,0,0,0,0,0,0,0,0,0,0,0,0,0,0,0,0,0,0,0,0,0,0,0,0,0,0,0,0,0,0,0,0,0,0,0,0,0,0,0,0,0,0,0,0,0,0,0,0,0,0,0,0,0,0,0,0,0,0,0,0,0,0,0,0,0,0,0,0,0,0,0,0,0,0,0,0,0,0,0,0,0,0,0,0,0,0,0,0,0,0,0,0,0,0,0,0,0,0,0,0,0,0,0,0,0,0,0,0,0,0,0,0,0,0,0,0,0,0,0,0,0,0,0,0,0,0,0,0,0,0,0,0,0,0,0,0,0,0,0,0,0,0,0,0,0,0,0,0,0,0,0,0,0,0,0,0,0,0,0,0,0,0,0,0,0,0,0,0,-0.0011,-0.0014,0.0016,0.0233,0.0341,0.0239,0.0192,0,0,0,0,0,0,0,0,0,0,0,0,0,0,0,0,0,0,0,0,0,0,0,0,0,0,0,0,0,0,0,0,0,0,0,0,0,-0.0253,-0.0198,-0.0165,-0.0148,-0.0082,0.0135,0.0357,0.0382,0.0277,0.022,0.0272,0.0299,0.019,0.0201,0,0,0,0,0,0,0,0,0,0,0,0,0,0,0,0,0,0,0,0,0,0,0,0,0,0,0,0,0,0,0,0,-0.0294,-0.0269,-0.0165,0.0022,0.0187,0.0324,0.042,0.0453,0.0426,0.031,0.0253,0.0338,0.0352,0.0357,0.042,0.039,0.0346,0.0283,0.0181,0,0,0,0,0,0,0,0,0,0,0,0,0,0,0,0,0,0,0,0,0,0,0,0,0,0,0,-0.0283,-0.0228,-0.0041,0.0154,0.0302,0.0423,0.0503,0.0593,0.0654,0.0582,0.0387,0.0266,0.0368,0.0492,0.0536,0.0547,0.0481,0.0368,0.0294,0,0,0,0,0,0,0,0,0,0,0,0,0,0,0,0,0,0,0,0,0,0,0,0,0,0,0,-0.0228,-0.0115,0.0041,0.0143,0.0233,0.0385,0.0519,0.0623,0.0742,0.0832,0.0728,0.0481,0.0365,0.0423,0.053,0.0558,0.0516,0.0437,0.0371,0,0,0,0,0,0,0,0,0,0,0,0,0,0,0,0,0,0,0,0,0,0,0,0,0,0,0,-0.0162,0.0003,0.0132,0.0231,0.0341,0.0478,0.0645,0.0794,0.086,0.0884,0.0915,0.0783,0.0555,0.0371,0.0319,0.0439,0.0456,0.0398,0.0349,0,0,0,0,0,0,0,0,0,0,0,0,0,0,0,0,0,0,0,0,0,0,0,0,0,0,-0.0294,-0.0143,0.0044,0.0165,0.0302,0.0428,0.0483,0.0574,0.0764,0.0934,0.1016,0.1049,0.0992,0.0703,0.0357,0.014,0.0159,0.0332,0.0379,0.0294,0,0,0,0,0,0,0,0,0,0,0,0,0,0,0,0,0,0,0,0,0,0,0,0,0,0,-0.0291,-0.0198,-0.0044,0.0099,0.0244,0.0428,0.0582,0.0692,0.0788,0.0884,0.1025,0.1132,0.1181,0.1016,0.0582,0.0209,0.011,0.0225,0.0352,0.0327,0,0,0,0,0,0,0,0,0,0,0,0,0,0,0,0,0,0,0,0,0,0,0,0,0,0,0,-0.028,-0.0179,-0.0005,0.017,0.0385,0.0602,0.0805,0.0945,0.1008,0.103,0.1118,0.1236,0.128,0.1016,0.0574,0.0335,0.0264,0.0302,0.036,0,0,0,0,0,0,0,0,0,0,0,0,0,0,0,0,0,0,0,0,0,0,0,0,0,0,0,-0.0283,-0.0192,0.0036,0.019,0.0316,0.0511,0.0788,0.1016,0.1211,0.1283,0.1255,0.1302,0.1401,0.1393,0.1046,0.0648,0.0494,0.0489,0.0547,0,0,0,0,0,0,0,0,0,0,0,0,0,0,0,0,0,0,0,0,0,0,0,0,0,0,0,-0.0157,0.0071,0.0431,0.0558,0.0585,0.0651,0.084,0.1016,0.1206,0.1428,0.1461,0.1447,0.1516,0.161,0.1472,0.1082,0.078,0.072,0.0747,0,0,0,0,0,0,0,0,0,0,0,0,0,0,0,0,0,0,0,0,0,0,0,0,0,0,0.0016,0.0107,0.0689,0.1016,0.1126,0.1104,0.1088,0.1145,0.1173,0.1225,0.1415,0.156,0.1588,0.1599,0.1695,0.1739,0.1508,0.1203,0.1016,0.0956,0,0,0,0,0,0,0,0,0,0,0,0,0,0,0,0,0,0,0,0,0,0,0,0,0,0,0.0239,0.0645,0.1241,0.1571,0.1697,0.1656,0.1502,0.1401,0.1398,0.139,0.1453,0.1579,0.1651,0.1678,0.1689,0.1816,0.1796,0.1541,0.1277,0.1126,0,0,0,0,0,0,0,0,0,0,0,0,0,0,0,0,0,0,0,0,0,0,0,0,0,0.0313,0.0645,0.1071,0.1415,0.1659,0.189,0.2068,0.2035,0.1755,0.1519,0.1469,0.1557,0.1662,0.1686,0.17,0.1758,0.1849,0.2002,0.1994,0.1805,0.1579,0,0,0,0,0,0,0,0,0,0,0,0,0,0,0,0,0,0,0,0,0,0,0,0,0.0538,0.0906,0.1178,0.1327,0.1434,0.1612,0.1928,0.2357,0.2634,0.2494,0.2074,0.1656,0.1577,0.1714,0.1818,0.1783,0.1763,0.1807,0.1901,0.203,0.2112,0.2041,0,0,0,0,0,0,0,0,0,0,0,0,0,0,0,0,0,0,0,0,0,0,0,0.0928,0.1335,0.164,0.192,0.2162,0.2409,0.2631,0.2813,0.2969,0.32,0.3318,0.2933,0.2271,0.1777,0.1686,0.1851,0.1964,0.1895,0.1794,0.1725,0.1659,0.1664,0.173,0,0,0,0,0,0,0,0,0,0,0,0,0,0,0,0,0,0,0,0,0,0.081,0.1137,0.1511,0.2019,0.2708,0.3381,0.3963,0.4414,0.4702,0.4875,0.4914,0.4845,0.4842,0.4658,0.3793,0.256,0.1763,0.1697,0.1942,0.2038,0.1947,0.178,0.1585,0.1434,0.1401]},{"header":{"parameterUnit":"m.s-1","parameterCategory":2,"la1":30.5641,"la2":29.4642,"lo1":-89.4342,"lo2":-87.9343,"dy":0.0333,"dx":0.0333,"nx":46,"ny":34,"refTime":"2024-04-01T00:00:00:Z","depth":"25","parameterNumber":3,"parameterNumberName":"V-component_of_CURRENTS"},"data":[0,0,0,0,0,0,0,0,0,0,0,0,0,0,0,0,0,0,0,0,0,0,0,0,0,0,0,0,0,0,0,0,0,0,0,0,0,0,0,0,0,0,0,0,0,0,0,0,0,0,0,0,0,0,0,0,0,0,0,0,0,0,0,0,0,0,0,0,0,0,0,0,0,0,0,0,0,0,0,0,0,0,0,0,0,0,0,0,0,0,0,0,0,0,0,0,0,0,0,0,0,0,0,0,0,0,0,0,0,0,0,0,0,0,0,0,0,0,0,0,0,0,0,0,0,0,0,0,0,0,0,0,0,0,0,0,0,0,0,0,0,0,0,0,0,0,0,0,0,0,0,0,0,0,0,0,0,0,0,0,0,0,0,0,0,0,0,0,0,0,0,0,0,0,0,0,0,0,0,0,0,0,0,0,0,0,0,0,0,0,0,0,0,0,0,0,0,0,0,0,0,0,0,0,0,0,0,0,0,0,0,0,0,0,0,0,0,0,0,0,0,0,0,0,0,0,0,0,0,0,0,0,0,0,0,0,0,0,0,0,0,0,0,0,0,0,0,0,0,0,0,0,0,0,0,0,0,0,0,0,0,0,0,0,0,0,0,0,0,0,0,0,0,0,0,0,0,0,0,0,0,0,0,0,0,0,0,0,0,0,0,0,0,0,0,0,0,0,0,0,0,0,0,0,0,0,0,0,0,0,0,0,0,0,0,0,0,0,0,0,0,0,0,0,0,0,0,0,0,0,0,0,0,0,0,0,0,0,0,0,0,0,0,0,0,0,0,0,0,0,0,0,0,0,0,0,0,0,0,0,0,0,0,0,0,0,0,0,0,0,0,0,0,0,0,0,0,0,0,0,0,0,0,0,0,0,0,0,0,0,0,0,0,0,0,0,0,0,0,0,0,0,0,0,0,0,0,0,0,0,0,0,0,0,0,0,0,0,0,0,0,0,0,0,0,0,0,0,0,0,0,0,0,0,0,0,0,0,0,0,0,0,0,0,0,0,0,0,0,0,0,0,0,0,0,0,0,0,0,0,0,0,0,0,0,0,0,0,0,0,0,0,0,0,0,0,0,0,0,0,0,0,0,0,0,0,0,0,0,0,0,0,0,0,0,0,0,0,0,0,0,0,0,0,0,0,0,0,0,0,0,0,0,0,0,0,0,0,0,0,0,0,0,0,0,0,0,0,0,0,0,0,0,0,0,0,0,0,0,0,0,0,0,0,0,0,0,0,0,0,0,0,0,0,0,0,0,0,0,0,0,0,0,0,0,0,0,0,0,0,0,0,0,0,0,0,0,0,0,0,0,0,0,0,0,0,0,0,0,0,0,0,0,0,0,0,0,0,0,0,0,0,0,0,0,0,0,0,0,0,0,0,0,0,0,0,0,0,0,0,0,0,0,0,0,0,0,0,0,0,0,0,0,0,0,0,0,0,0,0,0,0,0,0,0,0,0,0,0,0,0,0,0,0,0,0,0,0,0,0,0,0,0,0,0,0,0,0,0,0,0,0,0,0,0,0,0,0,0,0,0,0,0,0,0,0,0,0,0,0,0,0,0,0,0,0,0,0,0,0,0,0,0,0,0,0,0,0,0,0,0,0,0,0,0,0,0,0,0,0,0,0,0,0,0,0,0,0,0,0,0,0,0,0,0,0,0,0,0,0,0,0,0,0,0,0,0,0,0,0,0,0,0,0,0,0,0,0,0,0,0,0,0,0,0,0,0,0,0,0,0,0,0,0,0,0,0,0,0,0,0,0,0,0,0,0,0,0,0,0,0,0,0,0,0,0,0,0,0,0,0,0,0,0,0,0,0,0,0,0,0,-0.0168,-0.0107,-0.0093,-0.0184,-0.0209,-0.0305,-0.0291,0,0,0,0,0,0,0,0,0,0,0,0,0,0,0,0,0,0,0,0,0,0,0,0,0,0,0,0,0,0,0,0,0,0,0,0,0,-0.0255,-0.0203,-0.0181,-0.0239,-0.0321,-0.0371,-0.0288,-0.0305,-0.0299,-0.0332,-0.0374,-0.0431,-0.0385,-0.0475,0,0,0,0,0,0,0,0,0,0,0,0,0,0,0,0,0,0,0,0,0,0,0,0,0,0,0,0,0,0,0,0,-0.0239,-0.0247,-0.0363,-0.0475,-0.0437,-0.0269,-0.0148,-0.0132,-0.0209,-0.0321,-0.0437,-0.0525,-0.0522,-0.058,-0.0549,-0.047,-0.0464,-0.0448,-0.0404,0,0,0,0,0,0,0,0,0,0,0,0,0,0,0,0,0,0,0,0,0,0,0,0,0,0,0,-0.025,-0.0349,-0.0407,-0.0335,-0.017,0.0022,0.0016,-0.003,-0.0115,-0.0225,-0.0376,-0.0599,-0.0736,-0.0731,-0.0648,-0.0549,-0.0519,-0.0431,-0.039,0,0,0,0,0,0,0,0,0,0,0,0,0,0,0,0,0,0,0,0,0,0,0,0,0,0,0,-0.0261,-0.0258,-0.019,-0.0071,0.0008,0.0008,-0.0071,-0.0132,-0.0162,-0.0184,-0.0297,-0.0519,-0.0775,-0.0895,-0.0865,-0.0711,-0.0618,-0.0533,-0.0467,0,0,0,0,0,0,0,0,0,0,0,0,0,0,0,0,0,0,0,0,0,0,0,0,0,0,0,-0.019,-0.0107,-0.0036,-0.0016,-0.0008,-0.0047,-0.0118,-0.0192,-0.0242,-0.025,-0.0258,-0.0426,-0.0689,-0.0942,-0.1046,-0.0975,-0.0802,-0.07,-0.0618,0,0,0,0,0,0,0,0,0,0,0,0,0,0,0,0,0,0,0,0,0,0,0,0,0,0,-0.0264,-0.0154,-0.0093,-0.0058,-0.0003,-0.0027,-0.0063,-0.0162,-0.0236,-0.0308,-0.039,-0.0409,-0.0385,-0.0511,-0.0829,-0.1079,-0.1184,-0.1003,-0.0829,-0.0744,0,0,0,0,0,0,0,0,0,0,0,0,0,0,0,0,0,0,0,0,0,0,0,0,0,0,-0.0228,-0.0179,-0.0102,-0.0003,0.0115,0.0135,0.008,-0.0115,-0.0201,-0.0275,-0.042,-0.0599,-0.0637,-0.053,-0.0659,-0.1005,-0.1247,-0.1143,-0.0945,-0.0794,0,0,0,0,0,0,0,0,0,0,0,0,0,0,0,0,0,0,0,0,0,0,0,0,0,0,0,-0.0085,0.0044,0.0179,0.0294,0.0363,0.0319,0.011,-0.0005,-0.0151,-0.036,-0.0604,-0.0857,-0.0882,-0.0764,-0.0906,-0.1178,-0.1209,-0.103,-0.0832,0,0,0,0,0,0,0,0,0,0,0,0,0,0,0,0,0,0,0,0,0,0,0,0,0,0,0,0.0135,0.0313,0.0461,0.0544,0.0582,0.0574,0.0503,0.028,-0.0005,-0.0352,-0.0588,-0.0876,-0.1159,-0.1156,-0.1016,-0.1041,-0.1077,-0.0964,-0.0794,0,0,0,0,0,0,0,0,0,0,0,0,0,0,0,0,0,0,0,0,0,0,0,0,0,0,0,0.0374,0.0569,0.0678,0.0744,0.072,0.0733,0.0766,0.0536,0.0192,-0.0368,-0.075,-0.097,-0.1266,-0.15,-0.1362,-0.1088,-0.0961,-0.0917,-0.0917,0,0,0,0,0,0,0,0,0,0,0,0,0,0,0,0,0,0,0,0,0,0,0,0,0,0,0.033,0.0602,0.0733,0.0703,0.067,0.0634,0.0681,0.0747,0.0637,0.0343,-0.0305,-0.0972,-0.1277,-0.1437,-0.1651,-0.17,-0.1458,-0.1206,-0.1181,-0.1255,0,0,0,0,0,0,0,0,0,0,0,0,0,0,0,0,0,0,0,0,0,0,0,0,0,0,0.0494,0.0736,0.0725,0.0585,0.0461,0.0299,0.0258,0.0371,0.0407,0.0288,-0.0198,-0.1027,-0.1612,-0.1791,-0.1849,-0.1958,-0.1901,-0.1692,-0.1593,-0.1667,0,0,0,0,0,0,0,0,0,0,0,0,0,0,0,0,0,0,0,0,0,0,0,0,0,0.0472,0.067,0.0799,0.0783,0.0742,0.0582,0.0261,-0.0102,-0.019,-0.0071,-0.003,-0.022,-0.0876,-0.1675,-0.2167,-0.2261,-0.231,-0.2335,-0.2208,-0.2082,-0.2115,0,0,0,0,0,0,0,0,0,0,0,0,0,0,0,0,0,0,0,0,0,0,0,0,0.0494,0.0681,0.0824,0.0964,0.1057,0.1016,0.0854,0.047,-0.0093,-0.0538,-0.0549,-0.0431,-0.0445,-0.0816,-0.1533,-0.2261,-0.2664,-0.2774,-0.2788,-0.2697,-0.2552,-0.2467,0,0,0,0,0,0,0,0,0,0,0,0,0,0,0,0,0,0,0,0,0,0,0,0.0569,0.0731,0.0862,0.0945,0.1063,0.1118,0.1008,0.0788,0.0442,-0.008,-0.0786,-0.1162,-0.1022,-0.0887,-0.1022,-0.1472,-0.2107,-0.2609,-0.2813,-0.2917,-0.2911,-0.2697,-0.2497,0,0,0,0,0,0,0,0,0,0,0,0,0,0,0,0,0,0,0,0,0,0.045,0.0618,0.0783,0.0948,0.0989,0.1068,0.1132,0.1019,0.0764,0.0393,-0.0033,-0.0481,-0.109,-0.1791,-0.1983,-0.1675,-0.1412,-0.1538,-0.1983,-0.2467,-0.2774,-0.2846,-0.2708,-0.2346,-0.1917]}]]